[[{"header":{"parameterUnit":"m.s-1","parameterCategory":1,"la1":30.6,"la2":29.2853,"lo1":-89.7004,"lo2":-87.6739,"dy":0.0162,"dx":0.0183,"nx":112,"ny":82,"refTime":"2024-08-28T06:00:00:Z","depth":0,"parameterNumber":2,"parameterNumberName":"U-component_of_WINDS"},"data":[0.0,0.0,0.0,0.0,0.0,0.0,0.0,0.0,0.0,0.0,0.0,0.0,0.0,0.0,0.0,0.0,0.0,0.0,0.0,0.0,0.0,0.0,0.0,0.0,0.0,0.0,0.0,0.0,0.0,0.0,0.0,0.0,0.0,0.0,0.0,0.0,0.0,0.0,0.0,0.0,0.0,0.0,0.0,0.0,0.0,0.0,0.0,0.0,0.0,0.0,0.0,0.0,0.0,0.0,0.0,0.0,0.0,0.0,0.0,0.0,0.0,0.0,0.0,0.0,0.0,0.0,0.0,0.0,0.0,0.0,0.0,0.0,0.0,0.0,0.0,0.0,0.0,0.0,0.0,0.0,0.0,0.0,0.0,0.0,0.0,0.0,0.0,0.0,0.0,0.0,-4.3878,-4.5055,-4.5952,-4.6429,-4.6323,-4.556,-4.4091,-4.1756,0.0,0.0,0.0,0.0,0.0,0.0,0.0,0.0,0.0,0.0,0.0,0.0,0.0,0.0,0.0,0.0,0.0,0.0,0.0,0.0,0.0,0.0,0.0,0.0,0.0,0.0,0.0,0.0,0.0,0.0,0.0,0.0,0.0,0.0,0.0,0.0,0.0,0.0,0.0,0.0,0.0,0.0,0.0,0.0,0.0,0.0,0.0,0.0,0.0,0.0,0.0,0.0,0.0,0.0,0.0,0.0,0.0,0.0,0.0,0.0,0.0,0.0,0.0,0.0,0.0,0.0,0.0,0.0,0.0,0.0,0.0,0.0,0.0,0.0,0.0,0.0,0.0,0.0,0.0,0.0,0.0,0.0,0.0,0.0,0.0,0.0,0.0,0.0,0.0,0.0,0.0,0.0,0.0,0.0,0.0,0.0,0.0,0.0,0.0,0.0,0.0,0.0,0.0,0.0,-4.3302,-4.4947,-4.5833,-4.6112,-4.5544,-4.4686,-4.3435,-4.172,0.0,0.0,0.0,0.0,0.0,0.0,0.0,0.0,0.0,0.0,0.0,0.0,0.0,0.0,0.0,0.0,0.0,0.0,0.0,0.0,0.0,0.0,0.0,0.0,0.0,0.0,0.0,0.0,0.0,0.0,0.0,0.0,0.0,0.0,0.0,0.0,0.0,0.0,0.0,0.0,0.0,0.0,0.0,0.0,0.0,0.0,0.0,0.0,0.0,0.0,0.0,0.0,0.0,0.0,0.0,0.0,0.0,0.0,0.0,0.0,0.0,0.0,0.0,0.0,0.0,0.0,0.0,0.0,0.0,0.0,0.0,0.0,0.0,0.0,0.0,0.0,0.0,0.0,0.0,0.0,0.0,0.0,0.0,0.0,0.0,0.0,0.0,0.0,0.0,0.0,0.0,0.0,0.0,0.0,0.0,0.0,0.0,0.0,0.0,0.0,0.0,0.0,0.0,-4.3245,-4.3847,-4.5578,-4.5328,-4.4933,-4.4632,-4.3756,-4.2542,-4.0883,-3.9661,0.0,0.0,0.0,0.0,0.0,0.0,0.0,0.0,0.0,0.0,0.0,0.0,0.0,0.0,0.0,0.0,0.0,0.0,0.0,0.0,0.0,0.0,0.0,0.0,0.0,0.0,0.0,0.0,0.0,0.0,0.0,0.0,0.0,0.0,0.0,0.0,0.0,0.0,0.0,0.0,0.0,0.0,0.0,0.0,0.0,0.0,0.0,0.0,0.0,0.0,0.0,0.0,0.0,0.0,0.0,0.0,0.0,0.0,0.0,0.0,0.0,0.0,0.0,0.0,0.0,0.0,0.0,0.0,0.0,0.0,0.0,0.0,0.0,0.0,0.0,0.0,0.0,0.0,0.0,0.0,0.0,0.0,0.0,0.0,0.0,0.0,0.0,0.0,0.0,0.0,0.0,0.0,0.0,0.0,0.0,0.0,0.0,0.0,0.0,0.0,0.0,0.0,-4.4485,-4.442,-4.5531,-4.4597,-4.3842,-4.3682,-4.2809,-4.167,-4.0194,-3.8456,0.0,0.0,0.0,0.0,0.0,0.0,0.0,0.0,0.0,0.0,0.0,0.0,0.0,0.0,0.0,0.0,0.0,0.0,0.0,0.0,0.0,0.0,0.0,0.0,0.0,0.0,0.0,0.0,0.0,0.0,0.0,0.0,0.0,0.0,0.0,0.0,0.0,0.0,0.0,0.0,0.0,0.0,0.0,0.0,0.0,0.0,0.0,0.0,0.0,0.0,0.0,0.0,0.0,0.0,0.0,0.0,0.0,0.0,0.0,0.0,0.0,0.0,0.0,0.0,0.0,0.0,0.0,0.0,0.0,0.0,0.0,0.0,0.0,0.0,0.0,0.0,0.0,0.0,0.0,0.0,0.0,0.0,0.0,0.0,0.0,0.0,0.0,0.0,0.0,0.0,0.0,0.0,0.0,0.0,0.0,0.0,0.0,0.0,0.0,0.0,0.0,0.0,-4.3864,-4.4368,-4.3847,-4.3686,-4.3389,-4.2753,-4.1902,-4.1018,-4.0158,-3.7828,0.0,0.0,0.0,0.0,0.0,0.0,0.0,0.0,0.0,0.0,0.0,0.0,0.0,0.0,0.0,0.0,0.0,0.0,0.0,0.0,0.0,0.0,0.0,0.0,0.0,0.0,0.0,0.0,0.0,0.0,0.0,0.0,0.0,0.0,0.0,0.0,0.0,0.0,0.0,0.0,0.0,0.0,0.0,0.0,0.0,0.0,0.0,0.0,0.0,0.0,0.0,0.0,0.0,0.0,0.0,0.0,0.0,0.0,0.0,0.0,0.0,0.0,0.0,0.0,0.0,0.0,0.0,0.0,0.0,0.0,0.0,0.0,0.0,0.0,0.0,0.0,0.0,0.0,0.0,0.0,0.0,0.0,0.0,0.0,0.0,0.0,0.0,0.0,0.0,0.0,0.0,0.0,0.0,0.0,0.0,0.0,0.0,0.0,0.0,0.0,0.0,0.0,-4.2416,-4.2905,-4.2698,-4.2502,-4.2324,-4.2065,-4.1658,-4.0905,-3.9686,0.0,0.0,0.0,0.0,0.0,0.0,0.0,0.0,0.0,0.0,0.0,0.0,0.0,0.0,0.0,0.0,0.0,0.0,0.0,0.0,0.0,0.0,0.0,0.0,0.0,0.0,0.0,0.0,0.0,0.0,0.0,0.0,0.0,0.0,0.0,0.0,0.0,0.0,0.0,0.0,0.0,0.0,0.0,0.0,0.0,0.0,0.0,0.0,0.0,0.0,0.0,0.0,0.0,0.0,0.0,0.0,0.0,0.0,0.0,0.0,0.0,0.0,0.0,0.0,0.0,0.0,0.0,0.0,0.0,0.0,0.0,0.0,0.0,0.0,0.0,0.0,0.0,0.0,0.0,0.0,0.0,0.0,0.0,0.0,0.0,0.0,0.0,0.0,0.0,0.0,0.0,0.0,0.0,0.0,0.0,0.0,0.0,0.0,0.0,0.0,0.0,0.0,-4.0141,-4.145,-4.2165,-4.1745,-4.1521,-4.1405,-4.1405,-4.1089,-4.0258,-3.8783,0.0,0.0,0.0,0.0,0.0,0.0,0.0,0.0,0.0,0.0,0.0,0.0,0.0,0.0,0.0,0.0,0.0,0.0,0.0,0.0,0.0,0.0,0.0,0.0,0.0,0.0,0.0,0.0,0.0,0.0,0.0,0.0,0.0,0.0,0.0,0.0,0.0,0.0,0.0,0.0,0.0,0.0,0.0,0.0,0.0,0.0,0.0,0.0,0.0,0.0,0.0,0.0,0.0,0.0,0.0,0.0,0.0,0.0,0.0,0.0,0.0,0.0,0.0,0.0,0.0,0.0,0.0,0.0,0.0,0.0,0.0,0.0,0.0,0.0,0.0,0.0,0.0,0.0,0.0,0.0,0.0,0.0,0.0,0.0,0.0,0.0,0.0,0.0,0.0,0.0,0.0,0.0,0.0,0.0,0.0,0.0,0.0,0.0,0.0,0.0,0.0,0.0,-3.8911,-4.1294,-4.2433,-4.095,-4.0778,-4.0778,-4.0778,-4.0065,-3.898,0.0,0.0,0.0,0.0,0.0,0.0,0.0,0.0,0.0,0.0,0.0,0.0,0.0,0.0,0.0,0.0,0.0,0.0,0.0,0.0,0.0,0.0,0.0,0.0,0.0,0.0,0.0,0.0,0.0,0.0,0.0,0.0,0.0,0.0,0.0,0.0,0.0,0.0,0.0,0.0,0.0,0.0,0.0,0.0,0.0,0.0,0.0,0.0,0.0,0.0,0.0,0.0,0.0,0.0,0.0,0.0,0.0,0.0,0.0,0.0,0.0,0.0,0.0,0.0,0.0,0.0,0.0,0.0,0.0,0.0,0.0,0.0,0.0,0.0,0.0,0.0,0.0,0.0,0.0,0.0,0.0,0.0,0.0,0.0,0.0,0.0,0.0,0.0,0.0,0.0,0.0,0.0,0.0,0.0,0.0,0.0,0.0,0.0,0.0,0.0,0.0,0.0,0.0,-3.8394,-4.0438,-4.1506,-4.0611,-4.0341,-4.0228,-4.0228,-4.0024,-3.9241,-3.7774,0.0,0.0,0.0,0.0,0.0,0.0,0.0,0.0,0.0,0.0,0.0,0.0,0.0,0.0,0.0,0.0,0.0,0.0,0.0,0.0,0.0,0.0,0.0,0.0,0.0,0.0,0.0,0.0,0.0,0.0,0.0,0.0,0.0,0.0,0.0,0.0,0.0,0.0,0.0,0.0,0.0,0.0,0.0,0.0,0.0,0.0,0.0,0.0,0.0,0.0,0.0,0.0,0.0,0.0,0.0,0.0,0.0,0.0,0.0,0.0,0.0,0.0,0.0,0.0,0.0,0.0,0.0,0.0,0.0,0.0,0.0,0.0,0.0,0.0,0.0,0.0,0.0,0.0,0.0,0.0,0.0,0.0,0.0,0.0,0.0,0.0,0.0,0.0,0.0,0.0,0.0,0.0,0.0,0.0,0.0,0.0,0.0,0.0,0.0,0.0,0.0,0.0,-3.8186,-4.0056,-4.1143,-4.0475,-3.999,-3.9731,-3.9731,-3.9731,-3.8975,-3.7203,0.0,0.0,0.0,0.0,0.0,0.0,0.0,0.0,0.0,0.0,0.0,0.0,0.0,0.0,0.0,0.0,0.0,0.0,0.0,0.0,0.0,0.0,0.0,0.0,0.0,0.0,0.0,0.0,0.0,0.0,0.0,0.0,0.0,0.0,0.0,0.0,0.0,0.0,0.0,0.0,0.0,0.0,0.0,0.0,0.0,0.0,0.0,0.0,0.0,0.0,0.0,0.0,0.0,0.0,0.0,0.0,0.0,0.0,0.0,0.0,0.0,0.0,0.0,0.0,0.0,0.0,0.0,0.0,0.0,0.0,0.0,0.0,0.0,0.0,0.0,0.0,0.0,0.0,0.0,0.0,0.0,0.0,0.0,0.0,0.0,0.0,0.0,0.0,0.0,0.0,0.0,0.0,0.0,0.0,0.0,0.0,0.0,0.0,0.0,0.0,0.0,0.0,-3.8342,-4.0111,-4.1149,-4.0547,-3.9752,-3.9272,-3.9299,-3.9299,-3.842,-3.6315,0.0,0.0,0.0,0.0,0.0,0.0,0.0,0.0,0.0,0.0,0.0,0.0,0.0,0.0,0.0,0.0,0.0,0.0,0.0,0.0,0.0,0.0,0.0,0.0,0.0,0.0,0.0,0.0,0.0,0.0,0.0,0.0,0.0,0.0,0.0,0.0,0.0,0.0,0.0,0.0,0.0,0.0,0.0,0.0,0.0,0.0,0.0,0.0,0.0,0.0,0.0,0.0,0.0,0.0,0.0,0.0,0.0,0.0,0.0,0.0,-3.819,0.0,0.0,0.0,0.0,0.0,0.0,0.0,0.0,0.0,0.0,0.0,0.0,0.0,0.0,0.0,0.0,0.0,0.0,0.0,0.0,0.0,0.0,0.0,0.0,0.0,0.0,0.0,0.0,0.0,0.0,0.0,0.0,0.0,0.0,0.0,0.0,0.0,0.0,0.0,0.0,0.0,-3.938,-4.043,-4.1062,-4.1028,-3.9842,-3.9121,-3.9299,-3.9299,-3.8815,-3.7642,-3.6488,0.0,0.0,0.0,0.0,0.0,0.0,0.0,0.0,0.0,0.0,0.0,0.0,0.0,0.0,0.0,0.0,0.0,0.0,0.0,0.0,0.0,0.0,0.0,0.0,0.0,0.0,0.0,0.0,0.0,0.0,0.0,0.0,0.0,0.0,0.0,0.0,0.0,0.0,0.0,0.0,0.0,0.0,0.0,0.0,0.0,0.0,0.0,0.0,0.0,0.0,0.0,0.0,0.0,0.0,0.0,0.0,0.0,0.0,0.0,0.0,-3.9374,0.0,0.0,0.0,0.0,0.0,0.0,0.0,0.0,0.0,0.0,0.0,0.0,0.0,0.0,0.0,0.0,0.0,0.0,0.0,0.0,0.0,0.0,0.0,0.0,0.0,0.0,0.0,0.0,0.0,0.0,0.0,0.0,0.0,0.0,0.0,0.0,0.0,0.0,0.0,0.0,-3.9263,-4.0312,-4.0881,-4.0623,-3.9571,-3.8942,-3.904,-3.9067,-3.87,-3.7896,-3.6795,0.0,0.0,0.0,0.0,0.0,0.0,0.0,0.0,0.0,0.0,0.0,0.0,0.0,0.0,0.0,0.0,0.0,0.0,0.0,0.0,0.0,0.0,0.0,0.0,0.0,0.0,0.0,0.0,0.0,0.0,0.0,0.0,0.0,0.0,0.0,0.0,0.0,0.0,0.0,0.0,0.0,0.0,0.0,0.0,0.0,0.0,0.0,0.0,0.0,0.0,0.0,0.0,0.0,-4.3578,-4.3644,-4.3415,-4.3415,-4.3415,-4.3333,-4.1964,-4.1684,-4.2152,-4.1694,0.0,0.0,0.0,0.0,0.0,0.0,0.0,0.0,0.0,0.0,0.0,0.0,0.0,0.0,0.0,0.0,0.0,0.0,0.0,0.0,0.0,0.0,0.0,0.0,-4.2556,-4.2683,0.0,0.0,0.0,0.0,0.0,0.0,0.0,0.0,0.0,0.0,0.0,0.0,-3.8918,-4.0107,-4.0647,-3.9956,-3.9219,-3.8777,-3.8805,-3.8805,-3.8543,-3.7883,-3.7163,-3.6574,0.0,0.0,0.0,0.0,0.0,0.0,0.0,0.0,0.0,0.0,0.0,0.0,0.0,0.0,0.0,0.0,0.0,0.0,0.0,0.0,0.0,0.0,0.0,0.0,0.0,0.0,0.0,0.0,0.0,0.0,0.0,0.0,-3.8766,-3.9088,0.0,0.0,0.0,0.0,0.0,0.0,0.0,0.0,0.0,0.0,0.0,0.0,0.0,-4.2855,-4.2937,-4.4168,-4.4447,-4.3811,-4.5552,-4.5761,-4.4577,-4.4577,-4.4577,-4.4529,-4.3702,0.0,-4.2937,-4.2747,0.0,0.0,0.0,0.0,0.0,0.0,0.0,0.0,0.0,0.0,0.0,0.0,0.0,0.0,0.0,0.0,0.0,0.0,0.0,0.0,0.0,0.0,-4.1403,-4.1498,-4.2142,-4.2445,0.0,-4.1147,-4.0802,-3.9489,-3.9201,0.0,0.0,0.0,0.0,0.0,0.0,0.0,-3.9417,-4.0099,-4.0355,-3.9789,-3.9056,-3.8655,-3.8805,-3.8805,-3.8717,-3.8497,-3.7796,-3.7579,-3.801,-3.6302,0.0,0.0,0.0,0.0,0.0,0.0,0.0,0.0,0.0,0.0,0.0,0.0,0.0,0.0,0.0,0.0,0.0,0.0,0.0,0.0,0.0,0.0,0.0,0.0,0.0,0.0,0.0,0.0,0.0,-3.6785,-3.8686,-3.8762,-3.9404,-3.9428,0.0,0.0,0.0,0.0,0.0,0.0,0.0,0.0,0.0,-4.1451,-4.2268,-4.2884,-4.3248,-4.424,-4.4567,-4.4252,-4.5146,-4.5468,-4.5304,-4.487,-4.4918,-4.5322,-4.4625,-4.4205,-4.4008,-4.3617,-4.3322,-4.2994,0.0,0.0,0.0,0.0,-4.1916,-4.1885,-4.2221,-4.204,0.0,-4.1167,0.0,0.0,0.0,0.0,0.0,0.0,0.0,0.0,0.0,0.0,0.0,-4.0787,-4.1541,-4.1942,-4.1588,-4.1523,-4.1257,0.0,-4.0049,-3.9475,-3.7655,0.0,0.0,0.0,0.0,-3.8944,-3.8944,-3.8881,-3.8572,-3.7907,-3.7886,-3.7943,-3.8014,-3.8014,-3.8001,-3.7931,-3.7261,-3.7008,-3.728,-3.6402,-3.585,0.0,0.0,0.0,0.0,0.0,0.0,0.0,0.0,0.0,0.0,0.0,0.0,0.0,0.0,0.0,0.0,0.0,0.0,0.0,0.0,0.0,0.0,0.0,0.0,0.0,0.0,0.0,0.0,-3.7169,-3.8496,-3.8258,-3.9199,-3.9264,0.0,0.0,0.0,0.0,0.0,0.0,-4.0396,-4.0792,-4.1275,-4.1782,-4.2557,-4.3159,-4.3673,-4.4211,-4.451,-4.451,-4.451,-4.4812,-4.5374,-4.4631,-4.4649,-4.518,-4.4321,-4.405,-4.4217,-4.3961,-4.3734,-4.3509,-4.2924,-4.2636,-4.2478,-4.2396,-4.2425,-4.2557,-4.3106,-4.2889,-4.234,-4.2088,0.0,-3.9299,-3.7694,0.0,0.0,0.0,0.0,-3.7506,-3.7994,-3.8185,-3.8478,-3.9538,-4.029,-4.0747,-4.0489,-4.0593,-4.0684,0.0,-4.049,-3.9941,-3.8231,0.0,0.0,0.0,0.0,-3.8387,-3.823,-3.7794,-3.7216,-3.6492,-3.686,-3.7147,-3.7147,-3.7147,-3.7147,-3.7147,-3.6677,-3.6415,-3.6415,-3.6228,-3.5905,-3.5339,0.0,0.0,0.0,0.0,0.0,0.0,0.0,0.0,0.0,0.0,0.0,0.0,0.0,0.0,0.0,0.0,0.0,0.0,0.0,0.0,0.0,0.0,0.0,0.0,0.0,0.0,0.0,0.0,0.0,-3.8262,-3.9985,0.0,0.0,0.0,0.0,-3.925,-4.0477,-4.1161,-4.1047,-4.2438,-4.3205,-4.3184,-4.3983,-4.4395,-4.4426,-4.4495,-4.451,-4.451,-4.451,-4.451,-4.4533,-4.3809,-4.3562,-4.364,-4.2171,-4.2015,-4.2766,-4.3427,-4.3281,-4.2606,-4.186,-4.1534,-4.1452,-4.1463,-4.1878,-4.2396,-4.2442,-4.2442,-4.2498,-4.3125,-4.1964,-3.9963,-3.793,-3.731,0.0,0.0,-3.7384,-3.7345,-3.7421,-3.7462,-3.7477,-3.7537,-3.8108,-3.8471,-3.7782,-3.8172,-3.899,0.0,-4.0404,-4.0173,-3.9431,0.0,-3.909,-3.8365,-3.8338,-3.8171,-3.7555,-3.7478,-3.7216,-3.6492,-3.6446,-3.6446,-3.6446,-3.6446,-3.6446,-3.6446,-3.6415,-3.6415,-3.6415,-3.5802,-3.5434,-3.5419,-3.4174,0.0,0.0,0.0,0.0,0.0,0.0,0.0,0.0,0.0,0.0,0.0,0.0,0.0,0.0,0.0,0.0,0.0,0.0,0.0,0.0,0.0,0.0,0.0,0.0,0.0,0.0,0.0,0.0,-3.8472,-3.9943,0.0,-3.8857,-3.9429,-3.9871,-3.9809,-4.0645,-4.1327,-4.1741,-4.2242,-4.2558,-4.2541,-4.2809,-4.297,-4.297,-4.297,-4.297,-4.297,-4.297,-4.322,-4.3687,-4.2953,-4.2702,-4.2823,-4.1842,-4.1322,-4.1199,-4.1487,-4.1969,-4.2576,-4.2291,-4.2178,-4.2109,-4.158,-4.182,-4.2327,-4.2327,-4.2261,-4.2075,-4.1463,-4.0524,-3.9419,-3.8219,-3.7607,-3.7295,-3.7323,-3.6718,-3.6067,-3.6118,-3.5786,-3.558,-3.6026,-3.632,-3.6526,-3.6678,-3.6906,-3.7233,-3.7658,-3.8152,-3.8285,-3.7634,-3.819,-3.8538,-3.7839,-3.7718,-3.7676,-3.7449,-3.6282,-3.5388,-3.5151,-3.5497,-3.577,-3.577,-3.577,-3.577,-3.577,-3.5367,-3.5121,-3.5121,-3.4872,-3.4754,-3.4754,-3.4316,-3.3761,0.0,0.0,0.0,0.0,0.0,0.0,0.0,0.0,0.0,0.0,0.0,0.0,0.0,0.0,0.0,0.0,0.0,0.0,0.0,0.0,0.0,0.0,0.0,0.0,0.0,-3.7218,-3.8332,-3.846,-3.9751,-4.0198,-3.8971,-3.9812,-4.0402,-4.0448,-4.1062,-4.1628,-4.2078,-4.2092,-4.2092,-4.2092,-4.2092,-4.2092,-4.2092,-4.2092,-4.2092,-4.2092,-4.2092,-4.2392,-4.286,-4.2391,-4.2109,-4.201,-4.1276,-4.0601,-3.9999,-3.9753,-4.0211,-4.1122,-4.1376,-4.1492,-4.1375,-4.0845,-4.1033,-4.1551,-4.1551,-4.1483,-4.125,-4.0147,-3.9523,-3.9044,-3.8159,-3.7622,-3.7215,-3.678,-3.606,-3.5348,-3.5131,-3.4733,-3.4516,-3.4951,-3.5072,-3.5154,-3.5575,-3.5677,-3.5677,-3.5677,-3.6402,-3.6897,-3.6501,-3.7139,-3.7534,-3.7104,-3.6852,-3.6738,-3.6738,-3.5346,-3.4414,-3.4414,-3.482,-3.5055,-3.5055,-3.4896,-3.4866,-3.5041,-3.4449,-3.4196,-3.4399,-3.4414,-3.4414,-3.4414,-3.4414,-3.4245,-3.3941,0.0,0.0,0.0,0.0,0.0,0.0,0.0,0.0,0.0,0.0,0.0,0.0,0.0,0.0,0.0,0.0,0.0,0.0,0.0,0.0,0.0,0.0,0.0,-3.6131,-3.7399,-3.8323,-3.8255,-3.9534,-4.0034,-3.8999,-4.0075,-4.0905,-4.1134,-4.1729,-4.2092,-4.2092,-4.2092,-4.2092,-4.2092,-4.2092,-4.2092,-4.2092,-4.2092,-4.2092,-4.2092,-4.2092,-4.2092,-4.2092,-4.2092,-4.1756,-4.1143,-4.0427,-3.9786,-3.9241,-3.8486,-3.8202,-3.8277,-3.9009,-3.9239,-3.9175,-3.9175,-3.9552,-4.0075,-4.0075,-4.0075,-3.9958,-3.9349,-3.9146,-3.8913,-3.7651,-3.7259,-3.6983,-3.5755,-3.5378,-3.5232,-3.4574,-3.4414,-3.4414,-3.4414,-3.4414,-3.4414,-3.4414,-3.4414,-3.4414,-3.4414,-3.5401,-3.6243,-3.6243,-3.6272,-3.6272,-3.6272,-3.5784,0.0,-3.5392,-3.4806,-3.4414,-3.4414,-3.4414,-3.4414,-3.4414,-3.3848,-3.3794,-3.437,-3.3833,-3.3823,-3.4414,-3.4443,-3.4457,-3.4438,-3.4438,-3.4571,-3.4789,0.0,0.0,0.0,0.0,0.0,0.0,0.0,0.0,0.0,0.0,0.0,0.0,0.0,0.0,0.0,0.0,0.0,0.0,0.0,0.0,0.0,-3.622,-3.6764,-3.6764,-3.8281,-3.9407,-3.9351,-4.039,-4.1037,-4.0721,-4.1326,-4.179,-4.1816,-4.199,-4.2092,-4.2092,-4.2092,-4.2092,-4.2092,-4.2092,-4.2092,-4.2092,-4.2092,-4.2092,-4.2092,-4.2092,-4.2092,-4.2092,-4.2092,-4.1736,-4.109,-4.0386,-3.9756,-3.9174,-3.8466,-3.8202,-3.824,-3.8412,-3.8491,-3.8478,-3.8478,-3.8884,-3.945,-3.945,-3.945,-3.9276,-3.8188,-3.7825,-3.768,-3.6838,-3.6257,-3.5857,-3.5494,-3.5058,-3.4632,-3.4457,-3.4414,-3.4414,-3.4414,-3.4414,-3.4414,-3.4414,-3.4414,-3.4414,-3.4414,-3.469,-3.4936,-3.4936,-3.5314,-3.5654,-3.5654,-3.5508,0.0,-3.5392,-3.4806,-3.4414,-3.4414,-3.4414,-3.4414,-3.4414,-3.4254,-3.4225,-3.4399,-3.424,-3.4443,-3.5116,-3.5145,-3.5279,-3.5552,-3.5567,-3.5224,0.0,0.0,0.0,0.0,0.0,0.0,0.0,0.0,0.0,0.0,0.0,0.0,0.0,0.0,0.0,0.0,0.0,0.0,0.0,0.0,0.0,0.0,-3.7242,-3.7903,-3.8131,-3.91,-3.9873,-4.014,-4.0746,-4.1128,-4.1198,-4.1465,-4.1731,-4.1897,-4.1939,-4.1995,-4.2092,-4.2092,-4.2092,-4.2092,-4.2092,-4.2092,-4.2092,-4.2092,-4.2092,-4.2092,-4.2092,-4.2092,-4.2092,-4.2092,-4.1729,0.0,-4.0379,-3.9755,-3.9146,-3.8478,-3.8202,0.0,0.0,0.0,0.0,0.0,-3.8289,-3.8405,-3.8405,-3.8217,-3.7868,-3.7128,-3.6881,-3.6765,-3.6112,-3.5697,-3.5334,-3.5072,-3.4704,-3.4414,-3.4414,-3.4414,-3.4414,-3.4414,-3.4414,-3.4414,-3.4414,-3.4414,-3.4414,-3.4414,-3.4346,0.0,-3.4264,-3.4685,-3.4965,-3.4862,-3.4862,-3.4828,-3.4773,-3.4441,-3.4191,-3.4191,-3.4191,-3.4292,-3.4565,-3.432,0.0,0.0,0.0,-3.4868,-3.5502,-3.5517,0.0,0.0,0.0,0.0,0.0,0.0,0.0,0.0,-3.6849,-3.7246,0.0,0.0,0.0,0.0,0.0,0.0,0.0,0.0,0.0,0.0,0.0,0.0,0.0,0.0,0.0,0.0,-3.8283,-3.9226,-3.9802,-3.9887,-4.0083,-4.0631,-4.073,-4.0802,-4.1001,-4.1043,-4.1226,-4.1646,-4.1688,-4.1841,-4.2092,0.0,0.0,0.0,0.0,-4.2092,-4.2092,-4.2092,-4.2092,-4.2092,-4.2092,-4.2092,-4.2092,-4.2092,-4.1773,-4.1163,-4.0423,-3.9799,-3.9247,-3.8507,-3.8202,-3.8202,-3.8202,-3.8202,-3.8202,-3.8202,-3.7825,-3.7302,-3.7215,0.0,0.0,-3.6112,-3.6098,-3.5996,-3.5465,-3.529,-3.5174,-3.4574,-3.4414,-3.4414,-3.4414,-3.4414,-3.4414,-3.4414,-3.4414,-3.4414,-3.4414,-3.4414,-3.438,-3.438,-3.423,-3.4094,-3.4094,-3.4244,-3.4278,-3.4094,-3.4094,-3.404,-3.3931,-3.3896,-3.3896,-3.3896,0.0,0.0,-3.4633,-3.4147,-3.429,-3.5446,-3.5046,-3.5061,-3.5688,-3.5774,-3.6071,-3.658,-3.7324,-3.7792,-3.8004,-3.8867,-3.9178,-3.8986,-3.7861,-3.7906,0.0,0.0,0.0,0.0,0.0,0.0,0.0,0.0,0.0,0.0,0.0,0.0,0.0,0.0,0.0,-3.8959,-3.9493,-3.9816,-4.0435,-4.0519,-4.0561,-4.0688,-4.0845,-4.0958,-4.1001,-4.1198,-4.1423,-4.1688,-4.1688,-4.1841,-4.2092,-4.2092,-4.2092,-4.2092,-4.2092,-4.2092,-4.2092,-4.2092,-4.2092,-4.2092,0.0,0.0,-4.2092,-4.2092,-4.2034,-4.1845,-4.0626,-4.0031,-3.9828,-3.8681,-3.8202,-3.8202,-3.8202,-3.8202,-3.8202,-3.8202,-3.7825,-3.723,-3.6693,-3.6083,-3.5494,-3.4951,-3.4777,-3.4762,-3.4632,-3.4588,0.0,-3.4443,-3.4414,-3.4414,-3.4414,-3.4414,-3.4414,-3.4414,-3.4414,-3.4414,-3.4414,-3.4414,-3.4346,-3.4196,-3.4128,-3.4074,-3.3951,-3.3951,-3.3985,-3.3951,-3.3951,-3.3931,-3.3882,-3.3896,-3.3896,-3.3896,-3.3896,-3.3939,-3.4054,-3.3968,-3.3996,-3.4239,-3.4582,-3.5068,-3.5682,-3.6225,-3.6926,-3.7841,-3.7983,-3.8286,-3.8719,-3.9338,-3.9647,-3.9606,-3.9353,-3.9367,0.0,0.0,0.0,0.0,0.0,0.0,0.0,0.0,0.0,0.0,0.0,-3.6399,-3.7274,0.0,-3.8382,-3.9578,-4.0041,-4.035,-4.0659,-4.0702,-4.0702,-4.0702,-4.0773,-4.0845,-4.0845,-4.1071,-4.1283,-4.1549,-4.1963,-4.2276,-4.2542,-4.2542,-4.2542,-4.2542,-4.2252,-4.2092,-4.2092,-4.2092,-4.2092,-4.2092,-4.2092,-4.2092,-4.2092,-4.2092,-4.2092,-4.2034,-4.1033,-4.0597,-4.0495,-3.9233,-3.8507,-3.8202,-3.8202,-3.8202,-3.8202,-3.8202,-3.7825,-3.7259,-3.6925,-3.617,-3.5348,-3.4994,-3.4675,-3.4414,-3.4414,-3.4414,-3.4414,-3.4414,-3.4414,-3.4414,-3.4414,-3.4414,-3.4414,-3.4414,-3.4414,-3.4414,-3.4414,-3.4312,-3.423,-3.4128,-3.3957,-3.3833,-3.3744,-3.3675,-3.364,-3.3709,-3.3744,-3.3709,-3.3605,-3.3605,-3.3605,-3.3605,-3.3605,-3.3733,-3.4009,-3.4356,-3.4562,-3.4562,-3.5143,-3.5574,-3.5886,-3.6495,-3.7094,-3.76,-3.822,-3.8674,-3.8902,-3.9788,-4.0238,-4.0238,-4.0238,-4.0238,0.0,0.0,0.0,0.0,0.0,0.0,0.0,-3.5798,-3.6497,-3.6624,-3.7046,-3.754,-3.8159,-3.8693,-3.9282,-3.9859,-4.0378,-4.0702,-4.0702,-4.0702,-4.0702,-4.0702,-4.0702,-4.0702,-4.0702,-4.0845,-4.1057,-4.1297,-4.2109,-4.2667,-4.2907,-4.3066,-4.3138,-4.3181,-4.2586,-4.2266,-4.2266,-4.215,-4.2092,-4.2092,-4.2092,-4.2092,-4.2092,-4.2092,-4.2092,-4.2063,-4.1381,-4.1018,-4.0815,-3.9668,-3.8884,-3.8376,-3.826,-3.8202,-3.8202,-3.8202,-3.7825,-3.7302,-3.7302,-3.6533,-3.5566,-3.5436,-3.5009,-3.4574,-3.4443,-3.4501,-3.4603,-3.4603,-3.469,-3.4777,-3.4777,-3.4777,-3.4777,-3.4777,-3.4777,-3.4743,-3.4708,-3.4504,-3.4281,-3.4246,-3.3919,-3.3682,-3.3761,-3.3649,-3.3537,-3.355,-3.3536,-3.3466,-3.3326,-3.329,-3.329,-3.329,-3.329,-3.3529,-3.4147,-3.4688,-3.5062,-3.5175,-3.5653,-3.5991,-3.6103,-3.6581,-3.6922,-3.7161,-3.8159,-3.8846,-3.9085,-4.0041,-4.0589,-4.0702,-4.0702,-4.0702,-3.0218,-3.1229,-3.2856,-3.4806,-3.5656,-3.6427,0.0,-3.8004,-3.7864,-3.848,-3.8649,-3.8888,-3.9465,-3.9634,-3.9887,-4.0491,-4.0659,-4.0702,-4.0702,-4.0702,-4.0702,-4.0702,-4.0702,-4.0702,-4.0702,-4.073,-4.0816,-4.1043,-4.1696,-4.2281,-4.2724,-4.3257,-4.3647,-4.3877,-4.3239,-4.289,-4.289,-4.2368,-4.2092,-4.2092,-4.2092,-4.2092,-4.2092,-4.2092,-4.2092,-4.2063,-4.1381,-4.0757,-4.0162,-3.9479,-3.916,-3.903,-3.8434,-3.8202,-3.8202,-3.8202,-3.7825,-3.7302,-3.7302,-3.6823,-3.6112,-3.5581,-3.5348,-3.5189,-3.4588,-3.4806,-3.529,-3.529,-3.5662,-3.6098,-3.6098,-3.6098,-3.6098,-3.6098,-3.6098,-3.6027,-3.587,-3.5387,-3.4942,-3.4746,-3.4268,-3.3998,-3.4342,-3.4391,-3.4136,-3.3445,-3.3326,-3.3326,-3.329,-3.329,-3.329,-3.329,-3.329,-3.3529,-3.4147,-3.4259,-3.4576,-3.5161,-3.5245,-3.5541,-3.6089,-3.6174,-3.6722,-3.7779,-3.7934,-3.8566,-3.9676,-3.9816,-4.0168,-4.0702,-4.0702,-4.0702,-3.1283,-3.2823,-3.4427,-3.5643,-3.6828,-3.7847,-3.8215,-3.8664,-3.9072,-3.938,-3.9676,-4.0013,-4.0266,-4.0308,-4.0519,-4.1137,-4.1221,-4.1221,-4.1221,-4.0926,-4.0561,-4.021,-4.0168,-4.0308,-4.0674,-4.0816,-4.1085,-4.1539,-4.2395,-4.3199,-4.3761,-4.4152,-4.4414,-4.4516,-4.3906,-4.3384,-4.2992,-4.2745,-4.244,-4.2092,-4.2092,-4.2092,-4.2092,-4.2092,-4.2092,-4.2078,-4.1802,-4.1294,-4.0626,-3.9987,-3.9523,-3.9131,-3.8463,-3.8202,-3.8202,-3.8202,-3.8043,-3.7825,-3.7825,-3.7418,-3.6838,-3.6577,-3.6228,-3.5865,-3.5604,-3.5706,-3.5909,-3.5909,-3.6112,-3.6301,-3.6301,-3.6301,-3.6301,-3.6301,-3.6301,-3.6265,-3.6194,-3.587,-3.559,-3.5518,-3.5139,-3.4875,-3.5058,-3.4992,-3.4798,-3.4458,-3.443,-3.443,-3.443,-3.4084,-3.381,-3.381,-3.381,-3.4062,-3.4716,-3.4773,-3.4922,-3.5175,-3.5527,-3.5836,-3.6103,-3.6455,-3.6838,-3.7358,-3.7723,-3.8341,-3.9296,-3.9606,-4.0097,-4.0702,-4.0702,-4.0702,-3.2169,-3.3827,-3.5209,-3.6008,-3.7564,-3.8832,-3.8496,-3.9255,-4.0041,-4.0041,-4.0393,-4.0702,-4.0702,-4.0702,-4.0898,-4.1516,-4.1615,-4.1615,-4.1615,-4.1081,-4.0533,-4.0083,-3.9887,-4.0027,-4.0631,-4.0845,-4.1184,-4.1835,-4.2794,-4.3657,-4.4435,-4.4801,-4.5021,-4.5155,-4.456,-4.4008,-4.3515,-4.3355,-4.2948,-4.2339,-4.2339,-4.2252,-4.2092,-4.2092,-4.2092,-4.2092,-4.2092,-4.1816,-4.1323,-4.0655,-4.0002,-3.9378,-3.8739,-3.8362,-3.8202,-3.8202,-3.8202,-3.8202,-3.8202,-3.7912,-3.7535,-3.736,-3.6983,-3.6548,-3.6359,-3.6446,-3.6591,-3.6591,-3.6707,-3.6823,-3.6823,-3.6823,-3.6823,-3.6823,-3.6823,-3.6802,-3.6765,-3.6512,-3.6273,-3.6201,-3.5853,-3.5614,-3.5725,-3.5642,-3.5573,-3.5667,-3.5695,-3.5583,-3.5231,-3.4773,-3.4492,-3.4492,-3.4492,-3.4745,-3.5386,-3.5442,-3.5513,-3.5695,-3.6117,-3.6356,-3.6356,-3.6754,-3.6978,-3.6978,-3.7583,-3.8215,-3.8902,-3.9535,-3.9957,-4.0286,-4.0286,-4.0156,-3.2578,-3.3636,-3.4713,-3.6224,-3.7758,-3.9057,-3.9592,-4.021,-4.0674,-4.0674,-4.0688,-4.0702,-4.0702,-4.0702,-4.0898,-4.1516,-4.1615,-4.1615,-4.1615,-4.1081,-4.0688,-4.0674,-4.0154,-4.0027,-4.0631,-4.0702,-4.0955,-4.1573,-4.2249,-4.3107,-4.4167,-4.4767,-4.5324,-4.5851,-4.5213,-4.485,-4.4821,-4.4255,-4.3616,-4.2963,-4.2963,-4.2658,-4.2092,-4.2092,-4.2092,-4.2092,-4.2092,-4.2092,-4.202,-4.1337,-4.067,-4.0002,-3.9407,-3.8783,-3.8202,-3.8202,-3.8202,-3.8202,-3.8202,-3.8188,-3.8086,-3.7491,-3.7302,-3.7157,-3.6504,-3.6765,-3.7273,-3.7273,-3.7694,-3.8144,-3.8144,-3.8144,-3.8144,-3.8144,-3.8144,-3.8084,-3.791,-3.7397,-3.6928,-3.6705,-3.6139,-3.5837,-3.6278,-3.6354,-3.6514,-3.6877,-3.6936,-3.6539,-3.5344,-3.5175,-3.5161,-3.5161,-3.5161,-3.5414,-3.6019,-3.6075,-3.6328,-3.6894,-3.695,-3.695,-3.695,-3.6978,-3.6978,-3.6978,-3.7583,-3.8215,-3.8902,-3.9535,-3.9588,-3.9254,-3.9254,-3.8778,-3.1743,-3.3409,-3.5242,-3.6331,-3.7744,-3.8958,-3.9169,-3.9648,-3.9971,-3.9564,-3.9802,-3.9971,-3.9605,-4.0154,-4.0898,-4.1516,-4.2317,-4.2865,-4.2865,-4.2331,-4.1797,-4.1348,-4.1123,-4.1081,-4.1292,-4.0926,-4.1137,-4.2177,-4.2622,-4.3322,-4.4553,-4.4932,-4.517,-4.5367,-4.5333,-4.5106,-4.4687,-4.4646,-4.4052,-4.2992,-4.2586,-4.2295,-4.2092,-4.2092,-4.2092,-4.2092,-4.2092,-4.2092,-4.2049,-4.1381,-4.096,-4.0655,-3.961,-3.9059,-3.8812,-3.8362,-3.8202,-3.8202,-3.8202,-3.8202,-3.8173,-3.797,-3.7897,-3.7854,-3.7636,-3.7723,-3.7897,-3.7897,-3.8043,-3.8202,-3.8202,-3.8202,-3.8202,-3.8202,-3.8202,-3.8165,-3.8104,-3.793,-3.7748,-3.7537,-3.72,-3.6964,-3.6987,-3.6876,-3.6831,-3.6989,-3.6978,-3.6722,-3.5906,-3.5808,-3.5808,-3.5808,-3.5808,-3.6047,-3.6666,-3.6722,-3.6768,-3.6978,-3.6978,-3.6978,-3.6978,-3.6978,-3.7175,-3.7583,-3.7163,-3.7469,-3.8513,-3.8719,-3.8597,-3.8283,-3.8899,-3.8675,-3.1718,-3.3212,-3.4754,-3.5979,-3.7208,-3.817,-3.8469,-3.9016,-3.938,-3.8986,-3.9043,-3.9058,-3.8944,-3.9549,-4.0393,-4.1446,-4.2486,-4.3245,-4.3469,-4.2964,-4.243,-4.2008,-4.1755,-4.1699,-4.1938,-4.1601,-4.1797,-4.2823,-4.3029,-4.3602,-4.4741,-4.4922,-4.5092,-4.5216,-4.5413,-4.5362,-4.5092,-4.5212,-4.4603,-4.334,-4.2498,-4.2092,-4.2092,-4.2092,-4.2092,-4.2092,-4.2092,-4.2092,-4.2063,-4.1628,-4.1308,-4.0989,-3.9929,-3.9392,-3.9117,-3.8449,-3.8202,-3.8202,-3.8202,-3.8202,-3.8202,-3.8202,-3.8202,-3.8202,-3.8202,-3.8202,-3.8202,-3.8202,-3.8202,-3.8202,-3.8202,-3.8202,-3.8202,-3.8202,-3.8202,-3.8202,-3.8202,-3.8127,-3.8028,-3.7815,-3.7625,-3.7419,-3.7226,-3.7109,-3.6978,-3.6978,-3.6978,-3.6838,-3.6483,-3.6427,-3.6427,-3.6427,-3.6427,-3.6595,-3.695,-3.6978,-3.6978,-3.6978,-3.6978,-3.6861,-3.6533,-3.6716,-3.6847,-3.688,-3.672,-3.7,-3.7748,-3.8006,-3.7822,-3.7302,-3.7861,-3.7632,-3.2368,-3.2968,-3.3492,-3.5196,-3.613,-3.6839,-3.769,-3.8327,-3.8804,-3.8775,-3.8257,-3.8032,-3.8663,-3.8874,-3.9535,-4.1278,-4.2163,-4.2851,-4.3455,-4.3034,-4.2669,-4.2669,-4.2135,-4.1994,-4.2612,-4.2669,-4.2921,-4.3497,0.0,-4.3857,-4.4709,-4.4797,-4.5014,-4.5413,-4.5504,-4.5595,-4.5835,-4.5851,-4.5213,-4.3979,-4.2731,-4.2121,-4.2092,-4.2092,-4.2092,-4.2092,-4.2092,-4.2092,-4.2092,-4.2092,-4.1729,-4.1076,-4.0408,-3.9784,-3.9136,-3.8469,-3.8231,-3.8165,-3.8165,-3.8202,-3.8202,-3.8202,-3.8202,-3.8202,-3.8202,-3.8202,-3.8202,-3.8202,-3.8202,-3.8202,-3.8202,-3.8202,-3.8202,-3.8202,-3.8202,-3.8165,-3.8165,-3.8028,-3.7815,-3.7625,-3.7419,-3.7226,-3.7017,-3.6978,-3.6978,-3.6978,-3.6978,-3.6978,-3.6978,-3.6978,-3.6978,-3.6978,-3.694,-3.694,-3.6978,-3.694,-3.694,-3.694,-3.6982,-3.6575,-3.571,-3.6183,-3.6049,-3.5214,-3.6181,-3.6753,-3.6779,-3.7397,-3.7209,-3.6225,-3.6273,-3.5763,-3.118,-3.2679,-3.4056,-3.4555,-3.5804,-3.6967,-3.7178,-3.7344,-3.7369,-3.6919,-3.706,-3.7133,-3.6877,-3.8339,-3.9859,-4.0786,-4.2247,-4.3469,-4.4102,-4.4045,-4.3947,-4.3947,-4.3807,-4.3764,-4.3933,-4.3947,-4.4003,0.0,-4.375,-4.381,-4.4476,-4.469,-4.4737,-4.4676,-4.523,-4.5458,-4.5307,-4.5194,-4.4748,-4.3979,-4.3152,-4.2528,-4.2092,-4.2092,-4.2092,-4.2092,-4.2092,-4.2092,-4.2092,-4.2092,-4.1893,-4.1524,-4.105,-4.0253,-3.938,-3.8904,-3.8409,-3.7967,-3.7967,-3.8066,-3.8202,-3.8202,-3.8202,-3.8202,-3.8202,-3.8104,-3.8005,-3.8179,-3.8104,-3.7991,-3.8165,-3.8202,-3.8202,-3.8202,-3.8104,-3.7967,-3.7967,-3.7815,-3.7625,-3.7419,-3.7226,-3.707,-3.7017,-3.6978,-3.6978,-3.6978,-3.6978,-3.6978,-3.6978,-3.6978,-3.6978,-3.6978,-3.6415,-3.6282,-3.694,-3.6401,-3.603,-3.603,-3.6401,-3.6224,-3.5281,-3.5762,-3.6144,-3.6374,-3.598,-3.597,-3.6421,-3.662,-3.6178,-3.5199,-3.5941,-3.5763,-3.1055,-3.2179,-3.3237,-3.3636,-3.4485,-3.5359,-3.5722,-3.5652,-3.5566,-3.5864,-3.5789,-3.5836,-3.6392,-3.81,-3.9676,-4.0561,-4.2275,-4.3708,-4.4326,-4.4411,-4.4411,-4.4411,-4.4411,-4.4411,-4.4411,-4.4411,-4.4411,-4.4411,-4.4194,-4.4245,-4.4537,-4.4783,-4.4922,-4.4862,-4.5276,-4.5504,-4.5458,-4.5079,-4.4589,-4.3979,-4.3311,-4.2673,-4.2092,-4.2092,-4.2092,-4.2092,0.0,-4.2092,-4.2092,-4.1953,-4.1841,-4.163,-4.1038,-4.0242,-3.945,-3.89,-3.8322,-3.7777,-3.7853,-3.7967,-3.8066,-3.8165,-3.8202,-3.8202,-3.8202,-3.8066,-3.7929,-3.8028,-3.8005,-3.7944,-3.8028,-3.8127,-3.8165,-3.8104,-3.7967,-3.794,-3.8136,-3.781,-3.7504,-3.754,-3.7465,-3.7484,-3.7791,-3.7847,-3.7847,-3.7847,-3.7847,-3.7674,-3.7244,-3.7065,-3.6691,-3.5896,-3.5736,-3.5736,-3.5816,-3.556,-3.5433,-3.5433,-3.5951,-3.5815,-3.4904,-3.5398,-3.5665,-3.5558,-3.5276,-3.5311,-3.5619,-3.5619,-3.5343,-3.4823,-3.5391,-3.5343,-3.1428,-3.1793,-3.2033,-3.2821,-3.3016,-3.325,-3.4022,-3.3785,-3.3766,-3.5196,-3.4665,-3.4519,-3.6501,-3.7798,-3.9046,-4.0491,-4.2135,-4.3526,-4.4298,-4.4411,-4.4411,-4.4411,-4.4411,-4.4411,-4.4411,-4.4411,-4.4411,-4.4411,-4.469,-4.483,-4.4797,-4.5046,-4.5261,-4.5549,-4.5504,-4.564,-4.588,-4.53,-4.4676,-4.3979,-4.3398,-4.276,-4.2092,-4.2092,-4.2092,-4.2092,0.0,0.0,-4.2092,-4.1841,-4.1702,-4.1603,-4.0877,-4.011,-3.9344,-3.8802,-3.8147,-3.7586,-3.7777,-3.7853,-3.7891,-3.8104,-3.8165,-3.8179,-3.8127,-3.7991,-3.7815,-3.7853,-3.7853,-3.7815,-3.7853,-3.7991,-3.8104,-3.7891,-3.7887,-3.805,-3.8385,-3.7948,-3.7636,-3.796,-3.8032,-3.8215,-3.8818,-3.8902,-3.8902,-3.8902,-3.8779,-3.8325,-3.7348,-3.7056,-3.6299,-3.459,-3.495,-3.5101,-3.4465,-3.4738,-3.4947,-3.5025,-3.5556,-3.5436,-3.4562,-3.5052,-3.493,-3.4138,-3.4546,-3.4775,-3.4775,-3.4775,-3.4775,-3.4775,-3.4775,-3.4775,-3.1428,-3.2239,-3.2821,-3.2938,-3.3219,-3.3437,-3.36,-3.3196,-3.3054,-3.4086,-3.3885,-3.406,-3.591,-3.665,-3.7827,-4.0321,-4.139,-4.2514,-4.4172,-4.4411,-4.4411,-4.4411,-4.4411,-4.4411,-4.4411,-4.4411,-4.4411,-4.4411,-4.4815,-4.4954,-4.4797,-4.5184,-4.5549,-4.5835,-4.5595,-4.564,-4.588,-4.5764,-4.514,-4.3993,-4.3863,-4.321,-4.2092,-4.2092,-4.2092,-4.2092,-4.2092,0.0,-4.2092,-4.2051,-4.1787,-4.1451,-4.1448,-4.0455,-3.901,-3.9074,-3.8334,-3.7341,-3.738,-3.7495,-3.7701,-3.7891,-3.7967,-3.7929,-3.7763,-3.7572,-3.7419,-3.7625,-3.7534,-3.7419,-3.7625,-3.7687,-3.7687,-3.7663,-3.7894,-3.8175,-3.8249,-3.8444,-3.8647,-3.8719,-3.8733,-3.8775,-3.8888,-3.8902,-3.8902,-3.8902,-3.8187,-3.7362,-3.6449,-3.653,-3.6223,-3.5093,-3.4071,-3.3896,-3.4884,-3.4395,-3.4224,-3.4679,-3.5188,-3.5077,-3.4134,-3.4642,-3.4824,-3.4643,-3.4727,-3.4775,-3.4775,-3.4775,-3.4775,-3.4775,-3.4775,-3.4775,-3.1428,-3.2001,-3.2326,-3.2326,-3.2251,-3.224,-3.2486,-3.1909,-3.1703,-3.3175,-3.3116,-3.3262,-3.4874,-3.6198,-3.7603,-3.9248,-4.0665,-4.2163,-4.3708,-4.3933,-4.4059,-4.4369,-4.4411,-4.4411,-4.4411,-4.4411,-4.4411,-4.4411,-4.4847,-4.5032,-4.4954,-4.5413,-4.579,-4.588,-4.579,-4.579,-4.588,-4.588,-4.5242,-4.3993,-4.3993,-4.3326,-4.2092,-4.2092,-4.2092,-4.2092,-4.2092,0.0,-4.2092,-4.1829,-4.162,-4.1396,-4.1255,-4.0434,-3.9352,-3.9111,-3.8432,-3.7571,-3.7377,-3.7341,-3.7457,-3.7572,-3.7663,-3.7739,-3.7625,-3.7457,-3.7303,-3.7419,-3.738,-3.7303,-3.7419,-3.7495,-3.7586,-3.7457,-3.804,-3.8559,-3.8559,-3.8985,-3.938,-3.938,-3.938,-3.9493,-3.976,-3.9816,-3.9816,-3.9816,-3.8999,-3.8007,-3.7093,-3.6405,-3.5541,-3.4311,-3.3946,-3.3941,-3.4127,-3.4008,-3.4017,-3.4274,-3.4801,-3.487,-3.4451,-3.4643,-3.4775,-3.4775,-3.4775,-3.4775,-3.4775,-3.4775,-3.4775,-3.4775,-3.4775,-3.4775,-3.1428,-3.1705,-3.1705,-3.1705,-3.1223,-3.0886,-3.1416,-3.0814,-3.0634,-3.2446,-3.2439,-3.255,-3.402,-3.5683,-3.7155,-3.8222,-4.0085,-4.191,-4.3301,-4.361,-4.3877,-4.4355,-4.4411,-4.4411,-4.4411,-4.4411,-4.4411,-4.4411,-4.4847,-4.517,-4.5261,-4.5654,-4.588,-4.588,-4.588,-4.588,-4.588,-4.588,-4.5242,-4.3993,-4.3993,-4.3326,-4.2092,-4.2092,-4.2092,-4.2092,-4.2092,0.0,0.0,-4.1647,-4.1438,-4.1354,-4.0944,-4.0365,-3.9718,-3.9127,-3.8454,-3.7847,-3.7399,-3.7226,-3.7226,-3.7226,-3.738,-3.7534,-3.7457,-3.7341,-3.7226,-3.7226,-3.7226,-3.7226,-3.7226,-3.7341,-3.749,-3.7604,-3.8404,-3.9141,-3.9282,-3.9634,-3.9971,-3.9971,-3.9971,-4.0083,-4.0332,-4.0372,-4.0329,-4.0112,-3.9224,-3.8302,-3.7566,-3.621,-3.4925,-3.3751,-3.4029,-3.4068,-3.3487,-3.3766,-3.4042,-3.415,-3.4546,-3.4775,-3.4775,-3.4775,-3.4775,-3.4775,-3.4775,-3.4775,-3.4775,-3.4775,-3.4775,-3.4775,-3.4775,-3.4775,-3.1428,-3.1705,-3.1705,-3.1705,-3.0946,-3.0302,-3.0874,-3.0506,-3.0524,-3.1959,-3.1988,-3.2265,-3.3959,-3.4468,-3.542,-3.8,-3.9738,-4.1418,-4.3231,-4.3975,-4.4355,-4.4397,-4.4411,-4.4411,-4.4411,-4.4411,-4.4411,-4.4411,-4.4847,0.0,-4.579,-4.588,-4.588,-4.588,-4.588,-4.588,-4.588,-4.588,-4.5242,-4.3993,-4.3993,-4.3326,-4.2092,-4.2092,-4.2092,-4.2092,-4.2092,0.0,0.0,-4.18,-4.1535,-4.1396,-4.11,-4.0464,-3.9718,-3.9127,-3.8454,-3.7807,-3.7242,-3.7017,-3.7017,-3.7017,-3.7148,-3.7303,-3.7109,-3.7017,-3.7017,-3.7017,-3.7017,-3.7017,-3.7017,-3.7017,-3.7352,-3.8466,-3.9254,-3.9859,-4.0407,-4.0575,-4.0617,-4.0617,-4.0617,-4.0346,-3.9475,-3.9343,-3.9033,-3.8206,-3.7196,-3.6543,-3.6461,-3.5534,-3.4836,-3.4691,-3.3944,-3.3558,-3.3933,-3.397,-3.4198,-3.4679,-3.4751,-3.4775,-3.4775,-3.4775,-3.4775,-3.4775,-3.4775,-3.4775,-3.4775,-3.4775,-3.4775,-3.4775,-3.4775,-3.4775,-3.1115,-3.1464,-3.1705,-3.1705,-3.091,-3.0314,-3.1199,-3.0742,-3.0441,-3.1663,-3.1811,-3.1913,-3.2618,-3.3152,-3.4298,-3.6684,-3.8032,-3.9585,-4.2004,-4.2907,-4.3441,-4.3821,-4.4186,-4.4411,-4.4411,-4.4411,-4.4504,-4.4815,-4.4986,0.0,-4.588,-4.588,-4.588,-4.588,-4.588,-4.588,-4.588,-4.5488,-4.485,-4.3993,-4.3587,-4.2934,-4.2092,-4.2092,-4.2092,-4.2092,-4.2092,0.0,0.0,-4.1689,-4.1465,-4.1354,-4.0986,-4.0618,-4.021,-3.9282,-3.8747,-3.8382,-3.733,-3.6978,-3.6978,-3.6978,-3.707,-3.7109,-3.7017,-3.6978,-3.6978,-3.6978,-3.6978,-3.6978,-3.6978,-3.7259,-3.785,-3.9155,-3.9606,-3.9957,-4.0561,-4.0702,-4.0516,-3.9897,-3.9809,-3.9489,-3.8509,-3.8373,-3.8251,-3.7854,-3.6917,-3.632,-3.632,-3.5427,-3.4775,-3.4775,-3.4463,-3.4294,-3.445,-3.4462,-3.4558,-3.4763,-3.4775,-3.4775,-3.4775,-3.4775,-3.4775,-3.4775,-3.4775,-3.4775,-3.4775,-3.4775,-3.4775,-3.4775,-3.4775,-3.4775,-3.0826,-3.1308,-3.1705,-3.1705,-3.091,-3.0362,-3.1464,-3.0886,-3.0386,-3.1488,-3.1705,-3.1705,-3.1705,-3.2549,-3.3893,-3.5887,-3.7203,-3.8922,-4.1525,-4.2458,-4.3076,-4.3694,-4.4144,-4.4411,-4.4411,-4.4411,-4.4583,-4.5078,-4.5124,0.0,-4.588,-4.5692,-4.5692,-4.588,-4.5692,-4.559,-4.559,-4.4937,-4.4313,-4.3689,-4.3224,-4.2673,-4.2092,-4.2092,-4.2092,-4.2092,0.0,0.0,0.0,-4.1578,-4.1396,-4.1354,-4.0873,-4.0702,-4.0575,-3.9563,-3.9183,-3.9,-3.7695,-3.7259,-3.7259,-3.7259,-3.7133,-3.7021,-3.7203,-3.7133,-3.6978,-3.6978,-3.6978,-3.7021,-3.7203,-3.7723,-3.8454,-3.9521,-3.9929,-4.0168,-4.0603,-4.0702,-4.0416,-3.9387,-3.921,-3.881,-3.7566,-3.7348,-3.7256,-3.6977,-3.632,-3.5858,-3.5858,-3.5247,-3.4775,-3.4775,-3.4775,-3.4775,-3.4775,-3.4775,-3.4775,-3.4775,-3.4775,-3.4775,-3.4775,-3.4775,-3.4775,-3.4775,-3.4775,-3.4775,-3.4775,-3.4775,-3.4775,-3.4775,-3.4775,-3.4775,-3.0591,-3.1308,-3.1705,-3.1705,-3.091,-3.0362,-3.1464,-3.0886,-3.0386,-3.1488,-3.1705,-3.1705,-3.1705,-3.2838,-3.4318,-3.5953,-3.7886,-3.9987,-4.2284,-4.3104,-4.3708,-4.4326,-4.4411,-4.4411,-4.4411,-4.4411,-4.4583,-4.5078,-4.5124,0.0,-4.588,-4.5256,-4.5198,-4.5866,-4.5242,-4.4893,-4.4893,-4.4298,-4.366,-4.3007,-4.2992,-4.2673,-4.2092,-4.2092,-4.2092,0.0,0.0,0.0,0.0,-4.1578,-4.1396,-4.1354,-4.0873,-4.0702,-4.0631,-4.0013,-3.9774,-3.9592,-3.8327,-3.7892,-3.7892,-3.7892,-3.7484,-3.7091,-3.7709,-3.7456,-3.6978,-3.6978,-3.6978,-3.7133,-3.7737,-3.8369,-3.9057,-3.9634,-4.0252,-4.0688,-4.0702,-4.0702,-4.0416,-3.9387,-3.921,-3.8572,-3.6637,-3.632,-3.5988,-3.4969,-3.4823,-3.4835,-3.4835,-3.4823,-3.4775,-3.4775,-3.4775,-3.4775,-3.4775,-3.4775,-3.4775,-3.4775,-3.4775,-3.4775,-3.4775,-3.4775,-3.4775,-3.4775,-3.4775,-3.4775,-3.4775,-3.4775,-3.4775,-3.4775,-3.4775,-3.4775,-3.073,-3.1043,-3.1259,-3.1621,-3.091,-3.0362,-3.1464,-3.0886,-3.0386,-3.1488,-3.1973,-3.2238,-3.2238,-3.2886,-3.4068,-3.5953,-3.743,-3.9045,-4.1201,-4.2666,-4.3568,-4.3764,-4.4158,-4.4411,-4.4411,0.0,-4.4583,-4.5078,0.0,0.0,-4.5227,-4.4995,-4.498,-4.5198,-4.4603,-4.4269,-4.4269,-4.3631,-4.3195,-4.2992,-4.2571,-4.2281,-4.2092,-4.2092,0.0,0.0,0.0,0.0,0.0,-4.1578,-4.1396,-4.1354,-4.0873,-4.0702,-4.0631,-4.0013,-3.9788,-3.9662,-3.8888,-3.8566,-3.8566,-3.8566,-3.8466,-3.8269,-3.7976,-3.747,-3.6978,-3.6978,-3.6978,-3.7217,-3.8325,-3.8761,-3.9169,-4.0154,-4.0561,-4.0702,-4.0702,-4.0702,-4.0416,-3.9387,-3.8675,-3.7828,-3.6496,-3.5715,-3.515,-3.4823,-3.4775,-3.4775,-3.4775,-3.4775,-3.4775,-3.4775,-3.4775,-3.4775,-3.4775,-3.4775,-3.4775,-3.4775,-3.4775,-3.4775,-3.4775,-3.4775,-3.4775,-3.4775,-3.4775,-3.4775,-3.4775,-3.4775,-3.4775,-3.4775,-3.4775,-3.4775,-3.0735,-3.1067,-3.1296,-3.1633,-3.1067,-3.0645,-3.1512,-3.1043,-3.073,-3.1801,-3.2262,-3.2563,-3.2755,-3.3224,-3.4106,-3.5719,-3.6896,-3.8283,-4.0181,-4.1838,-4.3139,-4.376,-4.4172,-4.4411,0.0,-4.4411,-4.4583,-4.5078,0.0,0.0,-4.4908,-4.4429,-4.4168,-4.4168,-4.3805,-4.3616,-4.3616,-4.2977,-4.2658,-4.2644,-4.2281,-4.2092,-4.2092,-4.2092,-4.2092,0.0,0.0,0.0,0.0,-4.1578,-4.1396,-4.1354,-4.0873,-4.0702,-4.0645,-4.0266,-4.0126,-4.0041,-3.9465,-3.9254,-3.9254,-3.9254,-3.9099,-3.879,-3.8088,-3.747,-3.6978,-3.6978,-3.7147,-3.7569,-3.8649,-3.9085,-3.9507,-4.0463,-4.0702,-4.0702,-4.0702,-4.0702,-4.0416,-3.9387,-3.8419,-3.7487,-3.6461,-3.5475,-3.4775,-3.4775,-3.4775,-3.4775,-3.4775,-3.4775,-3.4775,-3.4775,-3.4775,-3.4775,-3.4775,-3.4775,-3.4775,-3.4775,-3.4775,-3.4775,-3.4775,-3.4775,-3.4775,-3.4775,-3.4775,-3.4775,-3.4775,-3.4775,-3.4775,-3.4775,-3.4775,-3.4775,0.0,-3.1271,-3.1657,-3.1705,-3.1308,-3.1055,-3.1585,-3.1296,0.0,-3.2274,-3.2527,-3.2731,-3.3296,-3.3777,-3.4399,-3.5438,-3.6511,-3.7691,-3.9306,-4.0949,-4.2575,-4.42,-4.4411,-4.4457,-4.4411,-4.4457,-4.463,0.0,0.0,0.0,-4.4821,-4.366,-4.2977,-4.2934,-4.2934,-4.2934,-4.2934,-4.2382,-4.2092,-4.2092,-4.2092,-4.2092,-4.2092,-4.2092,0.0,0.0,0.0,0.0,0.0,-4.1578,-4.1396,-4.1354,-4.0873,-4.0702,-4.0702,-4.0702,-4.0702,-4.0617,-4.0041,-3.9845,-3.9845,-3.9845,-3.9479,-3.8846,-3.8159,-3.7512,-3.6978,-3.6978,-3.7428,-3.8046,-3.8733,-3.9366,-3.9929,-4.0561,-4.0702,-4.0702,-4.0702,-4.0702,-4.0416,-3.9489,-3.8554,-3.7566,-3.6602,-3.5571,-3.4872,-3.4823,-3.4775,-3.4775,-3.4775,-3.4775,-3.4775,-3.4775,-3.4775,-3.4775,-3.4775,-3.4775,-3.4775,-3.4775,-3.4775,-3.4775,-3.4775,-3.4775,-3.4775,-3.4775,-3.4775,-3.4775,-3.4775,-3.4775,-3.4775,-3.4775,-3.4775,-3.4775,-3.0735,0.0,-3.1199,-3.1609,-3.1308,-3.1055,0.0,-3.1296,-3.118,-3.2274,-3.2827,-3.3392,-3.4294,-3.451,-3.5089,-3.6545,-3.7345,-3.8202,-3.9436,-4.1497,-4.3278,-4.4289,-4.4723,-4.4862,-4.4737,-4.4862,0.0,0.0,0.0,-4.4396,-4.4226,-4.3427,-4.2774,-4.2324,-4.231,-4.231,-4.231,-4.2165,-4.2092,-4.2092,-4.2092,-4.2092,-4.2092,-4.2092,0.0,0.0,0.0,0.0,-4.2051,-4.1578,-4.1396,-4.1354,-4.0873,-4.0702,-4.0702,-4.0702,-4.0702,-4.0674,-4.0533,-4.0491,-4.0491,-4.0491,-4.0069,-3.9451,-3.8874,-3.7903,-3.6978,-3.6978,-3.7428,-3.8046,-3.8733,-3.9366,-3.9929,-4.0561,-4.0702,-4.0702,-4.0702,-4.0702,-4.0645,-4.0372,-3.9546,-3.8585,-3.7612,-3.6602,-3.5667,-3.492,-3.4775,-3.4775,-3.4775,-3.4775,-3.4775,-3.4775,-3.4775,-3.4775,-3.4775,-3.4775,-3.4775,-3.4775,-3.4775,-3.4775,-3.4775,-3.4775,-3.4775,-3.4775,-3.4775,-3.4775,-3.4775,-3.4775,-3.4775,-3.4775,-3.4775,-3.4775,-3.0838,-3.142,-3.2058,-3.2379,-3.2235,-3.2058,-3.2391,-3.1849,-3.1524,-3.2322,-3.2923,-3.3537,-3.427,-3.4859,-3.5473,-3.6326,-3.7225,-3.8441,-4.0273,-4.164,-4.2985,-4.4397,-4.4908,-4.5032,0.0,0.0,0.0,0.0,0.0,-4.3429,-4.2925,-4.2708,-4.244,-4.2107,-4.1675,-4.1619,-4.2092,-4.2092,-4.2092,-4.2092,-4.2092,-4.2092,-4.2092,-4.2092,-4.2092,0.0,0.0,0.0,-4.2051,-4.1689,-4.1549,-4.1507,-4.1015,-4.0859,-4.0816,-4.073,-4.0702,-4.0702,-4.0702,-4.0702,-4.0702,-4.0702,-4.028,-3.9718,-3.9422,-3.8649,-3.7833,-3.7484,-3.7864,-3.8496,-3.9169,-3.9746,-4.0294,-4.0617,-4.0702,-4.0702,-4.0702,-4.0702,-4.0702,-4.0702,-3.9546,-3.8419,-3.79,-3.659,-3.544,-3.4872,-3.4775,-3.4775,-3.4775,-3.4775,-3.4775,-3.4775,-3.4775,-3.4775,-3.4775,-3.4775,-3.4775,-3.4775,-3.4775,-3.4775,-3.4775,-3.4775,-3.4775,-3.4775,-3.4775,-3.4775,-3.4775,-3.4775,-3.4775,-3.4775,-3.4775,-3.4775,-3.0802,-3.2106,-3.3464,-3.3224,-3.3284,-3.3392,-3.3308,-3.2575,-3.207,-3.2623,-3.3092,-3.3609,-3.4234,-3.5015,-3.5701,-3.5942,-3.694,-3.8533,-4.0928,-4.1356,-4.2146,-4.4087,-4.4517,0.0,-4.4599,0.0,0.0,0.0,0.0,-4.2008,-4.1427,-4.1568,-4.1731,-4.1856,-4.0887,-4.0845,-4.1856,-4.1731,-4.1647,-4.1647,-4.1647,-4.1647,-4.1647,-4.1647,-4.1647,0.0,0.0,0.0,-4.1856,-4.1577,-4.1563,-4.1646,-4.117,-4.1001,-4.1001,-4.0773,-4.0702,-4.0702,-4.0702,-4.0702,-4.0702,-4.0702,-4.0336,-3.9901,-3.9816,-3.9465,-3.893,-3.8341,-3.858,-3.9169,-3.9648,-4.0238,-4.0702,-4.0702,-4.0702,-4.0702,-4.0702,-4.0702,-4.0702,-4.0702,-3.9384,-3.8128,-3.7854,-3.6414,-3.515,-3.4823,-3.4775,-3.4775,-3.4775,-3.4775,-3.4775,-3.4775,-3.4775,-3.4775,-3.4775,-3.4775,-3.4775,-3.4775,-3.4775,-3.4775,-3.4775,-3.4775,-3.4775,-3.4775,-3.4775,-3.4775,-3.4775,-3.4775,-3.4775,-3.4775,-3.4775,-3.4775,-3.0206,-3.2346,-3.427,-3.2947,-3.3284,-3.3766,-3.3392,-3.3152,-3.3188,-3.3646,-3.3826,-3.4306,-3.5785,-3.5809,-3.6062,-3.7397,-3.781,-3.8392,-3.9738,-4.0313,-4.0956,-4.195,0.0,-4.2377,0.0,0.0,0.0,0.0,0.0,-4.0539,-4.0404,-3.9905,-4.0,-4.0788,-3.9899,-3.9855,-4.0831,-4.0043,-3.9664,-3.9664,-3.9664,-3.9664,-3.9664,-3.9664,-3.9664,0.0,0.0,-4.0087,-4.0831,-4.0589,-4.1001,-4.1646,-4.117,-4.1001,-4.1001,-4.0773,-4.0702,-4.0702,-4.0702,-4.0702,-4.0702,-4.0702,-4.0631,-4.0463,-3.9929,-3.9718,-3.962,-3.9521,-3.9564,-3.9662,-3.976,-4.0238,-4.0702,-4.0702,-4.0702,-4.0702,-4.0702,-4.0702,-4.0702,-4.0702,-4.0473,-3.9749,-3.8082,-3.7533,-3.6743,-3.5066,-3.4775,-3.4775,-3.4775,-3.4775,-3.4775,-3.4775,-3.4775,-3.4775,-3.4775,-3.4775,-3.4775,-3.4775,-3.4775,-3.4775,-3.4775,-3.4775,-3.4775,-3.4775,-3.4775,-3.4775,-3.4775,-3.4775,-3.4775,-3.4775,-3.4775,-3.4775,-2.9876,-3.1997,-3.3885,-3.344,-3.433,-3.5256,-3.5028,-3.4535,-3.4186,-3.4366,-3.4643,-3.5112,-3.5845,-3.6242,-3.6859,-3.804,-3.8092,-3.8437,-3.9609,-4.016,-4.0639,0.0,0.0,0.0,0.0,0.0,0.0,0.0,0.0,0.0,-3.8922,-3.9105,-3.9417,-3.9812,-3.8944,-3.863,-3.9077,-3.8147,-3.8192,-3.921,-3.921,-3.921,-3.921,-3.921,-3.921,-3.921,0.0,-3.9417,-3.9855,-4.0303,-4.0703,-4.1099,-4.1184,-4.1198,-4.1156,-4.083,-4.0702,-4.0702,-4.0702,-4.0702,-4.0702,-4.0702,-4.0702,-4.0645,-4.0364,-4.028,-4.028,-4.028,-4.0041,-3.9859,-4.0196,-4.0491,-4.0702,-4.0702,-4.0702,-4.0702,-4.0702,-4.0702,-4.0702,-4.0702,-4.0272,-3.959,-3.8734,-3.7691,-3.6696,-3.5763,-3.515,-3.4775,-3.4775,-3.4775,-3.4775,-3.4775,-3.4775,-3.4775,-3.4775,-3.4775,-3.4775,-3.4775,-3.4775,-3.4775,-3.4775,-3.4775,-3.4775,-3.4775,-3.4775,-3.4775,-3.4775,-3.4775,-3.4775,-3.4775,-3.4775,-3.4775,-2.9413,-3.1276,-3.2921,-3.3635,-3.4956,-3.6098,-3.635,-3.5581,-3.4847,-3.5148,-3.5521,-3.5845,-3.5966,-3.6747,-3.7621,-3.8295,-3.8198,-3.8396,-3.9583,-3.9765,-4.0005,-4.0494,-4.0736,0.0,0.0,0.0,0.0,0.0,0.0,0.0,-3.7487,-3.8147,-3.863,-3.8854,-3.7978,-3.7592,-3.7808,-3.6862,-3.7116,-3.8541,-3.8541,-3.8541,-3.8541,-3.8541,-3.8541,-3.8541,-3.8541,-3.8675,-3.8944,-3.9637,-4.0029,-4.0246,-4.0845,-4.1128,-4.1185,-4.083,-4.0702,-4.0702,-4.0702,-4.0702,-4.0702,-4.0702,-4.0702,-4.0702,-4.0702,-4.0702,-4.0702,-4.0702,-4.0364,-4.0112,-4.0575,-4.0702,-4.0702,-4.0702,-4.0702,-4.0702,-4.0702,-4.0702,-4.0702,-4.0702,-4.0085,-3.9489,-3.9241,-3.7984,-3.6811,-3.6367,-3.5619,-3.5066,-3.4823,-3.4775,-3.4775,-3.4775,-3.4775,-3.4775,-3.4775,-3.4775,-3.4775,-3.4775,-3.4775,-3.4775,-3.4775,-3.4775,-3.4775,-3.4775,-3.4775,-3.4775,-3.4775,-3.4775,-3.4775,-3.4775,-3.4775,-3.4775,-2.8497,-3.0049,-3.1611,-3.3014,-3.415,-3.5196,-3.6182,-3.5581,-3.51,-3.6086,-3.6326,-3.6495,-3.6988,-3.7541,-3.8043,-3.8344,-3.8198,-3.8198,-3.8776,0.0,-3.8271,-3.8565,0.0,0.0,0.0,0.0,0.0,0.0,0.0,0.0,-3.6499,-3.6534,-3.6989,-3.7887,-3.6989,-3.6909,-3.7808,-3.6862,-3.6452,-3.6581,-3.6581,-3.6581,-3.6581,-3.6581,-3.6581,-3.6581,-3.6581,-3.7083,-3.79,-3.7978,-3.836,-3.8992,-3.9779,-4.0343,-4.0744,-4.0702,-4.0702,-4.0702,-4.0702,-4.0702,-4.0702,-4.0702,-4.0702,-4.0702,-4.0702,-4.0702,-4.0702,-4.0702,-4.0674,-4.0645,-4.0688,-4.0702,-4.0702,-4.0702,-4.0702,-4.0702,-4.0702,-4.0702,-4.0702,-4.0702,-4.0645,-4.0286,-3.9343,-3.9064,-3.8392,-3.659,-3.6225,-3.5858,-3.492,-3.4775,-3.4775,-3.4775,-3.4775,-3.4775,-3.4775,-3.4775,-3.4775,-3.4775,-3.4775,-3.4775,-3.4775,-3.4775,-3.4775,-3.4775,-3.4775,-3.4775,-3.4775,-3.4775,-3.4775,-3.4775,-3.4775,-3.4775,-2.7402,-2.9466,-3.1391,-3.2569,-3.385,-3.51,-3.6158,-3.635,-3.6507,-3.7228,-3.7385,-3.7445,-3.7649,-3.7746,-3.7863,-3.8084,-3.7797,-3.7636,-3.7977,-3.7882,-3.7666,0.0,0.0,0.0,0.0,0.0,0.0,0.0,0.0,0.0,-3.6405,-3.6405,-3.6546,-3.6909,-3.6593,-3.6593,-3.6956,-3.6593,-3.6405,-3.6405,-3.6405,-3.6405,-3.6405,-3.6405,-3.6405,-3.6405,-3.6405,-3.6581,-3.6956,-3.7579,-3.7933,-3.8225,-3.8836,-3.9118,-3.9118,-3.8984,-3.9282,-3.9766,-3.9766,-4.0185,-4.0702,-4.0702,-4.0702,-4.0702,-4.0702,-4.0702,-4.0702,-4.0702,-4.0702,-4.0702,-4.0702,-4.0702,-4.0702,-4.0702,-4.0702,-4.0702,-4.0702,-4.0702,-4.0702,-4.0702,-4.0702,-4.0602,-4.0185,-3.9149,-3.8056,-3.7335,-3.6178,-3.5247,-3.4823,-3.4775,-3.4775,-3.4775,-3.4775,-3.4775,-3.4775,-3.4775,-3.4775,-3.4775,-3.4775,-3.4775,-3.4775,-3.4775,-3.4775,-3.4775,-3.4775,-3.4775,-3.4775,-3.4775,-3.4775,-3.4775,-3.4775,-3.4775,-2.7006,-2.8807,-3.0568,-3.2551,-3.3689,-3.4645,-3.6057,-3.6555,-3.694,-3.7805,-3.7853,-3.7738,-3.7621,-3.7451,-3.7485,-3.7797,-3.7506,-3.7303,-3.7671,-3.7517,0.0,0.0,0.0,0.0,0.0,0.0,0.0,0.0,0.0,0.0,0.0,-3.6405,-3.6405,-3.6405,-3.6405,-3.6405,-3.6405,-3.6405,-3.6405,-3.6405,-3.6405,-3.6405,-3.6405,-3.6405,-3.6405,-3.6405,-3.6405,-3.6405,-3.6452,-3.7083,-3.75,-3.7717,-3.7978,-3.8115,-3.8206,-3.7978,-3.8283,-3.8765,-3.8765,-3.9401,-4.0229,-4.0229,-4.0459,-4.0702,-4.0702,-4.0702,-4.0702,-4.0702,-4.0702,-4.0702,-4.0702,-4.0702,-4.0702,-4.0702,-4.0702,-4.0702,-4.0702,-4.0702,-4.0702,-4.0702,-4.0702,-4.0702,-4.0702,-3.9339,-3.8251,-3.8251,-3.6543,-3.5295,-3.5295,-3.5017,-3.4775,-3.4775,-3.4775,-3.4775,-3.4775,-3.4775,-3.4775,-3.4775,-3.4775,-3.4775,-3.4775,-3.4775,-3.4775,-3.4775,-3.4775,-3.4775,-3.4775,-3.4775,-3.4775,-3.4775,-3.4775,-3.4775,-2.7467,-2.8038,-2.8853,-3.2934,-3.3592,-3.3777,-3.5905,-3.6002,-3.6062,-3.7649,-3.7553,-3.7127,-3.6862,-3.6816,-3.6967,-3.7493,-3.7381,-3.7356,-3.7903,-3.7306,0.0,0.0,0.0,0.0,0.0,0.0,0.0,0.0,0.0,0.0,0.0,-3.6405,-3.6405,-3.6405,-3.6405,-3.6405,-3.6405,-3.6405,-3.6405,-3.6405,-3.6405,-3.6405,-3.6405,-3.6405,-3.6405,-3.6405,-3.6405,-3.6405,-3.6405,-3.6405,-3.6815,-3.7453,-3.7188,-3.7546,-3.8147,-3.816,-3.8024,-3.7808,-3.7808,-3.8419,-3.921,-3.921,-3.9853,-4.0702,-4.0702,-4.0702,-4.0702,-4.0702,-4.0702,-4.0702,-4.0702,-4.0702,-4.0702,-4.0702,-4.0702,-4.0702,-4.0702,-4.0702,-4.0702,-4.0702,-4.0702,-4.0702,-4.0702,-3.9853,-3.9166,-3.9152,-3.754,-3.6273,-3.6273,-3.544,-3.4775,-3.4775,-3.4775,-3.4775,-3.4775,-3.4775,-3.4775,-3.4775,-3.4775,-3.4775,-3.4775,-3.4775,-3.4775,-3.4775,-3.4775,-3.4775,-3.4775,-3.4775,-3.4775,-3.4775,-3.4775,-3.4775,-2.5335,-2.6773,-2.8523,-3.0266,-3.2236,-3.4003,-3.4917,-3.5695,-3.6302,-3.6771,-3.6747,-3.6591,-3.6536,-3.6361,-3.6328,-3.6705,-3.6382,-3.6271,-3.6801,0.0,0.0,0.0,0.0,0.0,0.0,0.0,0.0,0.0,0.0,0.0,0.0,-3.5579,-3.5793,-3.5793,-3.6157,-3.6405,-3.6405,-3.6405,-3.6405,-3.6405,-3.6405,-3.6405,-3.6405,-3.6405,-3.6405,-3.6405,-3.6405,-3.6405,-3.6405,-3.6405,-3.6546,-3.6687,-3.6417,-3.6323,-3.6345,-3.6143,-3.6367,-3.673,-3.673,-3.7381,-3.8328,-3.8988,-3.9387,-3.9766,-4.0473,-4.0702,-4.0702,-4.0702,-4.0702,-4.0702,-4.0702,-4.0702,-4.0702,-4.0702,-4.0702,-4.0702,-4.0702,-4.0702,-4.0702,-4.0702,-4.0702,-4.0459,-3.9766,-3.8868,-3.7965,-3.7276,-3.6071,-3.5247,-3.5247,-3.4969,-3.4775,-3.4775,-3.4775,-3.4775,-3.4775,-3.4775,-3.4775,-3.4775,-3.4775,-3.4775,-3.4775,-3.4775,-3.4775,-3.4775,-3.4775,-3.4775,-3.4775,-3.4775,-3.4775,-3.4775,-3.4775,-3.4775,-2.5647,-2.7006,-2.8594,-3.0178,-3.2104,-3.3953,-3.505,-3.5864,-3.6338,-3.6134,-3.6086,-3.6026,-3.5921,-3.5768,-3.5758,-3.6024,-3.5795,-3.5657,-3.5768,0.0,0.0,0.0,0.0,0.0,0.0,0.0,0.0,0.0,0.0,0.0,0.0,-3.4994,-3.527,-3.5495,-3.5868,-3.6144,-3.6405,-3.6405,-3.6405,-3.6405,-3.6405,-3.6405,-3.6405,-3.6405,-3.6405,-3.6405,-3.6405,-3.6405,-3.6405,-3.6405,-3.6405,-3.6358,-3.6228,-3.5955,-3.5572,-3.5428,-3.55,-3.5715,-3.5715,-3.6367,-3.7335,-3.8328,-3.8899,-3.9387,-4.0416,-4.0702,-4.0702,-4.0702,-4.0702,-4.0702,-4.0702,-4.0702,-4.0702,-4.0702,-4.0702,-4.0702,-4.0702,-4.0702,-4.0702,-4.0702,-4.0702,-4.0372,-3.9387,-3.8419,-3.7579,-3.6964,-3.6036,-3.5247,-3.4823,-3.4775,-3.4775,-3.4775,-3.4775,-3.4775,-3.4775,-3.4775,-3.4775,-3.4775,-3.4775,-3.4775,-3.4775,-3.4775,-3.4775,-3.4775,-3.4775,-3.4775,-3.4775,-3.4775,-3.4775,-3.4775,-3.4775,-3.4775,-2.7398,-2.7994,-2.8864,-3.1432,-3.2581,-3.3663,-3.5805,-3.6254,-3.6062,-3.5629,-3.5545,-3.545,-3.5211,-3.5175,-3.5211,-3.5403,-3.5439,-3.5255,0.0,0.0,0.0,0.0,0.0,0.0,0.0,0.0,0.0,0.0,0.0,0.0,0.0,-3.4625,-3.4831,-3.5332,-3.5445,-3.578,-3.6329,-3.638,-3.6405,0.0,-3.6405,-3.6405,-3.6405,-3.6405,-3.6405,-3.6405,-3.6405,-3.6405,-3.6405,-3.6405,-3.6405,-3.6405,-3.6405,-3.6086,-3.562,-3.562,-3.5271,-3.4775,-3.4775,-3.5391,-3.632,-3.7348,-3.8283,-3.9254,-4.0272,-4.0645,-4.0702,-4.0702,-4.0702,-4.0702,-4.0702,-4.0702,-4.0702,-4.0702,-4.0702,-4.0702,-4.0702,-4.0702,-4.0702,-4.0702,-4.0702,-4.0372,-3.9387,-3.8419,-3.7763,-3.7579,-3.6743,-3.5846,-3.492,-3.4775,-3.4775,-3.4775,-3.4775,-3.4775,-3.4775,-3.4775,-3.4775,-3.4775,-3.4775,-3.4775,-3.4775,-3.4775,-3.4775,-3.4775,-3.4775,-3.4775,-3.4775,-3.4775,-3.4775,-3.4775,-3.4775,-3.4775,-2.6084,-2.7009,-2.8137,-2.9359,-3.1313,-3.3426,-3.5355,-3.5148,-3.4583,-3.4895,-3.4955,-3.4968,-3.4896,-3.4884,-3.4788,-3.4426,-3.4353,-3.4219,0.0,0.0,0.0,0.0,0.0,0.0,0.0,0.0,0.0,0.0,0.0,0.0,-3.3458,-3.3847,-3.4123,-3.4248,-3.5044,-3.5558,-3.5671,-3.6144,-3.6405,0.0,-3.6405,-3.6405,-3.6405,-3.6405,-3.6405,-3.6405,-3.6405,-3.6405,-3.6405,-3.6405,-3.6405,-3.6405,-3.6405,-3.6086,-3.562,-3.562,-3.5271,-3.4775,-3.4775,-3.492,-3.5295,-3.632,-3.7289,-3.8296,-3.9224,-4.0085,-4.0702,-4.0702,-4.0702,-4.0702,-4.0702,-4.0702,-4.0702,-4.0702,-4.0702,-4.0702,-4.0702,-4.0702,-4.0702,-4.0702,-4.0702,-4.0372,-3.9387,-3.8419,-3.7243,-3.5667,-3.5247,-3.5066,-3.4835,-3.4775,-3.4775,-3.4775,-3.4775,-3.4775,-3.4775,-3.4775,-3.4775,-3.4775,-3.4775,-3.4775,-3.4775,-3.4775,-3.4775,-3.4775,-3.4775,-3.4775,-3.4775,-3.4775,-3.4775,-3.4775,-3.4775,-3.4775,-2.5937,-2.6836,-2.8019,-2.9437,-3.1524,-3.3466,-3.4276,-3.4409,-3.4306,-3.4138,-3.409,-3.409,-3.409,-3.409,-3.4006,-3.3729,-3.3681,0.0,0.0,0.0,0.0,0.0,0.0,0.0,0.0,0.0,0.0,0.0,0.0,-3.3382,-3.3093,-3.3357,-3.3621,-3.3884,-3.4668,-3.5107,-3.5107,-3.5692,-3.5968,-3.5968,-3.5968,-3.5968,-3.5981,-3.6292,-3.6405,-3.6405,-3.6405,-3.6405,-3.6405,-3.6405,-3.6405,-3.6405,-3.6405,-3.6086,-3.562,-3.562,-3.5271,-3.4775,-3.4775,-3.4775,-3.4969,-3.5988,-3.6637,-3.7335,-3.8751,-3.9577,-3.9998,-3.9998,-4.0329,-4.0602,-4.0085,-4.0329,-4.0702,-4.0702,-4.0702,-4.0702,-4.0702,-4.0702,-4.0702,-4.0702,-4.0702,-4.0243,-3.8778,-3.7322,-3.5988,-3.4969,-3.4775,-3.4775,-3.4775,-3.4775,-3.4775,-3.4775,-3.4775,-3.4775,-3.4775,-3.4775,-3.4775,-3.4775,-3.4775,-3.4775,-3.4775,-3.4775,-3.4775,-3.4775,-3.4775,-3.4775,-3.4775,-3.4775,-3.4775,-3.4775,-3.4775,-3.4775,-2.5937,-2.6846,-2.8097,-3.03,-3.2009,-3.3131,-3.3213,-3.3805,-3.4186,-3.3332,-3.3224,-3.3284,-3.3284,-3.3284,-3.326,-3.3176,-3.3152,0.0,0.0,0.0,0.0,0.0,0.0,0.0,0.0,0.0,0.0,0.0,0.0,-3.3124,-3.3124,-3.3124,-3.3282,-3.3746,-3.4299,-3.4575,-3.4575,-3.5082,-3.5408,-3.5495,-3.5495,-3.5495,-3.5508,-3.5918,-3.6128,-3.6128,-3.6128,-3.6128,-3.6128,-3.6128,-3.6179,-3.6267,-3.6267,-3.5998,-3.5668,-3.562,-3.5271,-3.4872,-3.4835,-3.4775,-3.492,-3.5763,-3.6178,-3.659,-3.8211,-3.8796,-3.8988,-3.9166,-3.9678,-4.0112,-3.9577,-3.9954,-4.0459,-4.0659,-4.0559,-4.0502,-4.0645,-4.0702,-4.0702,-4.0702,-4.0702,-4.0069,-3.8128,-3.6414,-3.5199,-3.4872,-3.4775,-3.4775,-3.4775,-3.4775,-3.4775,-3.4775,-3.4775,-3.4775,-3.4775,-3.4775,-3.4775,-3.4775,-3.4775,-3.4775,-3.4775,-3.4775,-3.4775,-3.4775,-3.4775,-3.4775,-3.4775,-3.4775,-3.4775,-3.4775,-3.4775,-3.4775,-2.5107,-2.6152,-2.7781,-3.0619,-3.1232,-3.1543,-3.2894,-3.2994,-3.2767,-3.2635,-3.2971,-3.3284,-3.3284,-3.3284,-3.314,-3.2683,-3.2611,0.0,0.0,0.0,0.0,0.0,0.0,0.0,0.0,0.0,0.0,0.0,-3.3162,-3.3124,-3.3124,-3.3124,-3.3106,-3.3181,-3.3721,-3.401,-3.401,-3.4562,-3.5031,-3.5495,-3.5495,-3.5495,-3.5483,-3.5082,-3.4939,-3.4939,-3.4939,-3.4939,-3.4939,-3.4939,-3.5182,-3.5608,-3.5608,-3.5769,-3.592,-3.5668,-3.5416,-3.5126,-3.4884,-3.4775,-3.4823,-3.4969,-3.5571,-3.6367,-3.659,-3.7289,-3.816,-3.8988,-3.8734,-3.8535,-4.0112,-3.9954,-3.9621,-4.0502,-4.0041,-3.9621,-4.0502,-4.0702,-4.0702,-4.0702,-4.0702,-4.0069,-3.8128,-3.7579,-3.6837,-3.5054,-3.4775,-3.4775,-3.4775,-3.4775,-3.4775,-3.4775,-3.4775,-3.4775,-3.4775,-3.4775,-3.4775,-3.4775,-3.4775,-3.4775,-3.4775,-3.4775,-3.4775,-3.4775,-3.4775,-3.4775,-3.4775,-3.4775,-3.4775,-3.4775,-3.4775,-3.4775,-2.5488,-2.6572,-2.7715,-2.8983,-3.0255,-3.1094,-3.1045,-3.1774,-3.2406,-3.2094,-3.2214,-3.2415,-3.2415,-3.2415,-3.2355,-3.207,-3.2034,0.0,0.0,0.0,0.0,0.0,0.0,0.0,0.0,0.0,0.0,0.0,-3.3124,-3.3124,-3.3124,-3.3124,-3.3124,-3.3124,-3.3608,-3.3759,-3.3432,-3.3985,-3.4387,-3.4625,-3.4893,-3.4868,-3.4613,-3.4374,-3.4424,-3.468,-3.468,-3.468,-3.468,-3.468,-3.4818,-3.5069,-3.537,-3.5519,-3.5546,-3.5605,-3.5428,-3.5175,-3.4872,-3.4775,-3.4775,-3.4775,-3.5102,-3.5571,-3.6131,-3.6602,-3.7057,-3.7448,-3.8043,-3.8554,-3.8283,-3.9135,-3.9998,-3.9897,-3.9533,-3.9489,-4.0459,-4.0272,-3.9853,-3.9853,-3.9414,-3.8612,-3.7196,-3.6977,-3.6461,-3.5017,-3.4775,-3.4775,-3.4775,-3.4775,-3.4775,-3.4775,-3.4775,-3.4775,-3.4775,-3.4775,-3.4775,-3.4775,-3.4775,-3.4775,-3.4775,-3.4775,-3.4775,-3.4775,-3.4775,-3.4775,-3.4775,-3.5075,-3.5063,-3.4787,-3.5087,-3.5112,-2.5478,-2.6357,-2.6943,-2.7393,-2.8962,-3.0117,-2.9311,-3.0566,-3.1793,-3.1422,-3.1516,-3.1705,-3.1705,-3.1705,-3.1705,-3.1705,0.0,0.0,0.0,0.0,0.0,0.0,0.0,0.0,0.0,0.0,0.0,0.0,-3.3124,-3.3124,-3.3124,-3.3124,-3.3124,-3.3124,-3.3483,-3.3495,-3.3124,-3.3621,-3.3897,-3.3909,-3.4324,-3.4299,-3.3897,-3.3759,-3.3909,-3.4299,-3.4299,-3.4299,-3.4299,-3.4299,-3.4387,-3.4562,-3.4919,-3.5078,-3.5093,-3.531,-3.5268,-3.5089,-3.4884,-3.4775,-3.4775,-3.4775,-3.4775,-3.492,-3.5667,-3.5906,-3.5988,-3.6225,-3.7171,-3.7848,-3.6905,-3.8102,-3.9502,-3.9254,-3.8841,-3.8796,-4.0041,-3.9722,-3.921,-3.921,-3.8419,-3.7487,-3.6461,-3.632,-3.5953,-3.4969,-3.4775,-3.4775,-3.4775,-3.4775,-3.4775,-3.4775,-3.4775,-3.4775,-3.4775,-3.4775,-3.4775,-3.4775,-3.4775,-3.4775,-3.4775,-3.4775,-3.4775,-3.4775,-3.4775,-3.4775,-3.4775,-3.522,-3.5208,-3.4787,-3.5232,-3.5159,-2.4268,-2.4551,-2.498,-2.6631,-2.725,-2.7637,-2.8359,-2.9485,-3.0295,-3.0272,-3.1048,-3.1705,-3.1705,-3.1705,-3.1705,-3.1705,0.0,0.0,0.0,0.0,0.0,0.0,0.0,0.0,0.0,0.0,0.0,0.0,-3.3124,-3.3124,-3.3124,-3.3124,-3.3124,-3.3124,-3.3149,-3.3106,-3.3124,-3.3621,-3.3897,-3.3897,-3.3935,-3.3922,-3.3884,-3.3357,-3.3174,-3.3156,-3.3156,-3.3156,-3.3156,-3.3156,-3.347,-3.3947,-3.3972,-3.4311,-3.4748,-3.4789,-3.4811,-3.4826,-3.48,-3.4775,-3.4775,-3.4775,-3.4775,-3.4823,-3.4872,-3.4872,-3.5066,-3.6036,-3.5667,-3.5427,-3.7243,-3.7116,-3.6998,-3.8751,-3.7802,-3.6951,-3.8885,-3.9254,-3.921,-3.921,-3.8419,-3.7487,-3.6461,-3.632,-3.5953,-3.4969,-3.4775,-3.4775,-3.4775,-3.4775,-3.4775,-3.4775,-3.4775,-3.4775,-3.4775,-3.4775,-3.4775,-3.4775,-3.4775,-3.4775,-3.4775,-3.4775,-3.4775,-3.4775,-3.4775,-3.4775,-3.4775,-3.4811,-3.4859,-3.4775,-3.4811,-3.4859,-2.4134,-2.4414,-2.4707,-2.5849,-2.6697,-2.7272,-2.7614,-2.8462,-2.9418,-3.0079,-3.0498,-3.0913,-3.1572,-3.1705,-3.1705,-3.1705,0.0,0.0,0.0,0.0,0.0,0.0,0.0,0.0,0.0,0.0,0.0,0.0,0.0,0.0,-3.3124,-3.3124,-3.3124,-3.3124,-3.3124,-3.3124,-3.3124,-3.3269,-3.337,-3.337,-3.337,-3.337,-3.337,-3.3212,-3.3124,-3.3124,-3.3124,-3.3124,-3.3124,-3.3124,-3.3194,-3.3407,-3.3759,-3.4236,-3.4743,-3.4984,-3.5184,-3.5315,-3.5114,-3.5078,-3.503,-3.4884,-3.4932,-3.503,-3.4823,-3.4775,-3.4872,-3.5247,-3.5523,-3.5763,-3.5858,-3.6555,-3.7289,-3.7309,-3.7276,-3.7289,-3.7309,-3.7356,-3.7356,-3.7356,-3.7044,-3.6508,-3.5523,-3.5846,-3.5953,-3.4969,-3.4775,-3.4775,-3.4775,-3.4775,-3.4775,-3.4775,-3.4775,-3.4775,-3.4775,-3.4775,-3.4775,-3.4775,-3.4775,-3.4775,-3.4775,-3.4775,-3.4775,-3.4775,-3.4775,-3.4775,-3.4775,-3.5172,-3.516,-3.4787,-3.5172,-3.5148,-2.3793,-2.4092,-2.4414,-2.5293,-2.6006,-2.6581,-2.6848,-2.7589,-2.8495,-2.9464,-2.9988,-3.0498,-3.1516,-3.1705,-3.1705,-3.1705,0.0,0.0,0.0,0.0,0.0,0.0,0.0,0.0,0.0,0.0,0.0,0.0,0.0,0.0,-3.3124,-3.3124,-3.3124,-3.3124,-3.3124,-3.3124,-3.3124,-3.288,-3.278,-3.278,-3.278,-3.278,-3.2792,-3.2993,-3.3124,-3.3124,-3.3124,-3.3124,-3.3124,-3.3124,-3.3124,-3.3162,-3.3483,-3.3847,-3.4216,-3.4728,-3.4994,-3.5164,-3.5294,-3.532,-3.532,-3.5126,-3.5126,-3.5175,-3.4981,-3.4884,-3.4775,-3.4775,-3.5295,-3.5619,-3.4969,-3.6036,-3.7023,-3.6036,-3.6555,-3.7023,-3.5988,-3.6036,-3.632,-3.632,-3.6048,-3.5571,-3.492,-3.5343,-3.5571,-3.492,-3.4775,-3.4775,-3.4775,-3.4775,-3.4775,-3.4775,-3.4775,-3.4775,-3.4775,-3.4775,-3.4775,-3.4775,-3.4775,-3.4775,-3.4775,-3.4775,-3.4775,-3.4775,-3.4775,-3.4775,-3.4775,-3.5184,-3.5172,-3.4787,-3.5196,-3.5111,0.0,0.0,0.0,-2.4861,-2.5077,-2.5311,-2.6143,-2.6758,-2.7453,-2.8437,-2.9418,-3.0453,-3.1472,-3.1661,-3.1661,-3.1705,0.0,0.0,0.0,0.0,0.0,0.0,0.0,0.0,0.0,0.0,0.0,0.0,0.0,-3.3124,-3.3124,-3.3124,-3.3124,-3.3124,-3.3124,-3.3124,-3.3124,-3.2503,-3.2215,-3.2215,-3.2215,-3.2215,-3.2227,-3.2805,-3.3124,-3.3124,-3.3124,-3.3124,-3.3124,-3.3124,-3.3124,-3.3124,-3.3124,-3.3124,-3.3232,-3.4043,-3.4318,-3.4433,-3.5287,-3.562,-3.562,-3.562,-3.5428,-3.5223,-3.5223,-3.503,-3.4823,-3.4823,-3.4823,-3.4823,-3.4775,-3.5523,-3.5988,-3.5017,-3.5523,-3.5988,-3.5017,-3.5571,-3.6273,-3.6273,-3.5475,-3.4775,-3.4775,-3.4775,-3.4775,-3.4775,-3.4775,-3.4775,-3.4775,-3.4775,-3.4775,-3.4775,-3.4775,-3.4775,-3.4775,-3.4775,-3.4775,-3.4775,-3.4775,-3.4775,-3.4775,-3.4775,-3.4775,-3.4775,-3.4775,-3.4775,-3.4775,-3.4775,-3.4775,-3.4775,-3.4775,-3.4775,-2.3091,0.0,0.0,0.0,0.0,0.0,0.0,-2.5561,-2.6064,-2.7353,-2.784,-2.8588,-3.0306,-3.0633,-3.0869,-3.1572,-3.1705,0.0,0.0,0.0,0.0,0.0,0.0,0.0,0.0,0.0,0.0,0.0,-3.3124,-3.3124,-3.3124,-3.3124,-3.3124,-3.3124,-3.3124,-3.3124,-3.3124,-3.2503,-3.2215,-3.2215,-3.2215,-3.2215,-3.2227,-3.2805,-3.3124,-3.3124,-3.3124,-3.3124,-3.3124,-3.3124,-3.3124,-3.3124,-3.3124,-3.3319,-3.3759,-3.4372,-3.4749,-3.5059,-3.5672,-3.5908,-3.5872,-3.5668,-3.5668,-3.5716,-3.532,-3.5271,-3.532,-3.5126,-3.5078,-3.503,-3.4823,-3.5017,-3.515,-3.4872,-3.5017,-3.515,-3.4872,-3.5017,-3.5199,-3.5199,-3.4969,-3.4775,-3.4775,-3.4775,-3.4775,-3.4775,-3.4775,-3.4775,-3.4775,-3.4775,-3.4775,-3.4775,-3.4775,-3.4775,-3.4775,-3.4775,-3.4775,-3.4775,-3.4775,-3.4775,-3.4775,-3.4775,-3.4775,-3.4775,-3.4775,-3.4775,-3.4775,-3.4775,-3.4775,-3.4775,-3.4775,-3.4775,-2.3091,-2.3227,-2.3516,-2.3945,0.0,0.0,-2.5146,-2.5205,-2.5508,0.0,-2.7189,-2.7793,-2.9841,-3.0215,-3.0612,-3.1827,-3.201,0.0,0.0,0.0,0.0,0.0,0.0,0.0,0.0,-3.2467,-3.255,-3.2896,-3.2939,-3.2982,-3.3068,-3.3124,-3.3124,-3.3124,-3.3124,-3.3124,-3.3124,-3.2503,-3.2102,-3.1876,-3.2102,-3.2089,-3.1901,-3.2704,-3.3124,-3.3124,-3.3124,-3.3124,-3.3124,-3.3124,-3.3124,-3.3124,-3.3124,-3.3269,-3.3658,-3.4437,-3.4835,-3.5098,-3.5871,-3.6193,-3.6146,-3.5991,-3.5955,-3.5968,-3.562,-3.5572,-3.5572,-3.5416,-3.5368,-3.532,-3.5175,-3.5078,-3.4981,-3.4981,-3.4884,-3.4775,-3.4775,-3.4775,-3.4775,-3.4775,-3.4775,-3.4775,-3.4775,-3.4775,-3.4775,-3.4775,-3.4775,-3.4775,-3.4775,-3.4775,-3.4775,-3.4775,-3.4775,-3.4775,-3.4775,-3.4775,-3.4775,-3.4775,-3.4775,-3.4775,-3.4775,-3.4775,-3.4775,-3.4775,-3.4775,-3.4775,-3.4775,-3.4775,-3.4775,-3.4775,-3.4775,-3.4775,-2.3091,-2.3418,-2.3818,-2.4238,-2.4346,0.0,-2.5411,-2.5352,-2.5461,0.0,-2.7047,-2.7605,-2.9521,-2.9886,-3.0365,-3.1993,-3.2366,0.0,0.0,0.0,0.0,0.0,0.0,0.0,-3.2795,-3.2358,-3.2274,-3.2636,-3.2667,-3.281,-3.3081,-3.3124,-3.3124,-3.3124,-3.3124,-3.3124,-3.3124,-3.2503,-3.1938,-3.1399,-3.1951,-3.1926,-3.1436,-3.2566,-3.3124,-3.3124,-3.3124,-3.3124,-3.3081,-3.3144,-3.3131,-3.3124,-3.3124,-3.3162,-3.3294,-3.4336,-3.4718,-3.4964,-3.6053,-3.6405,-3.6405,-3.6405,-3.6228,-3.6063,-3.6015,-3.586,-3.5668,-3.5668,-3.562,-3.562,-3.562,-3.5416,-3.5223,-3.5223,-3.5078,-3.4884,-3.4823,-3.4884,-3.4884,-3.4823,-3.4775,-3.4775,-3.4775,-3.4775,-3.4775,-3.4775,-3.4775,-3.4775,-3.4775,-3.4775,-3.4775,-3.4775,-3.4775,-3.4775,-3.4775,-3.4775,-3.4775,-3.4775,-3.4775,-3.4775,-3.4775,-3.4775,-3.4775,-3.4775,-3.4775,-3.4775,-3.4775,-3.4775,-3.4775,-3.4775,-3.4775,-3.4775,-2.3091,-2.3159,-2.3369,-2.3799,-2.3906,0.0,-2.5,-2.5174,-2.529,0.0,-2.6014,-2.637,-2.7568,-2.7793,-2.8423,-3.0353,-3.1356,0.0,0.0,0.0,0.0,0.0,0.0,0.0,-3.2868,-3.2698,-3.2589,-3.2468,-3.2593,-3.281,-3.3081,-3.3124,-3.3124,-3.3124,-3.3124,-3.3124,-3.3124,-3.2503,-3.1938,-3.1399,-3.1951,-3.1926,-3.1436,-3.2566,-3.3124,-3.3124,-3.3124,-3.3124,-3.3106,-3.3558,-3.3483,-3.3124,-3.3124,-3.3345,-3.3822,-3.4474,-3.4956,-3.5433,-3.6132,-3.6405,-3.6405,-3.6405,-3.6358,-3.6275,-3.6051,-3.6098,-3.6181,-3.5955,-3.592,-3.5872,-3.5668,-3.5572,-3.5524,-3.5524,-3.5476,-3.5368,-3.5175,-3.5271,-3.532,-3.4884,-3.4775,-3.4775,-3.4775,-3.4775,-3.4775,-3.4775,-3.4775,-3.4775,-3.4775,-3.4775,-3.4775,-3.4775,-3.4775,-3.4775,-3.4775,-3.4775,-3.4775,-3.4775,-3.4775,-3.4775,-3.4775,-3.4775,-3.4775,-3.4775,-3.4775,-3.4775,-3.4775,-3.4775,-3.4775,-3.4775,-3.4775,-3.4775,-2.3091,-2.3257,-2.3516,-2.374,0.0,0.0,0.0,-2.5116,-2.5195,-2.5644,-2.5557,-2.5785,-2.6958,-2.6864,-2.7292,-2.9502,-3.0535,0.0,0.0,0.0,0.0,0.0,0.0,0.0,-3.3448,-3.3204,-3.3086,-3.3179,-3.315,-3.3333,-3.3884,-3.3897,-3.3771,-3.3495,-3.3483,-3.3357,-3.3124,-3.2792,-3.2353,-3.1813,-3.2378,-3.2353,-3.1825,-3.2679,-3.3124,-3.3124,-3.3124,-3.3232,-3.3508,-3.3784,-3.3897,-3.3897,-3.3897,-3.406,-3.4374,-3.4881,-3.5257,-3.5583,-3.6169,-3.6405,-3.6405,-3.6405,-3.6405,-3.6358,-3.6228,-3.6275,-3.6358,-3.6228,-3.6193,-3.6181,-3.6038,-3.5908,-3.5812,-3.5812,-3.5716,-3.5572,-3.5428,-3.5524,-3.5524,-3.5271,-3.5078,-3.4981,-3.4823,-3.4775,-3.4775,-3.4775,-3.4775,-3.4775,-3.4775,-3.4775,-3.4775,-3.4775,-3.4775,-3.4775,-3.4775,-3.4775,-3.4775,-3.4775,-3.4775,-3.4775,-3.4775,-3.4775,-3.4775,-3.4775,-3.4775,-3.4775,-3.4775,-3.4775,-3.4775,-3.4775,-3.4775,-3.4775,0.0,0.0,-2.3711,0.0,0.0,-2.4551,0.0,0.0,0.0,-2.5615,-2.5449,0.0,0.0,0.0,0.0,0.0,0.0,0.0,0.0,0.0,0.0,0.0,0.0,0.0,0.0,-3.344,-3.3361,-3.386,-3.3629,-3.3779,-3.4598,-3.468,-3.4512,-3.4073,-3.396,-3.3684,-3.3244,-3.3174,-3.278,-3.2227,-3.2805,-3.2767,-3.2227,-3.2805,-3.3124,-3.3124,-3.3194,-3.3483,-3.3922,-3.4123,-3.4474,-3.4818,-3.4718,-3.4743,-3.4893,-3.5332,-3.5558,-3.5768,-3.6207,-3.6405,-3.6405,-3.6405,-3.6405,-3.6405,-3.6405,-3.6405,-3.6405,-3.6405,-3.6405,-3.6405,-3.6405,-3.6228,-3.6098,-3.6098,-3.5908,-3.5764,-3.5668,-3.5716,-3.5704,-3.562,-3.5428,-3.5175,-3.4932,-3.4823,-3.4775,-3.4775,-3.4775,-3.4775,-3.4775,-3.4775,-3.4775,-3.4775,-3.4775,-3.4775,-3.4775,-3.4775,-3.4775,-3.4775,-3.4775,-3.4775,-3.4775,-3.4775,-3.4775,-3.4775,-3.4775,-3.4775,-3.4775,-3.4775,-3.4775,-3.4775,-3.4775,-3.4775,0.0,0.0,0.0,0.0,-2.4385,0.0,0.0,0.0,-2.5625,-2.5674,0.0,0.0,0.0,0.0,0.0,0.0,0.0,0.0,0.0,0.0,0.0,0.0,0.0,0.0,0.0,-3.2899,-3.2871,-3.3594,-3.3416,-3.3567,-3.4313,-3.4577,-3.4655,-3.4625,-3.4161,-3.3872,-3.3809,-3.3319,-3.278,-3.2227,-3.2805,-3.2767,-3.2227,-3.2805,-3.3124,-3.3149,-3.3596,-3.3847,-3.3972,-3.4906,-3.5345,-3.5357,-3.4868,-3.4969,-3.542,-3.547,-3.5855,-3.6329,-3.6392,-3.6405,-3.6405,-3.6405,-3.6405,-3.6405,-3.6405,-3.6405,-3.6405,-3.6405,-3.6405,-3.6405,-3.6405,-3.6358,-3.637,-3.637,-3.631,-3.6216,-3.6003,-3.6146,-3.6181,-3.5716,-3.5572,-3.5476,-3.5223,-3.4981,-3.4775,-3.4775,-3.4775,-3.4775,-3.4775,-3.4775,-3.4775,-3.4775,-3.4775,-3.4775,-3.4775,-3.4775,-3.4775,-3.4775,-3.4775,-3.4775,-3.4775,-3.4775,-3.4775,-3.4775,-3.4775,-3.4775,-3.4775,-3.4775,-3.4775,-3.4775,-3.4775,-3.4775,0.0,0.0,0.0,0.0,0.0,0.0,-2.5205,0.0,-2.5693,0.0,0.0,0.0,0.0,0.0,0.0,0.0,-2.7667,0.0,0.0,0.0,0.0,0.0,0.0,0.0,0.0,0.0,0.0,0.0,0.0,-3.4012,-3.4785,-3.5353,-3.5529,-3.5169,-3.4931,-3.455,-3.3909,-3.3671,-3.3269,-3.2717,-3.2968,-3.2955,-3.2717,-3.2968,-3.3124,-3.3106,-3.3658,-3.4085,-3.4437,-3.5182,-3.5683,-3.5994,-3.5755,-3.5805,-3.6019,-3.6019,-3.6157,-3.6405,-3.6405,-3.6405,-3.6405,-3.6405,-3.6405,-3.6405,-3.6405,-3.6405,-3.6405,-3.6405,-3.6405,-3.6405,-3.6405,-3.6405,-3.6405,-3.6405,-3.6405,-3.6358,-3.6275,-3.6323,-3.631,-3.6133,-3.5955,-3.5764,-3.5476,-3.5078,-3.4775,-3.4775,-3.4775,-3.4775,-3.4775,-3.4775,-3.4775,-3.4775,-3.4775,-3.4775,-3.4775,-3.4775,-3.4775,-3.4775,-3.4775,-3.4775,-3.4775,-3.4775,-3.4775,-3.4775,-3.4775,-3.4775,-3.4775,-3.4775,-3.4775,-3.4775,-3.4775,-3.4775,-2.3091,0.0,0.0,0.0,0.0,0.0,0.0,0.0,0.0,0.0,0.0,0.0,0.0,0.0,0.0,-2.543,0.0,-2.8236,0.0,0.0,0.0,0.0,0.0,0.0,0.0,0.0,0.0,0.0,0.0,0.0,-3.5251,-3.5991,-3.6182,-3.578,-3.5583,-3.5119,-3.4361,-3.4048,-3.3696,-3.3307,-3.3156,-3.3124,-3.3124,-3.3124,-3.3156,-3.3319,-3.3721,-3.4299,-3.4931,-3.5332,-3.5868,-3.6405,-3.6405,-3.6405,-3.6405,-3.6405,-3.6405,-3.6405,-3.6405,-3.6405,-3.6405,-3.6405,-3.6405,-3.6405,-3.6405,-3.6405,-3.6405,-3.6405,-3.6405,-3.6405,-3.6405,-3.6405,-3.6405,-3.6405,-3.6405,-3.6405,-3.6405,-3.6405,-3.6405,-3.6405,-3.6193,-3.592,-3.5716,-3.5332,-3.4981,-3.4823,-3.4872,-3.4884,-3.4823,-3.4775,-3.4775,-3.4775,-3.4775,-3.4775,-3.4775,-3.4775,-3.4775,-3.4775,-3.4775,-3.4775,-3.4775,-3.4775,-3.4775,-3.4775,-3.4775,-3.4775,-3.4775,-3.4775,-3.4775,-3.4775,-3.4775,-3.4775,0.0,0.0,0.0,-2.4189,0.0,0.0,0.0,0.0,-2.4971,0.0,0.0,0.0,0.0,0.0,-2.456,-2.5057,-2.6804,0.0,0.0,0.0,0.0,0.0,0.0,0.0,0.0,0.0,0.0,0.0,0.0,0.0,-3.5534,-3.6121,-3.6405,-3.638,-3.5818,-3.5483,-3.5445,-3.4437,-3.3884,-3.3872,-3.3332,-3.3124,-3.3124,-3.3124,-3.337,-3.3872,-3.3884,-3.4512,-3.547,-3.5495,-3.5868,-3.6405,-3.6405,-3.6405,-3.6405,-3.6405,-3.6405,-3.6405,-3.6405,-3.6405,-3.6405,-3.6405,-3.6405,-3.6405,-3.6405,-3.6405,-3.6405,-3.6405,-3.6405,-3.6405,-3.6405,-3.6405,-3.6405,-3.6405,-3.6405,-3.6405,-3.6405,-3.6405,-3.6405,-3.6405,-3.6193,-3.6015,-3.5968,-3.5764,-3.5416,-3.4884,-3.503,-3.5078,-3.4823,-3.4775,-3.4775,-3.4775,-3.4775,-3.4775,-3.4775,-3.4775,-3.4775,-3.4775,-3.4775,-3.4775,-3.4775,-3.4775,-3.4775,-3.4775,-3.4775,-3.4775,-3.4775,-3.4775,-3.4775,-3.4775,-3.4775,-3.4775,0.0,0.0,-2.3237,-2.3857,0.0,0.0,0.0,0.0,0.0,0.0,0.0,0.0,0.0,-2.4414,-2.456,-2.5047,-2.6212,-2.7505,0.0,0.0,0.0,0.0,0.0,0.0,0.0,0.0,0.0,0.0,-3.3796,0.0,0.0,-3.5934,-3.6405,-3.6405,-3.6182,-3.5906,-3.5495,-3.4768,-3.4261,-3.3884,-3.3345,-3.3124,-3.3124,-3.3124,-3.3224,-3.337,-3.3746,-3.411,-3.4487,-3.4806,-3.5282,-3.5818,-3.5818,-3.6044,-3.6405,-3.6405,-3.6405,-3.6405,-3.6405,-3.6405,-3.6405,-3.6405,-3.6405,-3.6405,-3.6405,-3.6405,-3.6405,-3.6405,-3.6405,-3.6405,-3.6405,-3.6405,-3.6405,-3.6405,-3.6405,-3.6405,-3.6405,-3.6405,-3.6405,-3.6405,-3.6323,-3.6181,-3.6015,-3.592,-3.5668,-3.5126,-3.4981,-3.4872,-3.4823,-3.4775,-3.4775,-3.4775,-3.4775,-3.4775,-3.4775,-3.4775,-3.4775,-3.4775,-3.4775,-3.4775,-3.4775,-3.4775,-3.4775,-3.4775,-3.4775,-3.4775,-3.4775,-3.4775,-3.4775,-3.4775,-3.4066,-3.4115,-2.3091,-2.3091,0.0,-2.3682,-2.3789,0.0,-2.4131,0.0,0.0,0.0,0.0,0.0,0.0,0.0,-2.4336,-2.4766,-2.5831,-2.7228,0.0,-3.0633,0.0,0.0,0.0,0.0,0.0,0.0,-3.2503,-3.3236,-3.3664,0.0,0.0,0.0,-3.6323,-3.6405,-3.6405,-3.6194,-3.583,-3.5245,-3.4738,-3.4186,-3.3633,-3.3269,-3.3124,-3.3124,-3.3181,-3.3382,-3.3533,-3.3822,-3.4223,-3.4575,-3.5006,-3.552,-3.5768,-3.6056,-3.6405,-3.6405,-3.6405,-3.6405,-3.6405,-3.6405,-3.6405,-3.6405,-3.6405,-3.6405,-3.6405,-3.6405,-3.6405,-3.6405,-3.6405,-3.6405,-3.6405,-3.6405,-3.6405,-3.6405,-3.6405,-3.6405,-3.6405,-3.6405,-3.6405,-3.6405,-3.6405,-3.637,-3.6193,-3.6051,-3.5824,-3.5271,-3.5078,-3.4932,-3.4823,-3.4775,-3.4775,-3.4775,-3.4775,-3.4775,-3.4775,-3.4775,-3.4775,-3.4775,-3.4775,-3.4775,-3.4775,-3.4775,-3.4775,-3.4775,-3.4775,-3.4775,-3.4775,-3.4421,-3.4213,-3.4225,-3.3151,-3.3001]},{"header":{"parameterUnit":"m.s-1","parameterCategory":1,"la1":30.6,"la2":29.2853,"lo1":-89.7004,"lo2":-87.6739,"dy":0.0162,"dx":0.0183,"nx":112,"ny":82,"refTime":"2024-08-28T06:00:00:Z","depth":0,"parameterNumber":3,"parameterNumberName":"V-component_of_WINDS"},"data":[0.0,0.0,0.0,0.0,0.0,0.0,0.0,0.0,0.0,0.0,0.0,0.0,0.0,0.0,0.0,0.0,0.0,0.0,0.0,0.0,0.0,0.0,0.0,0.0,0.0,0.0,0.0,0.0,0.0,0.0,0.0,0.0,0.0,0.0,0.0,0.0,0.0,0.0,0.0,0.0,0.0,0.0,0.0,0.0,0.0,0.0,0.0,0.0,0.0,0.0,0.0,0.0,0.0,0.0,0.0,0.0,0.0,0.0,0.0,0.0,0.0,0.0,0.0,0.0,0.0,0.0,0.0,0.0,0.0,0.0,0.0,0.0,0.0,0.0,0.0,0.0,0.0,0.0,0.0,0.0,0.0,0.0,0.0,0.0,0.0,0.0,0.0,0.0,0.0,0.0,1.8795,1.872,1.8799,1.8818,1.8716,1.8465,1.7982,1.7242,0.0,0.0,0.0,0.0,0.0,0.0,0.0,0.0,0.0,0.0,0.0,0.0,0.0,0.0,0.0,0.0,0.0,0.0,0.0,0.0,0.0,0.0,0.0,0.0,0.0,0.0,0.0,0.0,0.0,0.0,0.0,0.0,0.0,0.0,0.0,0.0,0.0,0.0,0.0,0.0,0.0,0.0,0.0,0.0,0.0,0.0,0.0,0.0,0.0,0.0,0.0,0.0,0.0,0.0,0.0,0.0,0.0,0.0,0.0,0.0,0.0,0.0,0.0,0.0,0.0,0.0,0.0,0.0,0.0,0.0,0.0,0.0,0.0,0.0,0.0,0.0,0.0,0.0,0.0,0.0,0.0,0.0,0.0,0.0,0.0,0.0,0.0,0.0,0.0,0.0,0.0,0.0,0.0,0.0,0.0,0.0,0.0,0.0,0.0,0.0,0.0,0.0,0.0,0.0,1.8604,1.8675,1.8985,1.8924,1.8401,1.8282,1.7936,1.7228,0.0,0.0,0.0,0.0,0.0,0.0,0.0,0.0,0.0,0.0,0.0,0.0,0.0,0.0,0.0,0.0,0.0,0.0,0.0,0.0,0.0,0.0,0.0,0.0,0.0,0.0,0.0,0.0,0.0,0.0,0.0,0.0,0.0,0.0,0.0,0.0,0.0,0.0,0.0,0.0,0.0,0.0,0.0,0.0,0.0,0.0,0.0,0.0,0.0,0.0,0.0,0.0,0.0,0.0,0.0,0.0,0.0,0.0,0.0,0.0,0.0,0.0,0.0,0.0,0.0,0.0,0.0,0.0,0.0,0.0,0.0,0.0,0.0,0.0,0.0,0.0,0.0,0.0,0.0,0.0,0.0,0.0,0.0,0.0,0.0,0.0,0.0,0.0,0.0,0.0,0.0,0.0,0.0,0.0,0.0,0.0,0.0,0.0,0.0,0.0,0.0,0.0,0.0,1.8636,1.8669,1.8937,1.8775,1.8554,1.8259,1.818,1.7894,1.7354,1.6835,0.0,0.0,0.0,0.0,0.0,0.0,0.0,0.0,0.0,0.0,0.0,0.0,0.0,0.0,0.0,0.0,0.0,0.0,0.0,0.0,0.0,0.0,0.0,0.0,0.0,0.0,0.0,0.0,0.0,0.0,0.0,0.0,0.0,0.0,0.0,0.0,0.0,0.0,0.0,0.0,0.0,0.0,0.0,0.0,0.0,0.0,0.0,0.0,0.0,0.0,0.0,0.0,0.0,0.0,0.0,0.0,0.0,0.0,0.0,0.0,0.0,0.0,0.0,0.0,0.0,0.0,0.0,0.0,0.0,0.0,0.0,0.0,0.0,0.0,0.0,0.0,0.0,0.0,0.0,0.0,0.0,0.0,0.0,0.0,0.0,0.0,0.0,0.0,0.0,0.0,0.0,0.0,0.0,0.0,0.0,0.0,0.0,0.0,0.0,0.0,0.0,0.0,1.9458,1.897,1.9151,1.8701,1.8328,1.8205,1.8116,1.7849,1.7425,1.6721,0.0,0.0,0.0,0.0,0.0,0.0,0.0,0.0,0.0,0.0,0.0,0.0,0.0,0.0,0.0,0.0,0.0,0.0,0.0,0.0,0.0,0.0,0.0,0.0,0.0,0.0,0.0,0.0,0.0,0.0,0.0,0.0,0.0,0.0,0.0,0.0,0.0,0.0,0.0,0.0,0.0,0.0,0.0,0.0,0.0,0.0,0.0,0.0,0.0,0.0,0.0,0.0,0.0,0.0,0.0,0.0,0.0,0.0,0.0,0.0,0.0,0.0,0.0,0.0,0.0,0.0,0.0,0.0,0.0,0.0,0.0,0.0,0.0,0.0,0.0,0.0,0.0,0.0,0.0,0.0,0.0,0.0,0.0,0.0,0.0,0.0,0.0,0.0,0.0,0.0,0.0,0.0,0.0,0.0,0.0,0.0,0.0,0.0,0.0,0.0,0.0,0.0,2.0222,1.958,1.9065,1.8995,1.8697,1.8148,1.8002,1.7782,1.7409,1.6645,0.0,0.0,0.0,0.0,0.0,0.0,0.0,0.0,0.0,0.0,0.0,0.0,0.0,0.0,0.0,0.0,0.0,0.0,0.0,0.0,0.0,0.0,0.0,0.0,0.0,0.0,0.0,0.0,0.0,0.0,0.0,0.0,0.0,0.0,0.0,0.0,0.0,0.0,0.0,0.0,0.0,0.0,0.0,0.0,0.0,0.0,0.0,0.0,0.0,0.0,0.0,0.0,0.0,0.0,0.0,0.0,0.0,0.0,0.0,0.0,0.0,0.0,0.0,0.0,0.0,0.0,0.0,0.0,0.0,0.0,0.0,0.0,0.0,0.0,0.0,0.0,0.0,0.0,0.0,0.0,0.0,0.0,0.0,0.0,0.0,0.0,0.0,0.0,0.0,0.0,0.0,0.0,0.0,0.0,0.0,0.0,0.0,0.0,0.0,0.0,0.0,0.0,2.1206,2.11,2.0767,2.0045,1.9456,1.9225,1.9315,1.9128,1.8506,0.0,0.0,0.0,0.0,0.0,0.0,0.0,0.0,0.0,0.0,0.0,0.0,0.0,0.0,0.0,0.0,0.0,0.0,0.0,0.0,0.0,0.0,0.0,0.0,0.0,0.0,0.0,0.0,0.0,0.0,0.0,0.0,0.0,0.0,0.0,0.0,0.0,0.0,0.0,0.0,0.0,0.0,0.0,0.0,0.0,0.0,0.0,0.0,0.0,0.0,0.0,0.0,0.0,0.0,0.0,0.0,0.0,0.0,0.0,0.0,0.0,0.0,0.0,0.0,0.0,0.0,0.0,0.0,0.0,0.0,0.0,0.0,0.0,0.0,0.0,0.0,0.0,0.0,0.0,0.0,0.0,0.0,0.0,0.0,0.0,0.0,0.0,0.0,0.0,0.0,0.0,0.0,0.0,0.0,0.0,0.0,0.0,0.0,0.0,0.0,0.0,0.0,2.1851,2.2098,2.2125,2.1789,2.0985,2.0475,2.0475,2.0542,2.0237,1.9389,0.0,0.0,0.0,0.0,0.0,0.0,0.0,0.0,0.0,0.0,0.0,0.0,0.0,0.0,0.0,0.0,0.0,0.0,0.0,0.0,0.0,0.0,0.0,0.0,0.0,0.0,0.0,0.0,0.0,0.0,0.0,0.0,0.0,0.0,0.0,0.0,0.0,0.0,0.0,0.0,0.0,0.0,0.0,0.0,0.0,0.0,0.0,0.0,0.0,0.0,0.0,0.0,0.0,0.0,0.0,0.0,0.0,0.0,0.0,0.0,0.0,0.0,0.0,0.0,0.0,0.0,0.0,0.0,0.0,0.0,0.0,0.0,0.0,0.0,0.0,0.0,0.0,0.0,0.0,0.0,0.0,0.0,0.0,0.0,0.0,0.0,0.0,0.0,0.0,0.0,0.0,0.0,0.0,0.0,0.0,0.0,0.0,0.0,0.0,0.0,0.0,0.0,2.2409,2.2713,2.2621,2.1831,2.1739,2.1739,2.1739,2.1415,2.0835,0.0,0.0,0.0,0.0,0.0,0.0,0.0,0.0,0.0,0.0,0.0,0.0,0.0,0.0,0.0,0.0,0.0,0.0,0.0,0.0,0.0,0.0,0.0,0.0,0.0,0.0,0.0,0.0,0.0,0.0,0.0,0.0,0.0,0.0,0.0,0.0,0.0,0.0,0.0,0.0,0.0,0.0,0.0,0.0,0.0,0.0,0.0,0.0,0.0,0.0,0.0,0.0,0.0,0.0,0.0,0.0,0.0,0.0,0.0,0.0,0.0,0.0,0.0,0.0,0.0,0.0,0.0,0.0,0.0,0.0,0.0,0.0,0.0,0.0,0.0,0.0,0.0,0.0,0.0,0.0,0.0,0.0,0.0,0.0,0.0,0.0,0.0,0.0,0.0,0.0,0.0,0.0,0.0,0.0,0.0,0.0,0.0,0.0,0.0,0.0,0.0,0.0,0.0,2.3471,2.4357,2.4816,2.4221,2.3291,2.2702,2.2702,2.2587,2.2145,2.1208,0.0,0.0,0.0,0.0,0.0,0.0,0.0,0.0,0.0,0.0,0.0,0.0,0.0,0.0,0.0,0.0,0.0,0.0,0.0,0.0,0.0,0.0,0.0,0.0,0.0,0.0,0.0,0.0,0.0,0.0,0.0,0.0,0.0,0.0,0.0,0.0,0.0,0.0,0.0,0.0,0.0,0.0,0.0,0.0,0.0,0.0,0.0,0.0,0.0,0.0,0.0,0.0,0.0,0.0,0.0,0.0,0.0,0.0,0.0,0.0,0.0,0.0,0.0,0.0,0.0,0.0,0.0,0.0,0.0,0.0,0.0,0.0,0.0,0.0,0.0,0.0,0.0,0.0,0.0,0.0,0.0,0.0,0.0,0.0,0.0,0.0,0.0,0.0,0.0,0.0,0.0,0.0,0.0,0.0,0.0,0.0,0.0,0.0,0.0,0.0,0.0,0.0,2.3919,2.5091,2.5709,2.523,2.4267,2.3637,2.3637,2.3637,2.3188,2.2079,0.0,0.0,0.0,0.0,0.0,0.0,0.0,0.0,0.0,0.0,0.0,0.0,0.0,0.0,0.0,0.0,0.0,0.0,0.0,0.0,0.0,0.0,0.0,0.0,0.0,0.0,0.0,0.0,0.0,0.0,0.0,0.0,0.0,0.0,0.0,0.0,0.0,0.0,0.0,0.0,0.0,0.0,0.0,0.0,0.0,0.0,0.0,0.0,0.0,0.0,0.0,0.0,0.0,0.0,0.0,0.0,0.0,0.0,0.0,0.0,0.0,0.0,0.0,0.0,0.0,0.0,0.0,0.0,0.0,0.0,0.0,0.0,0.0,0.0,0.0,0.0,0.0,0.0,0.0,0.0,0.0,0.0,0.0,0.0,0.0,0.0,0.0,0.0,0.0,0.0,0.0,0.0,0.0,0.0,0.0,0.0,0.0,0.0,0.0,0.0,0.0,0.0,2.4075,2.5186,2.5775,2.5337,2.484,2.454,2.4497,2.4497,2.3949,2.2747,0.0,0.0,0.0,0.0,0.0,0.0,0.0,0.0,0.0,0.0,0.0,0.0,0.0,0.0,0.0,0.0,0.0,0.0,0.0,0.0,0.0,0.0,0.0,0.0,0.0,0.0,0.0,0.0,0.0,0.0,0.0,0.0,0.0,0.0,0.0,0.0,0.0,0.0,0.0,0.0,0.0,0.0,0.0,0.0,0.0,0.0,0.0,0.0,0.0,0.0,0.0,0.0,0.0,0.0,0.0,0.0,0.0,0.0,0.0,0.0,2.4388,0.0,0.0,0.0,0.0,0.0,0.0,0.0,0.0,0.0,0.0,0.0,0.0,0.0,0.0,0.0,0.0,0.0,0.0,0.0,0.0,0.0,0.0,0.0,0.0,0.0,0.0,0.0,0.0,0.0,0.0,0.0,0.0,0.0,0.0,0.0,0.0,0.0,0.0,0.0,0.0,0.0,2.5391,2.6068,2.6349,2.6075,2.5321,2.4743,2.4497,2.4497,2.4313,2.3865,2.3133,0.0,0.0,0.0,0.0,0.0,0.0,0.0,0.0,0.0,0.0,0.0,0.0,0.0,0.0,0.0,0.0,0.0,0.0,0.0,0.0,0.0,0.0,0.0,0.0,0.0,0.0,0.0,0.0,0.0,0.0,0.0,0.0,0.0,0.0,0.0,0.0,0.0,0.0,0.0,0.0,0.0,0.0,0.0,0.0,0.0,0.0,0.0,0.0,0.0,0.0,0.0,0.0,0.0,0.0,0.0,0.0,0.0,0.0,0.0,0.0,2.5326,0.0,0.0,0.0,0.0,0.0,0.0,0.0,0.0,0.0,0.0,0.0,0.0,0.0,0.0,0.0,0.0,0.0,0.0,0.0,0.0,0.0,0.0,0.0,0.0,0.0,0.0,0.0,0.0,0.0,0.0,0.0,0.0,0.0,0.0,0.0,0.0,0.0,0.0,0.0,0.0,2.5498,2.6179,2.6485,2.6129,2.5453,2.4988,2.4871,2.4828,2.4714,2.4375,2.3668,0.0,0.0,0.0,0.0,0.0,0.0,0.0,0.0,0.0,0.0,0.0,0.0,0.0,0.0,0.0,0.0,0.0,0.0,0.0,0.0,0.0,0.0,0.0,0.0,0.0,0.0,0.0,0.0,0.0,0.0,0.0,0.0,0.0,0.0,0.0,0.0,0.0,0.0,0.0,0.0,0.0,0.0,0.0,0.0,0.0,0.0,0.0,0.0,0.0,0.0,0.0,0.0,0.0,2.8571,2.8614,2.8464,2.8464,2.8464,2.8411,2.7578,2.7329,2.7505,2.6883,0.0,0.0,0.0,0.0,0.0,0.0,0.0,0.0,0.0,0.0,0.0,0.0,0.0,0.0,0.0,0.0,0.0,0.0,0.0,0.0,0.0,0.0,0.0,0.0,2.8907,2.8858,0.0,0.0,0.0,0.0,0.0,0.0,0.0,0.0,0.0,0.0,0.0,0.0,2.5455,2.6171,2.6523,2.601,2.553,2.5242,2.52,2.52,2.503,2.4719,2.4249,2.3865,0.0,0.0,0.0,0.0,0.0,0.0,0.0,0.0,0.0,0.0,0.0,0.0,0.0,0.0,0.0,0.0,0.0,0.0,0.0,0.0,0.0,0.0,0.0,0.0,0.0,0.0,0.0,0.0,0.0,0.0,0.0,0.0,2.6768,2.8074,0.0,0.0,0.0,0.0,0.0,0.0,0.0,0.0,0.0,0.0,0.0,0.0,0.0,2.7964,2.8017,2.9096,2.9419,2.8998,3.0437,3.0721,2.9927,2.9927,2.9927,2.9894,2.9339,0.0,2.8017,2.8093,0.0,0.0,0.0,0.0,0.0,0.0,0.0,0.0,0.0,0.0,0.0,0.0,0.0,0.0,0.0,0.0,0.0,0.0,0.0,0.0,0.0,0.0,2.9806,2.9874,2.9371,2.9035,0.0,2.8611,2.7456,2.6573,2.6441,0.0,0.0,0.0,0.0,0.0,0.0,0.0,2.64,2.6856,2.6965,2.6336,2.585,2.5464,2.52,2.52,2.5263,2.542,2.4958,2.4932,2.5518,2.5419,0.0,0.0,0.0,0.0,0.0,0.0,0.0,0.0,0.0,0.0,0.0,0.0,0.0,0.0,0.0,0.0,0.0,0.0,0.0,0.0,0.0,0.0,0.0,0.0,0.0,0.0,0.0,0.0,0.0,2.8226,2.8691,2.8357,2.8236,2.7865,0.0,0.0,0.0,0.0,0.0,0.0,0.0,0.0,0.0,3.1449,3.1205,3.1157,3.1421,3.2216,3.2529,3.2298,3.3027,3.2883,3.187,3.1638,3.116,3.057,3.01,2.9676,2.9267,2.8938,2.8606,2.8322,0.0,0.0,0.0,0.0,2.9011,2.9192,2.9564,3.0056,0.0,2.9296,0.0,0.0,0.0,0.0,0.0,0.0,0.0,0.0,0.0,0.0,0.0,3.0805,3.0809,3.0824,3.1268,3.0866,2.9975,0.0,2.8239,2.7833,2.655,0.0,0.0,0.0,0.0,2.7332,2.7332,2.7926,2.8153,2.7541,2.69,2.6445,2.631,2.631,2.6362,2.6498,2.6701,2.695,2.7273,2.7245,2.7199,0.0,0.0,0.0,0.0,0.0,0.0,0.0,0.0,0.0,0.0,0.0,0.0,0.0,0.0,0.0,0.0,0.0,0.0,0.0,0.0,0.0,0.0,0.0,0.0,0.0,0.0,0.0,0.0,3.0845,3.0416,2.9291,2.9538,2.932,0.0,0.0,0.0,0.0,0.0,0.0,3.2639,3.252,3.2759,3.3533,3.3625,3.3871,3.4198,3.4619,3.4775,3.4775,3.4775,3.4385,3.3575,3.3101,3.2217,3.1124,3.089,3.063,3.0319,2.9513,2.9361,2.9485,2.8885,2.8962,2.9606,3.0732,3.1321,3.1635,3.2043,3.2688,3.308,3.1643,0.0,3.1541,3.0729,0.0,0.0,0.0,0.0,3.0372,3.0358,3.0306,3.047,3.124,3.1548,3.1692,3.199,3.1858,3.1359,0.0,3.0029,2.9622,2.8354,0.0,0.0,0.0,0.0,2.8405,2.8289,2.8804,2.9011,2.8447,2.7839,2.7487,2.7487,2.7487,2.7487,2.7487,2.8079,2.8386,2.8386,2.8624,2.856,2.8236,0.0,0.0,0.0,0.0,0.0,0.0,0.0,0.0,0.0,0.0,0.0,0.0,0.0,0.0,0.0,0.0,0.0,0.0,0.0,0.0,0.0,0.0,0.0,0.0,0.0,0.0,0.0,0.0,0.0,3.2248,3.2307,0.0,0.0,0.0,0.0,3.0943,3.191,3.3183,3.4672,3.4213,3.4599,3.6075,3.5221,3.4764,3.4788,3.4763,3.4775,3.4775,3.4775,3.4775,3.4715,3.415,3.3126,3.1779,3.2213,3.1804,3.0787,2.9847,3.0025,3.0742,3.0274,3.1015,3.2313,3.2394,3.2719,3.3198,3.3234,3.3234,3.3353,3.3693,3.368,3.3533,3.3411,3.3374,0.0,0.0,3.2283,3.304,3.1609,3.1226,3.1238,3.1288,3.0653,3.026,3.1145,3.0636,3.0325,0.0,3.1496,3.1316,3.0807,0.0,3.0609,3.0109,2.9953,2.9755,2.9275,2.9215,2.9011,2.8447,2.8347,2.8347,2.8347,2.8347,2.8347,2.8347,2.8386,2.8386,2.8386,2.9186,2.9601,2.9589,2.9904,0.0,0.0,0.0,0.0,0.0,0.0,0.0,0.0,0.0,0.0,0.0,0.0,0.0,0.0,0.0,0.0,0.0,0.0,0.0,0.0,0.0,0.0,0.0,0.0,0.0,0.0,0.0,0.0,3.3444,3.3889,0.0,3.2389,3.2648,3.3308,3.4226,3.5022,3.5846,3.6767,3.6639,3.6751,3.7307,3.6968,3.6781,3.6781,3.6781,3.6781,3.6781,3.6781,3.6427,3.5773,3.5251,3.4196,3.2711,3.2544,3.2067,3.1329,3.098,3.1411,3.2229,3.2086,3.2364,3.2899,3.3596,3.4168,3.466,3.466,3.5382,3.6175,3.5569,3.5072,3.4646,3.4262,3.3862,3.3507,3.2948,3.2629,3.2332,3.1745,3.1383,3.1203,3.1524,3.1364,3.1334,3.2024,3.1941,3.18,3.2234,3.1801,3.121,3.068,3.1203,3.1487,3.0984,3.0885,3.0783,3.0597,3.0444,3.0291,3.0088,2.9588,2.9225,2.9225,2.9225,2.9225,2.9225,2.9742,3.0063,3.0063,3.0381,3.0545,3.0545,3.0628,3.0398,0.0,0.0,0.0,0.0,0.0,0.0,0.0,0.0,0.0,0.0,0.0,0.0,0.0,0.0,0.0,0.0,0.0,0.0,0.0,0.0,0.0,0.0,0.0,0.0,0.0,3.5318,3.5902,3.4782,3.5479,3.5564,3.4327,3.4761,3.551,3.634,3.6972,3.7482,3.7887,3.79,3.79,3.79,3.79,3.79,3.79,3.79,3.79,3.79,3.79,3.7505,3.6849,3.6526,3.5412,3.3717,3.3724,3.3099,3.2103,3.2407,3.2927,3.3449,3.3134,3.3301,3.388,3.4578,3.52,3.5645,3.5645,3.638,3.7142,3.6149,3.5587,3.5155,3.4358,3.3875,3.3509,3.3117,3.2398,3.1758,3.1562,3.1274,3.1078,3.147,3.151,3.1653,3.2032,3.2123,3.2123,3.2123,3.1924,3.1652,3.1244,3.179,3.2199,3.183,3.1614,3.1447,3.1447,3.1203,3.0986,3.0986,3.047,3.0139,3.0139,2.9936,2.991,3.0126,3.0478,3.079,3.0973,3.0986,3.0986,3.0986,3.0986,3.097,3.0898,0.0,0.0,0.0,0.0,0.0,0.0,0.0,0.0,0.0,0.0,0.0,0.0,0.0,0.0,0.0,0.0,0.0,0.0,0.0,0.0,0.0,0.0,0.0,3.4816,3.5723,3.6367,3.6382,3.719,3.7169,3.5814,3.6722,3.7319,3.7037,3.7573,3.79,3.79,3.79,3.79,3.79,3.79,3.79,3.79,3.79,3.79,3.79,3.79,3.79,3.79,3.79,3.678,3.483,3.5688,3.4968,3.3147,3.405,3.4397,3.4314,3.339,3.396,3.5273,3.5273,3.5613,3.6083,3.6083,3.6083,3.5979,3.543,3.5247,3.5038,3.3901,3.3548,3.33,3.2124,3.1784,3.1654,3.113,3.0986,3.0986,3.0986,3.0986,3.0986,3.0986,3.0986,3.0986,3.0986,3.1875,3.2633,3.2633,3.2659,3.2659,3.2659,3.215,0.0,3.1797,3.1339,3.0986,3.0986,3.0986,3.0986,3.0986,3.0477,3.0361,3.0947,3.0464,3.0388,3.0986,3.1013,3.1026,3.1076,3.1076,3.154,3.2513,0.0,0.0,0.0,0.0,0.0,0.0,0.0,0.0,0.0,0.0,0.0,0.0,0.0,0.0,0.0,0.0,0.0,0.0,0.0,0.0,0.0,3.4977,3.5425,3.5425,3.6807,3.7806,3.7835,3.8161,3.8184,3.7807,3.7785,3.771,3.7652,3.7808,3.79,3.79,3.79,3.79,3.79,3.79,3.79,3.79,3.79,3.79,3.79,3.79,3.79,3.79,3.79,3.7332,3.6353,3.6204,3.5561,3.4658,3.4483,3.4397,3.4356,3.4134,3.4279,3.4646,3.4646,3.5012,3.5521,3.5521,3.5521,3.5365,3.4384,3.4058,3.3927,3.3169,3.2646,3.2215,3.1889,3.1497,3.1182,3.1026,3.0986,3.0986,3.0986,3.0986,3.0986,3.0986,3.0986,3.0986,3.0986,3.1235,3.1457,3.1457,3.1797,3.2032,3.2032,3.1902,0.0,3.1797,3.1339,3.0986,3.0986,3.0986,3.0986,3.0986,3.0843,3.0817,3.0973,3.083,3.1013,3.1549,3.1575,3.1835,3.2435,3.2448,3.2561,0.0,0.0,0.0,0.0,0.0,0.0,0.0,0.0,0.0,0.0,0.0,0.0,0.0,0.0,0.0,0.0,0.0,0.0,0.0,0.0,0.0,0.0,3.5886,3.6523,3.6822,3.7758,3.8505,3.8762,3.8836,3.8859,3.8756,3.8498,3.8239,3.8057,3.8011,3.7979,3.79,3.79,3.79,3.79,3.79,3.79,3.79,3.79,3.79,3.79,3.79,3.79,3.79,3.79,3.7573,0.0,3.6358,3.5796,3.5247,3.4646,3.4397,0.0,0.0,0.0,0.0,0.0,3.4476,3.458,3.458,3.441,3.4097,3.343,3.3208,3.3104,3.2515,3.2071,3.1745,3.151,3.1248,3.0986,3.0986,3.0986,3.0986,3.0986,3.0986,3.0986,3.0986,3.0986,3.0986,3.0986,3.1061,0.0,3.1123,3.1299,3.1483,3.1597,3.1597,3.1635,3.1724,3.1422,3.1261,3.1261,3.1261,3.1354,3.1604,3.138,0.0,0.0,0.0,3.1881,3.2461,3.2474,0.0,0.0,0.0,0.0,0.0,0.0,0.0,0.0,3.4969,3.5345,0.0,0.0,0.0,0.0,0.0,0.0,0.0,0.0,0.0,0.0,0.0,0.0,0.0,0.0,0.0,0.0,3.6889,3.7797,3.8437,3.8518,3.8708,3.9237,3.9247,3.9145,3.8908,3.8863,3.8697,3.8245,3.82,3.8089,3.79,0.0,0.0,0.0,0.0,3.79,3.79,3.79,3.79,3.79,3.79,3.79,3.79,3.79,3.7612,3.7063,3.6397,3.5835,3.5338,3.4672,3.4397,3.4397,3.4397,3.4397,3.4397,3.4397,3.4058,3.3587,3.3509,0.0,0.0,3.2515,3.2502,3.2411,3.1863,3.1706,3.1602,3.113,3.0986,3.0986,3.0986,3.0986,3.0986,3.0986,3.0986,3.0986,3.0986,3.0986,3.1024,3.1024,3.1161,3.131,3.131,3.1174,3.1136,3.131,3.131,3.1397,3.1572,3.1609,3.1609,3.1609,0.0,0.0,3.2366,3.1913,3.2046,3.3126,3.2753,3.2766,3.3353,3.3433,3.3858,3.4713,3.5035,3.5707,3.67,3.7126,3.7423,3.7567,3.6482,3.6605,0.0,0.0,0.0,0.0,0.0,0.0,0.0,0.0,0.0,0.0,0.0,0.0,0.0,0.0,0.0,3.7623,3.8055,3.845,3.9047,3.9129,3.9169,3.9292,3.91,3.8953,3.8908,3.8756,3.8544,3.82,3.82,3.8089,3.79,3.79,3.79,3.79,3.79,3.79,3.79,3.79,3.79,3.79,0.0,0.0,3.79,3.79,3.7848,3.7678,3.658,3.6044,3.5861,3.4829,3.4397,3.4397,3.4397,3.4397,3.4397,3.4397,3.4058,3.3522,3.3038,3.2489,3.1889,3.147,3.1313,3.13,3.1182,3.1143,0.0,3.1013,3.0986,3.0986,3.0986,3.0986,3.0986,3.0986,3.0986,3.0986,3.0986,3.0986,3.1061,3.1198,3.1272,3.136,3.1522,3.1522,3.1485,3.1522,3.1522,3.1572,3.1596,3.1609,3.1609,3.1609,3.1609,3.1649,3.1755,3.1676,3.1702,3.1929,3.2248,3.2701,3.3274,3.378,3.466,3.591,3.6044,3.6491,3.7309,3.7905,3.8204,3.8247,3.8003,3.8016,0.0,0.0,0.0,0.0,0.0,0.0,0.0,0.0,0.0,0.0,0.0,3.5073,3.5995,0.0,3.6984,3.822,3.8667,3.8966,3.9264,3.9305,3.9305,3.9305,3.9203,3.91,3.91,3.889,3.8666,3.8408,3.8536,3.8569,3.8305,3.8305,3.8305,3.8305,3.8044,3.79,3.79,3.79,3.79,3.79,3.79,3.79,3.79,3.79,3.79,3.7848,3.6946,3.6554,3.6462,3.5325,3.4672,3.4397,3.4397,3.4397,3.4397,3.4397,3.4058,3.3548,3.3247,3.2568,3.1758,3.1509,3.1222,3.0986,3.0986,3.0986,3.0986,3.0986,3.0986,3.0986,3.0986,3.0986,3.0986,3.0986,3.0986,3.0986,3.0986,3.1099,3.1161,3.1272,3.1458,3.1619,3.1743,3.1817,3.1853,3.178,3.1743,3.178,3.189,3.189,3.189,3.189,3.189,3.2011,3.2344,3.2603,3.2726,3.2726,3.3277,3.3759,3.4055,3.4633,3.5278,3.5994,3.6588,3.7103,3.7485,3.8423,3.8857,3.8857,3.8857,3.8857,0.0,0.0,0.0,0.0,0.0,0.0,0.0,3.457,3.5168,3.529,3.5696,3.6252,3.6849,3.7365,3.7851,3.8491,3.8993,3.9305,3.9305,3.9305,3.9305,3.9305,3.9305,3.9305,3.9305,3.91,3.8877,3.8679,3.9011,3.9097,3.8804,3.8862,3.8927,3.888,3.8344,3.8057,3.8057,3.7952,3.79,3.79,3.79,3.79,3.79,3.79,3.79,3.7874,3.726,3.6933,3.675,3.5717,3.5012,3.4554,3.445,3.4397,3.4397,3.4397,3.4058,3.3587,3.3587,3.2894,3.1954,3.1836,3.1522,3.113,3.1013,3.1065,3.1156,3.1156,3.1235,3.1313,3.1313,3.1313,3.1313,3.1313,3.1313,3.1351,3.1389,3.141,3.1481,3.1519,3.1699,3.1894,3.2038,3.2212,3.2245,3.1977,3.1963,3.2036,3.2182,3.2218,3.2218,3.2218,3.2218,3.2449,3.3047,3.3498,3.3786,3.3894,3.4355,3.468,3.4788,3.5249,3.5655,3.5886,3.6849,3.7431,3.7662,3.8667,3.9197,3.9305,3.9305,3.9305,3.8677,3.7383,3.6252,3.6438,3.5579,3.51,0.0,3.67,3.6564,3.7079,3.7241,3.7472,3.8111,3.8274,3.8518,3.9102,3.9264,3.9305,3.9305,3.9305,3.9305,3.9305,3.9305,3.9305,3.9305,3.9247,3.9158,3.8863,3.9395,3.9514,3.9064,3.9551,3.9733,3.9507,3.8932,3.8619,3.8619,3.8148,3.79,3.79,3.79,3.79,3.79,3.79,3.79,3.7874,3.726,3.6698,3.6162,3.5547,3.526,3.5142,3.4607,3.4397,3.4397,3.4397,3.4058,3.3587,3.3587,3.3156,3.2515,3.1967,3.1758,3.1615,3.1143,3.1339,3.1706,3.1706,3.211,3.2502,3.2502,3.2502,3.2502,3.2502,3.2502,3.2581,3.2725,3.2355,3.2089,3.233,3.1955,3.1843,3.2589,3.2707,3.2607,3.2227,3.2182,3.2182,3.2218,3.2218,3.2218,3.2218,3.2218,3.2449,3.3047,3.3156,3.339,3.388,3.3962,3.4246,3.4775,3.4856,3.5385,3.6483,3.6632,3.7243,3.8315,3.845,3.879,3.9305,3.9305,3.9305,3.7364,3.751,3.7489,3.6034,3.6033,3.6469,3.6904,3.7338,3.7731,3.7946,3.8315,3.864,3.8884,3.8925,3.9129,3.9726,3.9807,3.9807,3.9807,3.9522,3.9169,3.883,3.879,3.8925,3.9278,3.9158,3.9159,3.9419,3.9707,3.9932,4.01,4.0193,4.0166,4.0082,3.9534,3.9063,3.871,3.8488,3.8214,3.79,3.79,3.79,3.79,3.79,3.79,3.7887,3.7639,3.7181,3.658,3.6005,3.5587,3.5234,3.4633,3.4397,3.4397,3.4397,3.4254,3.4058,3.4058,3.3692,3.3169,3.2934,3.262,3.2293,3.2058,3.215,3.2333,3.2333,3.2515,3.2685,3.2685,3.2685,3.2685,3.2685,3.2685,3.2725,3.2804,3.2725,3.2683,3.2761,3.2768,3.2879,3.3196,3.3351,3.3384,3.3203,3.3176,3.3176,3.3176,3.2915,3.2721,3.2721,3.2721,3.2966,3.3525,3.358,3.365,3.3894,3.4233,3.4531,3.4788,3.5127,3.5574,3.6076,3.6429,3.7026,3.7865,3.8247,3.8722,3.9305,3.9305,3.9305,3.7251,3.79,3.8256,3.6166,3.6593,3.7418,3.7175,3.7908,3.8667,3.8667,3.9007,3.9305,3.9305,3.9305,3.9495,4.0092,4.0187,4.0187,4.0187,3.9671,3.9142,3.8708,3.8518,3.8654,3.9237,3.91,3.9253,3.9873,4.0081,4.0444,4.0896,4.0873,4.0805,4.0657,4.0122,3.9625,3.9181,3.9037,3.8671,3.8122,3.8122,3.8044,3.79,3.79,3.79,3.79,3.79,3.7652,3.7207,3.6606,3.6018,3.5456,3.4881,3.4541,3.4397,3.4397,3.4397,3.4397,3.4397,3.4136,3.3796,3.3639,3.33,3.2908,3.2738,3.2816,3.2947,3.2947,3.3051,3.3156,3.3156,3.3156,3.3156,3.3156,3.3156,3.3209,3.3249,3.3238,3.3238,3.3317,3.3434,3.3575,3.3827,3.3971,3.4128,3.4368,3.4395,3.4287,3.3948,3.358,3.3308,3.3308,3.3308,3.3552,3.4097,3.4151,3.4219,3.4395,3.4802,3.5032,3.5032,3.5493,3.571,3.571,3.6293,3.6904,3.7485,3.8095,3.8839,3.9675,3.9675,3.9807,3.9258,3.8694,3.8048,3.7758,3.7593,3.7634,3.8233,3.883,3.9278,3.9278,3.9292,3.9305,3.9305,3.9305,3.9495,4.0092,4.0187,4.0187,4.0187,3.9671,3.9292,3.9278,3.8776,3.8654,3.9237,3.9305,3.9549,4.0146,4.0711,4.1086,4.1186,4.1746,4.1805,4.1285,4.071,4.0383,4.0357,3.9847,3.9272,3.8684,3.8684,3.841,3.79,3.79,3.79,3.79,3.79,3.79,3.7835,3.722,3.6619,3.6018,3.5482,3.492,3.4397,3.4397,3.4397,3.4397,3.4397,3.4384,3.4293,3.3757,3.3587,3.3456,3.2868,3.3104,3.3561,3.3561,3.394,3.4345,3.4345,3.4345,3.4345,3.4345,3.4345,3.4441,3.4662,3.4268,3.3912,3.4153,3.37,3.3565,3.4351,3.4498,3.4726,3.5534,3.5669,3.5209,3.4057,3.3894,3.388,3.388,3.388,3.4124,3.4707,3.4761,3.5005,3.5628,3.5683,3.5683,3.5683,3.571,3.571,3.571,3.6293,3.6904,3.7485,3.8095,3.9159,4.056,4.056,4.1043,3.8251,3.8348,3.8544,3.7952,3.7662,3.754,3.7743,3.8288,3.86,3.8206,3.8437,3.86,3.8163,3.8776,3.9495,4.0092,4.0865,4.1394,4.1394,4.0879,4.0363,3.9929,3.9712,3.9671,3.9875,3.9522,3.9726,4.073,4.0802,4.1201,4.2003,4.2084,4.2029,4.1845,4.1449,4.1061,4.068,4.0288,3.9664,3.871,3.8344,3.8083,3.79,3.79,3.79,3.79,3.79,3.79,3.7861,3.726,3.6881,3.6606,3.5665,3.5168,3.4946,3.4541,3.4397,3.4397,3.4397,3.4397,3.4371,3.4188,3.4123,3.4084,3.3888,3.3966,3.4123,3.4123,3.4254,3.4397,3.4397,3.4397,3.4397,3.4397,3.4397,3.4439,3.4535,3.4378,3.4288,3.4548,3.4538,3.462,3.5023,3.5224,3.5412,3.5642,3.571,3.5385,3.4599,3.4504,3.4504,3.4504,3.4504,3.4734,3.5331,3.5385,3.5506,3.571,3.571,3.571,3.571,3.571,3.59,3.6293,3.7083,3.7963,3.8936,3.9144,4.0055,4.1505,4.0901,4.1113,3.8221,3.8544,3.8853,3.7749,3.7534,3.751,3.7231,3.7677,3.7946,3.7567,3.7621,3.7718,3.7526,3.8109,3.9007,4.0024,4.1028,4.1761,4.1978,4.1489,4.0974,4.0567,4.0323,4.0268,4.0499,4.0173,4.0363,4.1354,4.1281,4.1558,4.2457,4.2351,4.2141,4.198,4.1796,4.1475,4.0959,4.0798,4.0161,3.9024,3.8266,3.79,3.79,3.79,3.79,3.79,3.79,3.79,3.7874,3.7482,3.7194,3.6907,3.5953,3.5469,3.5221,3.462,3.4397,3.4397,3.4397,3.4397,3.4397,3.4397,3.4397,3.4397,3.4397,3.4397,3.4397,3.4397,3.4397,3.4397,3.4397,3.4397,3.4397,3.4397,3.4397,3.4397,3.4397,3.4481,3.4618,3.488,3.5086,3.5277,3.548,3.5602,3.571,3.571,3.571,3.5574,3.5154,3.51,3.51,3.51,3.51,3.5263,3.5683,3.571,3.571,3.571,3.571,3.5831,3.6137,3.6397,3.6847,3.7529,3.8526,3.9418,4.0215,4.0402,4.1186,4.2441,4.1864,4.207,3.9179,3.929,3.887,3.7333,3.7332,3.7487,3.6716,3.7012,3.739,3.7363,3.6944,3.6727,3.7255,3.7458,3.8095,3.9861,4.0716,4.1381,4.1964,4.1557,4.1205,4.1205,4.0689,4.0553,4.115,4.1205,4.1449,4.2005,0.0,4.2167,4.252,4.2511,4.2253,4.1796,4.1696,4.1597,4.1361,4.1285,4.071,3.9599,3.8475,3.7926,3.79,3.79,3.79,3.79,3.79,3.79,3.79,3.79,3.7573,3.6985,3.6384,3.5822,3.5316,3.4714,3.4424,3.4439,3.4439,3.4397,3.4397,3.4397,3.4397,3.4397,3.4397,3.4397,3.4397,3.4397,3.4397,3.4397,3.4397,3.4397,3.4397,3.4397,3.4397,3.4439,3.4439,3.4618,3.488,3.5086,3.5277,3.548,3.5669,3.571,3.571,3.571,3.571,3.571,3.571,3.571,3.571,3.571,3.575,3.575,3.571,3.575,3.575,3.575,3.5791,3.6178,3.6978,3.7715,3.8489,3.9281,4.0538,4.1179,4.1208,4.1808,4.2522,4.3364,4.3324,4.3771,3.9287,3.8945,3.8324,3.7875,3.6996,3.617,3.5981,3.6062,3.6008,3.5574,3.571,3.5859,3.5534,3.6943,3.8491,3.9386,4.0798,4.1978,4.2588,4.2534,4.2439,4.2439,4.2304,4.2263,4.2426,4.2439,4.2493,0.0,4.2249,4.2215,4.2763,4.2595,4.2547,4.2582,4.1993,4.1746,4.1881,4.1051,4.0292,3.9599,3.8854,3.8292,3.79,3.79,3.79,3.79,3.79,3.79,3.79,3.79,3.7887,3.78,3.7043,3.6643,3.6323,3.5571,3.5042,3.4714,3.4714,3.4577,3.4397,3.4397,3.4397,3.4397,3.4397,3.4535,3.4673,3.4452,3.4535,3.466,3.4439,3.4397,3.4397,3.4397,3.4535,3.4714,3.4714,3.488,3.5086,3.5277,3.548,3.5642,3.5669,3.571,3.571,3.571,3.571,3.571,3.571,3.571,3.571,3.571,3.6256,3.6362,3.575,3.6243,3.6584,3.6584,3.7123,3.7758,3.8587,3.9285,3.9967,4.0575,4.1573,4.2302,4.2738,4.2877,4.3403,4.4251,4.36,4.3771,3.9659,3.9561,3.9088,3.8694,3.7965,3.7179,3.683,3.6518,3.6192,3.5786,3.5556,3.537,3.522,3.6713,3.8315,3.9169,4.0825,4.2209,4.2806,4.2887,4.2887,4.2887,4.2887,4.2887,4.2887,4.2887,4.2887,4.2887,4.2492,4.2355,4.2728,4.2498,4.2351,4.2387,4.1944,4.1696,4.1746,4.0857,4.0148,3.9599,3.8998,3.8423,3.79,3.79,3.79,3.79,0.0,3.79,3.79,3.8024,3.8089,3.8147,3.7522,3.7118,3.6708,3.6037,3.5425,3.4921,3.4839,3.4714,3.4577,3.4439,3.4397,3.4397,3.4397,3.4577,3.4756,3.4618,3.4673,3.4769,3.4618,3.4481,3.4439,3.4535,3.4714,3.4918,3.5252,3.5259,3.5357,3.5858,3.6022,3.6198,3.6415,3.6469,3.6469,3.6469,3.6469,3.662,3.7001,3.6265,3.5977,3.6688,3.6844,3.6844,3.6766,3.7473,3.7915,3.7915,3.8553,3.9343,4.0153,4.0811,4.1483,4.219,4.2984,4.3509,4.3888,4.3888,4.4135,4.4572,4.4097,4.4135,4.0136,4.042,4.0181,3.9463,3.9173,3.8845,3.8119,3.744,3.6929,3.6686,3.5897,3.5358,3.5557,3.6661,3.7954,3.9102,4.0689,4.2032,4.2778,4.2887,4.2887,4.2887,4.2887,4.2887,4.2887,4.2887,4.2887,4.2887,4.2595,4.2449,4.2511,4.219,4.1931,4.1647,4.1696,4.1547,4.1311,4.0788,4.0226,3.9599,3.9076,3.8501,3.79,3.79,3.79,3.79,0.0,0.0,3.79,3.8089,3.8213,3.8206,3.7869,3.7403,3.685,3.6342,3.5728,3.5127,3.4921,3.4839,3.4797,3.4535,3.4439,3.4452,3.4481,3.466,3.488,3.4839,3.4839,3.488,3.4839,3.466,3.4535,3.4797,3.4946,3.5173,3.5873,3.5854,3.5871,3.6577,3.6727,3.6904,3.7404,3.7485,3.7485,3.7485,3.7612,3.7992,3.8844,3.7218,3.6538,3.8081,3.7644,3.7477,3.8194,3.892,3.9414,3.9501,4.01,4.0855,4.1648,4.2333,4.3039,4.3694,4.4317,4.461,4.461,4.461,4.461,4.461,4.461,4.461,4.0136,3.999,3.9463,3.9341,3.8383,3.7463,3.7317,3.6787,3.6151,3.5451,3.61,3.6445,3.5212,3.6491,3.8076,3.9108,3.997,4.1055,4.2656,4.2887,4.2887,4.2887,4.2887,4.2887,4.2887,4.2887,4.2887,4.2887,4.2435,4.2289,4.2511,4.2043,4.1647,4.1361,4.1597,4.1547,4.1311,4.1206,4.0644,3.9612,3.9494,3.8906,3.79,3.79,3.79,3.79,3.79,0.0,3.79,3.7946,3.8207,3.8485,3.823,3.7807,3.7344,3.708,3.6298,3.5358,3.5318,3.5195,3.5003,3.4797,3.4714,3.4756,3.4908,3.5113,3.5277,3.5086,3.5154,3.5277,3.5086,3.499,3.499,3.5044,3.5569,3.6069,3.6218,3.6722,3.7159,3.7309,3.7323,3.7363,3.7472,3.7485,3.7485,3.7485,3.8103,3.8858,3.969,3.8411,3.7839,3.889,3.8936,3.8907,3.8999,3.9742,4.0427,4.0964,4.1658,4.2363,4.3201,4.3845,4.4273,4.444,4.4548,4.461,4.461,4.461,4.461,4.461,4.461,4.461,4.0136,4.0231,3.992,3.992,3.9124,3.8422,3.8801,3.8113,3.7367,3.7252,3.7513,3.7514,3.667,3.7484,3.8516,3.9334,3.9875,4.0716,4.2209,4.2426,4.2548,4.2846,4.2887,4.2887,4.2887,4.2887,4.2887,4.2887,4.2373,4.2177,4.2289,4.1796,4.1411,4.1311,4.1411,4.1411,4.1311,4.1311,4.0736,3.9612,3.9612,3.9011,3.79,3.79,3.79,3.79,3.79,0.0,3.79,3.8161,3.8389,3.8602,3.8724,3.8455,3.7919,3.7522,3.6791,3.5967,3.5547,3.5358,3.5236,3.5113,3.5044,3.4962,3.5086,3.5236,3.5399,3.5277,3.5318,3.5399,3.5277,3.5195,3.5127,3.5236,3.6098,3.6912,3.6912,3.7483,3.7946,3.7946,3.7946,3.8055,3.8396,3.845,3.845,3.845,3.9169,4.0051,4.0926,4.0521,4.0349,4.0891,4.0636,4.0539,4.0943,4.1624,4.2195,4.2514,4.3168,4.3739,4.4095,4.444,4.461,4.461,4.461,4.461,4.461,4.461,4.461,4.461,4.461,4.461,4.0136,4.0489,4.0489,4.0489,3.9874,3.9444,4.012,3.9351,3.8598,3.9013,3.8917,3.862,3.82,3.8349,3.8813,3.9494,3.9823,4.0472,4.1815,4.2114,4.2371,4.2833,4.2887,4.2887,4.2887,4.2887,4.2887,4.2887,4.2373,4.2029,4.1931,4.156,4.1311,4.1311,4.1311,4.1311,4.1311,4.1311,4.0736,3.9612,3.9612,3.9011,3.79,3.79,3.79,3.79,3.79,0.0,0.0,3.833,3.8557,3.8647,3.9024,3.8895,3.8355,3.7702,3.7134,3.6469,3.5723,3.548,3.548,3.548,3.5318,3.5154,3.5236,3.5358,3.548,3.548,3.548,3.548,3.548,3.5358,3.5344,3.5763,3.6764,3.7716,3.7851,3.8274,3.86,3.86,3.86,3.8793,3.9461,3.9587,3.9631,3.9851,4.0617,4.1435,4.2181,4.2585,4.2841,4.3005,4.221,4.1977,4.2765,4.3316,4.367,4.3809,4.4317,4.461,4.461,4.461,4.461,4.461,4.461,4.461,4.461,4.461,4.461,4.461,4.461,4.461,4.0136,4.0489,4.0489,4.0489,3.9521,3.8785,3.9428,3.9046,3.8461,3.8427,3.9414,3.9844,3.8384,3.8113,3.8486,3.9436,3.9479,3.9997,4.1747,4.2466,4.2833,4.2873,4.2887,4.2887,4.2887,4.2887,4.2887,4.2887,4.2373,0.0,4.1411,4.1311,4.1311,4.1311,4.1311,4.1311,4.1311,4.1311,4.0736,3.9612,3.9612,3.9011,3.79,3.79,3.79,3.79,3.79,0.0,0.0,3.8135,3.8395,3.8602,3.8832,3.8735,3.8355,3.7702,3.7134,3.651,3.5886,3.5669,3.5669,3.5669,3.5562,3.5399,3.5602,3.5669,3.5669,3.5669,3.5669,3.5669,3.5669,3.5669,3.5913,3.7065,3.7824,3.8491,3.902,3.9183,3.9224,3.9224,3.9224,3.9475,4.0346,4.0475,4.0774,4.1603,4.2508,4.3071,4.3165,4.3881,4.4388,4.4402,4.3251,4.2759,4.3433,4.3578,4.387,4.4486,4.4579,4.461,4.461,4.461,4.461,4.461,4.461,4.461,4.461,4.461,4.461,4.461,4.461,4.461,3.9736,4.0182,4.0489,4.0489,3.9474,3.88,3.9844,3.9259,3.8701,3.9451,4.0082,4.0301,3.9657,3.916,3.9023,3.9685,3.9297,3.9412,4.074,4.1435,4.1951,4.2317,4.267,4.2887,4.2887,4.2887,4.279,4.2435,4.2226,0.0,4.1311,4.1311,4.1311,4.1311,4.1311,4.1311,4.1311,4.0958,4.0383,3.9612,3.9246,3.8658,3.79,3.79,3.79,3.79,3.79,0.0,0.0,3.8285,3.8498,3.8647,3.898,3.9054,3.883,3.7851,3.7336,3.6984,3.6049,3.571,3.571,3.571,3.5642,3.5602,3.5669,3.571,3.571,3.571,3.571,3.571,3.571,3.5981,3.6551,3.7729,3.8247,3.8586,3.9169,3.9305,3.9469,3.9984,4.0071,4.036,4.1296,4.1421,4.1561,4.1949,4.275,4.3284,4.3284,4.4043,4.461,4.461,4.411,4.3895,4.4194,4.4209,4.4332,4.4594,4.461,4.461,4.461,4.461,4.461,4.461,4.461,4.461,4.461,4.461,4.461,4.461,4.461,4.461,3.9367,3.9982,4.0489,4.0489,3.9474,3.8862,4.0182,3.9444,3.8893,4.0213,4.0489,4.0489,4.0489,4.0016,3.9684,3.9857,3.9548,3.9521,4.0364,4.1001,4.1598,4.2195,4.2629,4.2887,4.2887,4.2887,4.2679,4.2128,4.2079,0.0,4.1311,4.1141,4.1141,4.1311,4.1141,4.105,4.105,4.0461,3.9899,3.9337,3.8919,3.8423,3.79,3.79,3.79,3.79,0.0,0.0,0.0,3.8434,3.8602,3.8647,3.9127,3.9305,3.9183,3.8122,3.7756,3.758,3.6402,3.5981,3.5981,3.5981,3.5859,3.575,3.5927,3.5859,3.571,3.571,3.571,3.575,3.5927,3.6429,3.7134,3.8165,3.8559,3.879,3.921,3.9305,3.9543,4.0432,4.0603,4.0986,4.2181,4.24,4.2482,4.2725,4.3284,4.3693,4.3693,4.4212,4.461,4.461,4.461,4.461,4.461,4.461,4.461,4.461,4.461,4.461,4.461,4.461,4.461,4.461,4.461,4.461,4.461,4.461,4.461,4.461,4.461,4.461,3.9154,3.9982,4.0489,4.0489,3.9474,3.8862,4.0182,3.9444,3.8893,4.0213,4.0489,4.0489,4.0489,4.0461,4.0271,3.9929,4.0274,4.0691,4.1012,4.1625,4.2209,4.2806,4.2887,4.2887,4.2887,4.2887,4.2679,4.2128,4.2079,0.0,4.1311,4.0749,4.0697,4.1298,4.0736,4.0422,4.0422,3.9886,3.9311,3.8723,3.871,3.8423,3.79,3.79,3.79,0.0,0.0,0.0,0.0,3.8434,3.8602,3.8647,3.9127,3.9305,3.9237,3.864,3.841,3.8233,3.7012,3.6592,3.6592,3.6592,3.6198,3.5818,3.6415,3.6171,3.571,3.571,3.571,3.5859,3.6442,3.7053,3.7634,3.8274,3.8871,3.9292,3.9305,3.9305,3.9543,4.0432,4.0603,4.1183,4.2991,4.3284,4.356,4.4458,4.4572,4.4587,4.4587,4.4572,4.461,4.461,4.461,4.461,4.461,4.461,4.461,4.461,4.461,4.461,4.461,4.461,4.461,4.461,4.461,4.461,4.461,4.461,4.461,4.461,4.461,4.461,3.9244,3.9644,3.992,4.0382,3.9474,3.8862,4.0182,3.9444,3.8893,4.0213,4.0924,4.1263,4.1263,4.1623,4.1977,4.2188,4.1753,4.1597,4.2018,4.2019,4.2073,4.2263,4.2643,4.2887,4.2887,0.0,4.2679,4.2128,0.0,0.0,4.0723,4.0514,4.0501,4.0697,4.0161,3.986,3.986,3.9285,3.8893,3.871,3.8331,3.807,3.79,3.79,0.0,0.0,0.0,0.0,0.0,3.8434,3.8602,3.8647,3.9127,3.9305,3.9237,3.864,3.8423,3.8301,3.7472,3.7243,3.7243,3.7243,3.7065,3.6875,3.6673,3.6185,3.571,3.571,3.571,3.594,3.693,3.735,3.7743,3.8776,3.9169,3.9305,3.9305,3.9305,3.9543,4.0432,4.1113,4.192,4.3111,4.381,4.4289,4.4572,4.461,4.461,4.461,4.461,4.461,4.461,4.461,4.461,4.461,4.461,4.461,4.461,4.461,4.461,4.461,4.461,4.461,4.461,4.461,4.461,4.461,4.461,4.461,4.461,4.461,4.461,3.9339,3.9674,3.9967,4.0397,3.9674,3.9136,4.0243,3.9644,3.9244,4.0612,4.1294,4.1678,4.1925,4.2525,4.2974,4.2947,4.282,4.2798,4.2995,4.2761,4.2485,4.2351,4.2656,4.2887,0.0,4.2887,4.2679,4.2128,0.0,0.0,4.0435,4.0004,3.9769,3.9769,3.9442,3.9272,3.9272,3.8697,3.841,3.8397,3.807,3.79,3.79,3.79,3.79,0.0,0.0,0.0,0.0,3.8434,3.8602,3.8647,3.9127,3.9305,3.9251,3.8884,3.8749,3.8667,3.8027,3.7824,3.7824,3.7824,3.7675,3.7377,3.6782,3.6185,3.571,3.571,3.5873,3.628,3.7241,3.7662,3.8068,3.9074,3.9305,3.9305,3.9305,3.9305,3.9543,4.0432,4.138,4.2278,4.3165,4.4004,4.461,4.461,4.461,4.461,4.461,4.461,4.461,4.461,4.461,4.461,4.461,4.461,4.461,4.461,4.461,4.461,4.461,4.461,4.461,4.461,4.461,4.461,4.461,4.461,4.461,4.461,4.461,4.461,0.0,3.9936,4.0428,4.0489,3.9982,3.9659,4.0336,3.9967,0.0,4.1309,4.1632,4.1894,4.2617,4.3233,4.3439,4.2799,4.3609,4.4325,4.4136,4.372,4.3324,4.2964,4.2887,4.2838,4.2887,4.2838,4.2631,0.0,0.0,0.0,4.0357,3.9311,3.8697,3.8658,3.8658,3.8658,3.8658,3.8161,3.79,3.79,3.79,3.79,3.79,3.79,0.0,0.0,0.0,0.0,0.0,3.8434,3.8602,3.8647,3.9127,3.9305,3.9305,3.9305,3.9305,3.9224,3.8667,3.8477,3.8477,3.8477,3.8041,3.7431,3.6849,3.6225,3.571,3.571,3.6144,3.6741,3.7323,3.7933,3.8559,3.9169,3.9305,3.9305,3.9305,3.9305,3.9543,4.036,4.1254,4.2181,4.3046,4.3927,4.4534,4.4572,4.461,4.461,4.461,4.461,4.461,4.461,4.461,4.461,4.461,4.461,4.461,4.461,4.461,4.461,4.461,4.461,4.461,4.461,4.461,4.461,4.461,4.461,4.461,4.461,4.461,4.461,3.9339,0.0,3.9844,4.0366,3.9982,3.9659,0.0,3.9967,3.9908,4.1309,4.2017,4.274,4.3895,4.4271,4.4811,4.615,4.5606,4.5326,4.6276,4.4891,4.3563,4.2957,4.2533,4.2387,4.2547,4.2387,0.0,0.0,0.0,4.0592,3.9821,3.9102,3.8514,3.8109,3.8096,3.8096,3.8096,3.7965,3.79,3.79,3.79,3.79,3.79,3.79,0.0,0.0,0.0,0.0,3.7946,3.8434,3.8602,3.8647,3.9127,3.9305,3.9305,3.9305,3.9305,3.9278,3.9142,3.9102,3.9102,3.9102,3.8695,3.8098,3.7458,3.6523,3.571,3.571,3.6144,3.6741,3.7323,3.7933,3.8559,3.9169,3.9305,3.9305,3.9305,3.9305,3.9336,3.9587,4.0331,4.1197,4.214,4.3046,4.3849,4.4496,4.461,4.461,4.461,4.461,4.461,4.461,4.461,4.461,4.461,4.461,4.461,4.461,4.461,4.461,4.461,4.461,4.461,4.461,4.461,4.461,4.461,4.461,4.461,4.461,4.461,4.461,3.9382,4.0216,4.1032,4.1351,4.1166,4.1032,4.1366,4.0674,4.0259,4.137,4.214,4.2925,4.3963,4.4618,4.5403,4.6496,4.6382,4.6221,4.6329,4.5343,4.4125,4.2873,4.2338,4.2177,0.0,0.0,0.0,0.0,0.0,3.997,3.9854,3.8878,3.8214,3.7913,3.8272,3.8304,3.79,3.79,3.79,3.79,3.79,3.79,3.79,3.79,3.79,0.0,0.0,0.0,3.7946,3.8285,3.8408,3.8453,3.8922,3.9114,3.9158,3.9247,3.9305,3.9305,3.9305,3.9305,3.9305,3.9305,3.8898,3.8355,3.7987,3.7241,3.6455,3.6198,3.6564,3.7175,3.7743,3.8383,3.8912,3.9224,3.9305,3.9305,3.9305,3.9305,3.9305,3.9305,4.0331,4.138,4.1908,4.3031,4.4058,4.4534,4.461,4.461,4.461,4.461,4.461,4.461,4.461,4.461,4.461,4.461,4.461,4.461,4.461,4.461,4.461,4.461,4.461,4.461,4.461,4.461,4.461,4.461,4.461,4.461,4.461,4.461,3.9336,4.1093,4.2833,4.2525,4.2602,4.274,4.2633,4.1694,4.1047,4.1755,4.2355,4.3017,4.3917,4.4918,4.5695,4.6003,4.6858,4.7057,4.5856,4.5629,4.49,4.3136,4.2523,0.0,4.2323,0.0,0.0,0.0,0.0,3.969,4.0268,3.9018,3.8239,3.8103,3.897,3.9015,3.8103,3.8239,3.833,3.833,3.833,3.833,3.833,3.833,3.833,0.0,0.0,0.0,3.8103,3.8349,3.8336,3.8245,3.8729,3.8908,3.8908,3.9203,3.9305,3.9305,3.9305,3.9305,3.9305,3.9305,3.8952,3.8532,3.845,3.8027,3.7512,3.7026,3.7256,3.7743,3.8288,3.8857,3.9305,3.9305,3.9305,3.9305,3.9305,3.9305,3.9305,3.9305,4.0517,4.1701,4.1949,4.3205,4.4289,4.4572,4.461,4.461,4.461,4.461,4.461,4.461,4.461,4.461,4.461,4.461,4.461,4.461,4.461,4.461,4.461,4.461,4.461,4.461,4.461,4.461,4.461,4.461,4.461,4.461,4.461,4.461,3.8662,4.1401,4.3864,4.2171,4.2602,4.3316,4.274,4.2432,4.2479,4.3162,4.3393,4.4009,4.5803,4.5834,4.6157,4.7865,4.8286,4.805,4.7045,4.6579,4.5988,4.5084,0.0,4.3217,0.0,0.0,0.0,0.0,0.0,4.1163,4.1295,4.0608,3.9826,3.9046,3.9899,3.9942,3.9002,3.9782,4.0187,4.0187,4.0187,4.0187,4.0187,4.0187,4.0187,0.0,0.0,3.9738,3.9002,3.9282,3.8908,3.8245,3.8729,3.8908,3.8908,3.9203,3.9305,3.9305,3.9305,3.9305,3.9305,3.9305,3.9237,3.9074,3.8559,3.8355,3.826,3.8165,3.8206,3.8301,3.8396,3.8857,3.9305,3.9305,3.9305,3.9305,3.9305,3.9305,3.9305,3.9305,3.9513,4.0185,4.1742,4.2237,4.2926,4.4381,4.461,4.461,4.461,4.461,4.461,4.461,4.461,4.461,4.461,4.461,4.461,4.461,4.461,4.461,4.461,4.461,4.461,4.461,4.461,4.461,4.461,4.461,4.461,4.461,4.461,4.461,3.8498,4.0955,4.3371,4.2802,4.3941,4.5126,4.4833,4.4202,4.3756,4.4086,4.444,4.4941,4.588,4.6388,4.7071,4.8254,4.8537,4.8214,4.7204,4.6711,4.6035,0.0,0.0,0.0,0.0,0.0,0.0,0.0,0.0,0.0,4.1738,4.1029,4.0375,3.9986,4.0859,4.1155,4.0731,4.163,4.1589,4.0603,4.0603,4.0603,4.0603,4.0603,4.0603,4.0603,0.0,4.0375,3.9942,3.9519,3.9135,3.8747,3.8742,3.8756,3.88,3.9172,3.9305,3.9305,3.9305,3.9305,3.9305,3.9305,3.9305,3.9251,3.8979,3.8898,3.8898,3.8898,3.8667,3.8491,3.8817,3.9102,3.9305,3.9305,3.9305,3.9305,3.9305,3.9305,3.9305,3.9305,3.9662,4.0287,4.1085,4.2044,4.2966,4.3771,4.4289,4.461,4.461,4.461,4.461,4.461,4.461,4.461,4.461,4.461,4.461,4.461,4.461,4.461,4.461,4.461,4.461,4.461,4.461,4.461,4.461,4.461,4.461,4.461,4.461,4.461,3.8681,4.0576,4.271,4.3245,4.4741,4.6203,4.6526,4.5541,4.4702,4.4987,4.5464,4.588,4.6034,4.7034,4.7937,4.8252,4.8453,4.8271,4.7278,4.6869,4.6122,4.4776,4.3972,0.0,0.0,0.0,0.0,0.0,0.0,0.0,4.2278,4.163,4.1155,4.0944,4.1811,4.2211,4.199,4.2875,4.2603,4.1239,4.1239,4.1239,4.1239,4.1239,4.1239,4.1239,4.1239,4.1113,4.0859,4.0159,3.9768,3.9549,3.91,3.8859,3.8827,3.9172,3.9305,3.9305,3.9305,3.9305,3.9305,3.9305,3.9305,3.9305,3.9305,3.9305,3.9305,3.9305,3.8979,3.8735,3.9183,3.9305,3.9305,3.9305,3.9305,3.9305,3.9305,3.9305,3.9305,3.9305,3.9823,4.036,4.0546,4.1726,4.2816,4.3245,4.3888,4.4381,4.4572,4.461,4.461,4.461,4.461,4.461,4.461,4.461,4.461,4.461,4.461,4.461,4.461,4.461,4.461,4.461,4.461,4.461,4.461,4.461,4.461,4.461,4.461,4.461,3.9313,4.0888,4.2526,4.2638,4.371,4.5049,4.6311,4.5541,4.4926,4.6188,4.6496,4.6711,4.7342,4.805,4.8475,4.8313,4.8453,4.8453,4.7992,0.0,4.6842,4.6473,0.0,0.0,0.0,0.0,0.0,0.0,0.0,0.0,4.321,4.3155,4.2739,4.1893,4.2739,4.2835,4.199,4.2875,4.325,4.3115,4.3115,4.3115,4.3115,4.3115,4.3115,4.3115,4.3115,4.2659,4.1908,4.1811,4.1407,4.0732,4.0128,3.9645,3.9261,3.9305,3.9305,3.9305,3.9305,3.9305,3.9305,3.9305,3.9305,3.9305,3.9305,3.9305,3.9305,3.9305,3.9278,3.9251,3.9292,3.9305,3.9305,3.9305,3.9305,3.9305,3.9305,3.9305,3.9305,3.9305,3.9336,3.9675,4.0475,4.0717,4.1351,4.3031,4.3364,4.3693,4.4496,4.461,4.461,4.461,4.461,4.461,4.461,4.461,4.461,4.461,4.461,4.461,4.461,4.461,4.461,4.461,4.461,4.461,4.461,4.461,4.461,4.461,4.461,4.461,3.987,4.1214,4.2714,4.3615,4.4214,4.4926,4.628,4.6526,4.6726,4.765,4.785,4.7927,4.8189,4.7988,4.7921,4.8418,4.7624,4.7104,4.7531,4.678,4.5999,0.0,0.0,0.0,0.0,0.0,0.0,0.0,0.0,0.0,4.329,4.329,4.317,4.2835,4.313,4.313,4.2795,4.313,4.329,4.329,4.329,4.329,4.329,4.329,4.329,4.329,4.329,4.3115,4.2795,4.2196,4.1852,4.1532,4.1015,4.0774,4.0774,4.0901,4.0589,4.0114,4.0114,3.9749,3.9305,3.9305,3.9305,3.9305,3.9305,3.9305,3.9305,3.9305,3.9305,3.9305,3.9305,3.9305,3.9305,3.9305,3.9305,3.9305,3.9305,3.9305,3.9305,3.9305,3.9305,3.938,3.9749,4.0717,4.1713,4.2386,4.3403,4.4212,4.4572,4.461,4.461,4.461,4.461,4.461,4.461,4.461,4.461,4.461,4.461,4.461,4.461,4.461,4.461,4.461,4.461,4.461,4.461,4.461,4.461,4.461,4.461,4.461,4.0609,4.1914,4.3354,4.4091,4.4606,4.5253,4.6359,4.6788,4.7281,4.8389,4.845,4.8194,4.7937,4.74,4.7125,4.7624,4.6732,4.6168,4.6624,4.5919,0.0,0.0,0.0,0.0,0.0,0.0,0.0,0.0,0.0,0.0,0.0,4.329,4.329,4.329,4.329,4.329,4.329,4.329,4.329,4.329,4.329,4.329,4.329,4.329,4.329,4.329,4.329,4.329,4.325,4.2659,4.2293,4.2073,4.1811,4.1686,4.1603,4.1811,4.1505,4.1029,4.1029,4.0446,3.9706,3.9706,3.9499,3.9305,3.9305,3.9305,3.9305,3.9305,3.9305,3.9305,3.9305,3.9305,3.9305,3.9305,3.9305,3.9305,3.9305,3.9305,3.9305,3.9305,3.9305,3.9305,3.9305,4.056,4.1561,4.1561,4.3071,4.4174,4.4174,4.4419,4.461,4.461,4.461,4.461,4.461,4.461,4.461,4.461,4.461,4.461,4.461,4.461,4.461,4.461,4.461,4.461,4.461,4.461,4.461,4.461,4.461,4.461,4.1499,4.297,4.4537,4.3805,4.4679,4.5856,4.6477,4.608,4.6157,4.8189,4.8065,4.7307,4.6446,4.6284,4.6163,4.5787,4.5854,4.5824,4.5372,4.4955,0.0,0.0,0.0,0.0,0.0,0.0,0.0,0.0,0.0,0.0,0.0,4.329,4.329,4.329,4.329,4.329,4.329,4.329,4.329,4.329,4.329,4.329,4.329,4.329,4.329,4.329,4.329,4.329,4.329,4.329,4.2915,4.2333,4.2592,4.2252,4.163,4.1645,4.1769,4.199,4.199,4.138,4.0603,4.0603,4.0027,3.9305,3.9305,3.9305,3.9305,3.9305,3.9305,3.9305,3.9305,3.9305,3.9305,3.9305,3.9305,3.9305,3.9305,3.9305,3.9305,3.9305,3.9305,3.9305,3.9305,4.0027,4.0646,4.0632,4.2152,4.3324,4.3324,4.4058,4.461,4.461,4.461,4.461,4.461,4.461,4.461,4.461,4.461,4.461,4.461,4.461,4.461,4.461,4.461,4.461,4.461,4.461,4.461,4.461,4.461,4.461,4.2061,4.3265,4.4772,4.5619,4.6144,4.6587,4.7296,4.6835,4.6465,4.7065,4.7034,4.6834,4.6555,4.6021,4.5773,4.6247,4.5331,4.4692,4.5042,0.0,0.0,0.0,0.0,0.0,0.0,0.0,0.0,0.0,0.0,0.0,0.0,4.2402,4.2656,4.2656,4.309,4.329,4.329,4.329,4.329,4.329,4.329,4.329,4.329,4.329,4.329,4.329,4.329,4.329,4.329,4.329,4.317,4.305,4.3305,4.3384,4.3314,4.3457,4.3245,4.2911,4.2911,4.2345,4.1463,4.0817,4.0432,4.0114,3.9513,3.9305,3.9305,3.9305,3.9305,3.9305,3.9305,3.9305,3.9305,3.9305,3.9305,3.9305,3.9305,3.9305,3.9305,3.9305,3.9305,3.9499,4.0114,4.0958,4.1796,4.2412,4.3467,4.4212,4.4212,4.4458,4.461,4.461,4.461,4.461,4.461,4.461,4.461,4.461,4.461,4.461,4.461,4.461,4.461,4.461,4.461,4.461,4.461,4.461,4.461,4.461,4.461,4.461,4.3216,4.4725,4.6433,4.7029,4.7373,4.749,4.7368,4.6951,4.6511,4.6249,4.6188,4.6111,4.5771,4.527,4.5054,4.5491,4.47,4.4033,4.417,0.0,0.0,0.0,0.0,0.0,0.0,0.0,0.0,0.0,0.0,0.0,0.0,4.1796,4.2126,4.2396,4.2746,4.3075,4.329,4.329,4.329,4.329,4.329,4.329,4.329,4.329,4.329,4.329,4.329,4.329,4.329,4.329,4.329,4.3329,4.3463,4.3714,4.4026,4.4143,4.4035,4.381,4.381,4.3245,4.2386,4.1463,4.0901,4.0432,3.9543,3.9305,3.9305,3.9305,3.9305,3.9305,3.9305,3.9305,3.9305,3.9305,3.9305,3.9305,3.9305,3.9305,3.9305,3.9305,3.9305,3.9587,4.0432,4.138,4.2196,4.271,4.3521,4.4212,4.4572,4.461,4.461,4.461,4.461,4.461,4.461,4.461,4.461,4.461,4.461,4.461,4.461,4.461,4.461,4.461,4.461,4.461,4.461,4.461,4.461,4.461,4.461,4.461,4.46,4.6706,4.8757,4.8171,4.8418,4.8411,4.6874,4.6403,4.6157,4.5603,4.5495,4.5272,4.4465,4.432,4.4266,4.4013,4.3959,4.3731,0.0,0.0,0.0,0.0,0.0,0.0,0.0,0.0,0.0,0.0,0.0,0.0,0.0,4.1265,4.1602,4.2201,4.2336,4.2641,4.32,4.326,4.329,0.0,4.329,4.329,4.329,4.329,4.329,4.329,4.329,4.329,4.329,4.329,4.329,4.329,4.329,4.3581,4.3988,4.3988,4.4243,4.461,4.461,4.4097,4.3284,4.24,4.1505,4.056,3.9662,3.9336,3.9305,3.9305,3.9305,3.9305,3.9305,3.9305,3.9305,3.9305,3.9305,3.9305,3.9305,3.9305,3.9305,3.9305,3.9305,3.9587,4.0432,4.138,4.2032,4.2196,4.2926,4.3678,4.4496,4.461,4.461,4.461,4.461,4.461,4.461,4.461,4.461,4.461,4.461,4.461,4.461,4.461,4.461,4.461,4.461,4.461,4.461,4.461,4.461,4.461,4.461,4.461,4.4614,4.6313,4.8368,4.9349,4.927,4.8409,4.6284,4.4987,4.4363,4.4764,4.4841,4.4756,4.4564,4.4549,4.4327,4.3767,4.3675,4.3407,0.0,0.0,0.0,0.0,0.0,0.0,0.0,0.0,0.0,0.0,0.0,0.0,3.9873,4.0337,4.0666,4.0816,4.1856,4.247,4.2605,4.3075,4.329,0.0,4.329,4.329,4.329,4.329,4.329,4.329,4.329,4.329,4.329,4.329,4.329,4.329,4.329,4.3581,4.3988,4.3988,4.4243,4.461,4.461,4.4496,4.4174,4.3284,4.2426,4.1519,4.0617,3.9823,3.9305,3.9305,3.9305,3.9305,3.9305,3.9305,3.9305,3.9305,3.9305,3.9305,3.9305,3.9305,3.9305,3.9305,3.9305,3.9587,4.0432,4.138,4.2467,4.3849,4.4212,4.4381,4.4587,4.461,4.461,4.461,4.461,4.461,4.461,4.461,4.461,4.461,4.461,4.461,4.461,4.461,4.461,4.461,4.461,4.461,4.461,4.461,4.461,4.461,4.461,4.461,4.4925,4.6481,4.8166,4.9234,4.9483,4.8808,4.6216,4.4843,4.4009,4.3694,4.3633,4.3633,4.3633,4.3633,4.3525,4.3171,4.311,0.0,0.0,0.0,0.0,0.0,0.0,0.0,0.0,0.0,0.0,0.0,0.0,3.9783,3.9439,3.9753,4.0068,4.0382,4.1407,4.1931,4.1931,4.2536,4.2865,4.2865,4.2865,4.2865,4.288,4.3155,4.329,4.329,4.329,4.329,4.329,4.329,4.329,4.329,4.329,4.3581,4.3988,4.3988,4.4243,4.461,4.461,4.461,4.4458,4.356,4.2991,4.2386,4.1014,4.0273,3.9911,3.9911,3.9631,3.938,3.9823,3.9631,3.9305,3.9305,3.9305,3.9305,3.9305,3.9305,3.9305,3.9305,3.9305,3.9719,4.1043,4.2371,4.356,4.4458,4.461,4.461,4.461,4.461,4.461,4.461,4.461,4.461,4.461,4.461,4.461,4.461,4.461,4.461,4.461,4.461,4.461,4.461,4.461,4.461,4.461,4.461,4.461,4.461,4.461,4.461,4.4925,4.6498,4.7939,4.8846,4.9171,4.8659,4.6242,4.4861,4.3756,4.2663,4.2525,4.2602,4.2602,4.2602,4.2571,4.2463,4.2432,0.0,0.0,0.0,0.0,0.0,0.0,0.0,0.0,0.0,0.0,0.0,0.0,3.9388,3.9388,3.9388,3.9664,4.0217,4.0876,4.1205,4.1205,4.1901,4.2291,4.2396,4.2396,4.2396,4.241,4.2806,4.2961,4.2961,4.2961,4.2961,4.2961,4.2961,4.3021,4.3125,4.3125,4.3476,4.3949,4.3988,4.4243,4.4534,4.4587,4.461,4.4496,4.3771,4.3403,4.3031,4.1518,4.0972,4.0817,4.0646,4.0201,3.9851,4.0273,3.9954,3.9499,3.9349,3.9424,3.9455,3.9336,3.9305,3.9305,3.9305,3.9305,3.9895,4.1701,4.3205,4.4251,4.4534,4.461,4.461,4.461,4.461,4.461,4.461,4.461,4.461,4.461,4.461,4.461,4.461,4.461,4.461,4.461,4.461,4.461,4.461,4.461,4.461,4.461,4.461,4.461,4.461,4.461,4.461,4.3487,4.5297,4.74,4.936,4.8092,4.6219,4.5798,4.3784,4.194,4.1771,4.2202,4.2602,4.2602,4.2602,4.2417,4.1832,4.174,0.0,0.0,0.0,0.0,0.0,0.0,0.0,0.0,0.0,0.0,0.0,3.9433,3.9388,3.9388,3.9388,3.9454,3.9544,4.0187,4.0531,4.0531,4.119,4.1841,4.2396,4.2396,4.2396,4.2381,4.1901,4.1639,4.1639,4.1639,4.1639,4.1639,4.1639,4.2021,4.253,4.253,4.3007,4.3769,4.3949,4.4127,4.4358,4.4549,4.461,4.4572,4.4458,4.3927,4.3245,4.3031,4.2426,4.1645,4.0817,4.1085,4.1324,3.9851,3.9954,4.023,3.9455,3.9867,4.023,3.9455,3.9305,3.9305,3.9305,3.9305,3.9895,4.1701,4.2196,4.2845,4.4366,4.461,4.461,4.461,4.461,4.461,4.461,4.461,4.461,4.461,4.461,4.461,4.461,4.461,4.461,4.461,4.461,4.461,4.461,4.461,4.461,4.461,4.461,4.461,4.461,4.461,4.461,4.4147,4.6024,4.7642,4.8595,4.7605,4.6099,4.4855,4.3038,4.1478,4.1078,4.1232,4.1397,4.1397,4.1397,4.132,4.1047,4.1001,0.0,0.0,0.0,0.0,0.0,0.0,0.0,0.0,0.0,0.0,0.0,3.9388,3.9388,3.9388,3.9388,3.9388,3.9388,4.0053,4.0232,3.9843,4.0502,4.098,4.1265,4.1677,4.1647,4.125,4.0965,4.1025,4.1422,4.1422,4.1422,4.1422,4.1422,4.1587,4.1886,4.2246,4.2707,4.3217,4.3773,4.4143,4.432,4.4534,4.461,4.461,4.461,4.4328,4.3927,4.3442,4.3046,4.2629,4.2234,4.1699,4.1254,4.1505,4.0703,3.9911,3.9984,4.0317,4.036,3.9499,3.9662,4.0027,4.0027,4.046,4.1226,4.2508,4.2725,4.3165,4.4419,4.461,4.461,4.461,4.461,4.461,4.461,4.461,4.461,4.461,4.461,4.461,4.461,4.461,4.461,4.461,4.461,4.461,4.461,4.461,4.461,4.461,4.4995,4.4979,4.4625,4.501,4.4941,4.413,4.5652,4.6667,4.7445,4.6802,4.5718,4.4494,4.2852,4.1434,4.0857,4.0612,4.0489,4.0489,4.0489,4.0489,4.0489,0.0,0.0,0.0,0.0,0.0,0.0,0.0,0.0,0.0,0.0,0.0,0.0,3.9388,3.9388,3.9388,3.9388,3.9388,3.9388,3.9903,3.9918,3.9388,4.0068,4.0397,4.0412,4.0905,4.0876,4.0397,4.0232,4.0412,4.0876,4.0876,4.0876,4.0876,4.0876,4.098,4.119,4.1707,4.2083,4.2476,4.341,4.3845,4.4014,4.445,4.461,4.461,4.461,4.461,4.4496,4.3849,4.3654,4.356,4.3364,4.2478,4.185,4.2735,4.1672,4.0374,4.056,4.093,4.0972,3.9867,4.0158,4.0603,4.0603,4.138,4.2278,4.3165,4.3284,4.3615,4.4458,4.461,4.461,4.461,4.461,4.461,4.461,4.461,4.461,4.461,4.461,4.461,4.461,4.461,4.461,4.461,4.461,4.461,4.461,4.461,4.461,4.461,4.508,4.5064,4.4625,4.5095,4.5103,4.2033,4.2523,4.3267,4.6126,4.5239,4.4015,4.5384,4.3509,4.1507,4.1475,4.0922,4.0489,4.0489,4.0489,4.0489,4.0489,0.0,0.0,0.0,0.0,0.0,0.0,0.0,0.0,0.0,0.0,0.0,0.0,3.9388,3.9388,3.9388,3.9388,3.9388,3.9388,3.9418,3.9454,3.9388,4.0068,4.0397,4.0397,4.0442,4.0427,4.0382,3.9753,3.9448,3.9514,3.9514,3.9514,3.9514,3.9514,3.9888,4.0457,4.0487,4.0891,4.1595,4.2675,4.3085,4.3198,4.4243,4.461,4.461,4.461,4.461,4.4572,4.4534,4.4534,4.4381,4.3521,4.3849,4.4043,4.2467,4.2603,4.2655,4.1014,4.1891,4.2695,4.0887,4.056,4.0603,4.0603,4.138,4.2278,4.3165,4.3284,4.3615,4.4458,4.461,4.461,4.461,4.461,4.461,4.461,4.461,4.461,4.461,4.461,4.461,4.461,4.461,4.461,4.461,4.461,4.461,4.461,4.461,4.461,4.461,4.4656,4.4618,4.461,4.4656,4.4618,4.1907,4.2286,4.2794,4.4886,4.4432,4.3645,4.4191,4.3206,4.2013,4.1591,4.1309,4.1024,4.0593,4.0489,4.0489,4.0489,0.0,0.0,0.0,0.0,0.0,0.0,0.0,0.0,0.0,0.0,0.0,0.0,0.0,0.0,3.9388,3.9388,3.9388,3.9388,3.9388,3.9388,3.9388,3.9649,3.9768,3.9768,3.9768,3.9768,3.9768,3.9493,3.9388,3.9388,3.9388,3.9388,3.9388,3.9388,3.9559,3.9813,4.0232,4.0801,4.1497,4.2439,4.3159,4.3707,4.4243,4.4396,4.4435,4.4549,4.4511,4.4435,4.4572,4.461,4.4534,4.4212,4.3966,4.3771,4.3693,4.3086,4.2426,4.2356,4.2412,4.2426,4.2356,4.2316,4.2316,4.2316,4.2614,4.3126,4.3966,4.3678,4.3615,4.4458,4.461,4.461,4.461,4.461,4.461,4.461,4.461,4.461,4.461,4.461,4.461,4.461,4.461,4.461,4.461,4.461,4.461,4.461,4.461,4.461,4.461,4.5018,4.5003,4.4625,4.5018,4.4987,4.1314,4.1728,4.2286,4.3809,4.3821,4.3589,4.4136,4.3515,4.2645,4.1981,4.1656,4.1309,4.0612,4.0489,4.0489,4.0489,0.0,0.0,0.0,0.0,0.0,0.0,0.0,0.0,0.0,0.0,0.0,0.0,0.0,0.0,3.9388,3.9388,3.9388,3.9388,3.9388,3.9388,3.9388,3.9185,3.9065,3.9065,3.9065,3.9065,3.908,3.932,3.9388,3.9388,3.9388,3.9388,3.9388,3.9388,3.9388,3.9433,3.9903,4.0337,4.0868,4.1942,4.2735,4.3327,4.3975,4.4205,4.4205,4.4358,4.4358,4.432,4.4473,4.4549,4.461,4.461,4.4174,4.3888,4.4458,4.3521,4.2684,4.3521,4.3086,4.2684,4.356,4.3521,4.3284,4.3284,4.3536,4.3927,4.4496,4.4135,4.3927,4.4496,4.461,4.461,4.461,4.461,4.461,4.461,4.461,4.461,4.461,4.461,4.461,4.461,4.461,4.461,4.461,4.461,4.461,4.461,4.461,4.461,4.461,4.5033,4.5018,4.4625,4.5049,4.5041,0.0,0.0,0.0,4.2953,4.3325,4.373,4.528,4.4532,4.33,4.266,4.2013,4.1343,4.0646,4.0524,4.0524,4.0489,0.0,0.0,0.0,0.0,0.0,0.0,0.0,0.0,0.0,0.0,0.0,0.0,0.0,3.9388,3.9388,3.9388,3.9388,3.9388,3.9388,3.9388,3.9388,3.8736,3.8392,3.8392,3.8392,3.8392,3.8407,3.9095,3.9388,3.9388,3.9388,3.9388,3.9388,3.9388,3.9388,3.9388,3.9388,3.9388,3.9604,4.1114,4.1723,4.1957,4.3479,4.3988,4.3988,4.3988,4.4143,4.4281,4.4281,4.4435,4.4572,4.4572,4.4572,4.4572,4.461,4.3966,4.356,4.4419,4.3966,4.356,4.4419,4.3927,4.3324,4.3324,4.4004,4.461,4.461,4.461,4.461,4.461,4.461,4.461,4.461,4.461,4.461,4.461,4.461,4.461,4.461,4.461,4.461,4.461,4.461,4.461,4.461,4.461,4.461,4.461,4.461,4.461,4.461,4.461,4.461,4.461,4.461,4.461,4.0096,0.0,0.0,0.0,0.0,0.0,0.0,4.3721,4.3377,4.3248,4.3075,4.2583,4.1426,4.1209,4.1057,4.0593,4.0489,0.0,0.0,0.0,0.0,0.0,0.0,0.0,0.0,0.0,0.0,0.0,3.9388,3.9388,3.9388,3.9388,3.9388,3.9388,3.9388,3.9388,3.9388,3.8736,3.8392,3.8392,3.8392,3.8392,3.8407,3.9095,3.9388,3.9388,3.9388,3.9388,3.9388,3.9388,3.9388,3.9388,3.9388,3.9709,4.0232,4.1145,4.1874,4.253,4.3467,4.3754,4.3808,4.3949,4.3949,4.391,4.4205,4.4243,4.4205,4.4358,4.4396,4.4435,4.4572,4.4419,4.4289,4.4534,4.4419,4.4289,4.4534,4.4419,4.4251,4.4251,4.4458,4.461,4.461,4.461,4.461,4.461,4.461,4.461,4.461,4.461,4.461,4.461,4.461,4.461,4.461,4.461,4.461,4.461,4.461,4.461,4.461,4.461,4.461,4.461,4.461,4.461,4.461,4.461,4.461,4.461,4.461,4.461,4.0096,4.0333,4.073,4.1474,0.0,0.0,4.3555,4.3656,4.3412,0.0,4.3512,4.3106,4.1739,4.1492,4.137,4.1013,4.097,0.0,0.0,0.0,0.0,0.0,0.0,0.0,0.0,4.0183,3.9839,3.9553,3.9517,3.9481,3.9409,3.9388,3.9388,3.9388,3.9388,3.9388,3.9388,3.8736,3.8257,3.7988,3.8257,3.8242,3.8018,3.8975,3.9388,3.9388,3.9388,3.9388,3.9388,3.9388,3.9388,3.9388,3.9388,3.9649,4.0113,4.104,4.17,4.2294,4.3226,4.3518,4.3557,4.366,4.3714,4.3729,4.3988,4.4026,4.4026,4.4127,4.4166,4.4205,4.432,4.4396,4.4473,4.4473,4.4549,4.461,4.461,4.461,4.461,4.461,4.461,4.461,4.461,4.461,4.461,4.461,4.461,4.461,4.461,4.461,4.461,4.461,4.461,4.461,4.461,4.461,4.461,4.461,4.461,4.461,4.461,4.461,4.461,4.461,4.461,4.461,4.461,4.461,4.461,4.461,4.461,4.461,4.0096,4.0561,4.1255,4.1982,4.2168,0.0,4.4124,4.391,4.344,0.0,4.3601,4.3227,4.1965,4.1706,4.1698,4.1601,4.1707,0.0,0.0,0.0,0.0,0.0,0.0,0.0,4.1321,4.0771,4.0213,3.9768,3.9717,3.9625,3.9424,3.9388,3.9388,3.9388,3.9388,3.9388,3.9388,3.8736,3.8063,3.7419,3.8078,3.8048,3.7464,3.8811,3.9388,3.9388,3.9388,3.9388,3.9424,3.9499,3.9484,3.9388,3.9388,3.9433,3.9679,4.092,4.1467,4.1669,4.2871,4.329,4.329,4.329,4.3463,4.3651,4.369,4.3793,4.3949,4.3949,4.3988,4.3988,4.3988,4.4127,4.4281,4.4281,4.4396,4.4549,4.4572,4.4549,4.4549,4.4572,4.461,4.461,4.461,4.461,4.461,4.461,4.461,4.461,4.461,4.461,4.461,4.461,4.461,4.461,4.461,4.461,4.461,4.461,4.461,4.461,4.461,4.461,4.461,4.461,4.461,4.461,4.461,4.461,4.461,4.461,4.461,4.461,4.0096,4.0214,4.0476,4.1221,4.1407,0.0,4.3301,4.3494,4.3584,0.0,4.4384,4.4105,4.3273,4.3106,4.274,4.1682,4.2472,0.0,0.0,0.0,0.0,0.0,0.0,0.0,4.1413,4.1199,4.0787,4.0006,3.9803,3.9625,3.9424,3.9388,3.9388,3.9388,3.9388,3.9388,3.9388,3.8736,3.8063,3.7419,3.8078,3.8048,3.7464,3.8811,3.9388,3.9388,3.9388,3.9388,3.9454,3.9993,3.9903,3.9388,3.9388,3.9738,4.0307,4.1085,4.1752,4.2321,4.306,4.329,4.329,4.329,4.3329,4.3423,4.3636,4.3596,4.3503,4.3714,4.3769,4.3808,4.3949,4.4026,4.4065,4.4065,4.4104,4.4166,4.432,4.4243,4.4205,4.4549,4.461,4.461,4.461,4.461,4.461,4.461,4.461,4.461,4.461,4.461,4.461,4.461,4.461,4.461,4.461,4.461,4.461,4.461,4.461,4.461,4.461,4.461,4.461,4.461,4.461,4.461,4.461,4.461,4.461,4.461,4.461,4.461,4.0096,4.0383,4.073,4.1119,0.0,0.0,0.0,4.3392,4.3639,4.4418,4.4265,4.3884,4.3564,4.2886,4.243,4.2527,4.2514,0.0,0.0,0.0,0.0,0.0,0.0,0.0,4.2523,4.2119,4.1689,4.1064,4.0483,4.0257,4.0382,4.0397,4.0247,3.9918,3.9903,3.9753,3.9388,3.908,3.8556,3.7913,3.8586,3.8556,3.7928,3.8945,3.9388,3.9388,3.9388,3.9604,3.9933,4.0262,4.0397,4.0397,4.0397,4.0591,4.0965,4.1662,4.2111,4.25,4.3105,4.329,4.329,4.329,4.329,4.3329,4.3463,4.3423,4.3329,4.3463,4.3518,4.3503,4.3621,4.3754,4.3832,4.3832,4.391,4.4026,4.4143,4.4065,4.4065,4.4243,4.4396,4.4473,4.4572,4.461,4.461,4.461,4.461,4.461,4.461,4.461,4.461,4.461,4.461,4.461,4.461,4.461,4.461,4.461,4.461,4.461,4.461,4.461,4.461,4.461,4.461,4.461,4.461,4.461,4.461,4.461,4.461,4.461,0.0,0.0,4.1068,0.0,0.0,4.2523,0.0,0.0,0.0,4.4479,4.4079,0.0,0.0,0.0,0.0,0.0,0.0,0.0,0.0,0.0,0.0,0.0,0.0,0.0,0.0,4.2802,4.2318,4.2095,4.1252,4.0977,4.1415,4.1422,4.113,4.0606,4.0472,4.0142,3.9619,3.9448,3.9065,3.8407,3.9095,3.905,3.8407,3.9095,3.9388,3.9388,3.9559,3.9903,4.0427,4.0666,4.1085,4.1587,4.1467,4.1497,4.1677,4.2201,4.247,4.2626,4.315,4.329,4.329,4.329,4.329,4.329,4.329,4.329,4.329,4.329,4.329,4.329,4.329,4.3463,4.3596,4.3596,4.3754,4.3871,4.3949,4.391,4.3895,4.3988,4.4143,4.432,4.4511,4.4572,4.461,4.461,4.461,4.461,4.461,4.461,4.461,4.461,4.461,4.461,4.461,4.461,4.461,4.461,4.461,4.461,4.461,4.461,4.461,4.461,4.461,4.461,4.461,4.461,4.461,4.461,4.461,4.461,0.0,0.0,0.0,0.0,4.2236,0.0,0.0,0.0,4.4496,4.4581,0.0,0.0,0.0,0.0,0.0,0.0,0.0,0.0,0.0,0.0,0.0,0.0,0.0,0.0,0.0,4.2109,4.1884,4.2233,4.145,4.1176,4.1625,4.1483,4.1392,4.1265,4.0711,4.0367,4.0292,3.9709,3.9065,3.8407,3.9095,3.905,3.8407,3.9095,3.9388,3.9418,4.0038,4.0337,4.0487,4.1692,4.2216,4.2231,4.1647,4.1767,4.2306,4.2366,4.2731,4.32,4.3275,4.329,4.329,4.329,4.329,4.329,4.329,4.329,4.329,4.329,4.329,4.329,4.329,4.3329,4.3344,4.3344,4.3369,4.3448,4.3675,4.3557,4.3503,4.391,4.4026,4.4104,4.4281,4.4473,4.461,4.461,4.461,4.461,4.461,4.461,4.461,4.461,4.461,4.461,4.461,4.461,4.461,4.461,4.461,4.461,4.461,4.461,4.461,4.461,4.461,4.461,4.461,4.461,4.461,4.461,4.461,4.461,0.0,0.0,0.0,0.0,0.0,0.0,4.3656,0.0,4.4615,0.0,0.0,0.0,0.0,0.0,0.0,0.0,4.3117,0.0,0.0,0.0,0.0,0.0,0.0,0.0,0.0,0.0,0.0,0.0,0.0,4.1721,4.2198,4.2413,4.2342,4.2006,4.1722,4.1175,4.0412,4.0127,3.9649,3.899,3.929,3.9275,3.899,3.929,3.9388,3.9454,4.0113,4.0621,4.104,4.2021,4.262,4.2895,4.2611,4.2671,4.2925,4.2925,4.309,4.329,4.329,4.329,4.329,4.329,4.329,4.329,4.329,4.329,4.329,4.329,4.329,4.329,4.329,4.329,4.329,4.329,4.329,4.3329,4.3423,4.3384,4.3369,4.3542,4.3714,4.3871,4.4104,4.4396,4.461,4.461,4.461,4.461,4.461,4.461,4.461,4.461,4.461,4.461,4.461,4.461,4.461,4.461,4.461,4.461,4.461,4.461,4.461,4.461,4.461,4.461,4.461,4.461,4.461,4.461,4.461,4.461,4.0096,0.0,0.0,0.0,0.0,0.0,0.0,0.0,0.0,0.0,0.0,0.0,0.0,0.0,0.0,4.4045,0.0,4.1666,0.0,0.0,0.0,0.0,0.0,0.0,0.0,0.0,0.0,0.0,0.0,0.0,4.2953,4.3178,4.312,4.2641,4.25,4.1946,4.095,4.0576,4.0157,3.9694,3.9514,3.9388,3.9388,3.9388,3.9514,3.9709,4.0187,4.0876,4.1722,4.2201,4.2746,4.329,4.329,4.329,4.329,4.329,4.329,4.329,4.329,4.329,4.329,4.329,4.329,4.329,4.329,4.329,4.329,4.329,4.329,4.329,4.329,4.329,4.329,4.329,4.329,4.329,4.329,4.329,4.329,4.329,4.3518,4.3769,4.391,4.422,4.4473,4.4572,4.4534,4.4549,4.4572,4.461,4.461,4.461,4.461,4.461,4.461,4.461,4.461,4.461,4.461,4.461,4.461,4.461,4.461,4.461,4.461,4.461,4.461,4.461,4.461,4.461,4.461,4.461,0.0,0.0,0.0,4.1897,0.0,0.0,0.0,0.0,4.325,0.0,0.0,0.0,0.0,0.0,4.254,4.3291,4.2277,0.0,0.0,0.0,0.0,0.0,0.0,0.0,0.0,0.0,0.0,0.0,0.0,0.0,4.3881,4.3527,4.329,4.326,4.2686,4.2381,4.2336,4.104,4.0382,4.0367,3.9723,3.9388,3.9388,3.9388,3.9768,4.0367,4.0382,4.113,4.2366,4.2396,4.2746,4.329,4.329,4.329,4.329,4.329,4.329,4.329,4.329,4.329,4.329,4.329,4.329,4.329,4.329,4.329,4.329,4.329,4.329,4.329,4.329,4.329,4.329,4.329,4.329,4.329,4.329,4.329,4.329,4.329,4.3518,4.369,4.3729,4.3871,4.4127,4.4549,4.4435,4.4396,4.4572,4.461,4.461,4.461,4.461,4.461,4.461,4.461,4.461,4.461,4.461,4.461,4.461,4.461,4.461,4.461,4.461,4.461,4.461,4.461,4.461,4.461,4.461,4.461,0.0,0.0,4.035,4.1322,0.0,0.0,0.0,0.0,0.0,0.0,0.0,0.0,0.0,4.2286,4.254,4.3274,4.267,4.2152,0.0,0.0,0.0,0.0,0.0,0.0,0.0,0.0,0.0,0.0,4.2297,0.0,0.0,4.3301,4.329,4.329,4.312,4.2791,4.2396,4.1527,4.0831,4.0382,3.9738,3.9388,3.9388,3.9388,3.9508,3.9768,4.0217,4.0651,4.11,4.1572,4.2141,4.2686,4.2686,4.2955,4.329,4.329,4.329,4.329,4.329,4.329,4.329,4.329,4.329,4.329,4.329,4.329,4.329,4.329,4.329,4.329,4.329,4.329,4.329,4.329,4.329,4.329,4.329,4.329,4.329,4.329,4.3384,4.3503,4.369,4.3769,4.3949,4.4358,4.4473,4.4534,4.4572,4.461,4.461,4.461,4.461,4.461,4.461,4.461,4.461,4.461,4.461,4.461,4.461,4.461,4.461,4.461,4.461,4.461,4.461,4.461,4.461,4.461,4.5104,4.5067,4.0096,4.0096,0.0,4.1018,4.1204,0.0,4.1796,0.0,0.0,0.0,0.0,0.0,0.0,0.0,4.2151,4.2895,4.2674,4.2331,0.0,4.1209,0.0,0.0,0.0,0.0,0.0,0.0,4.1601,4.254,4.2227,0.0,0.0,0.0,4.3384,4.329,4.329,4.3135,4.2701,4.2096,4.1399,4.0741,4.0083,3.9649,3.9388,3.9388,3.9544,3.9783,3.9963,4.0307,4.0786,4.1205,4.1811,4.2425,4.2626,4.297,4.329,4.329,4.329,4.329,4.329,4.329,4.329,4.329,4.329,4.329,4.329,4.329,4.329,4.329,4.329,4.329,4.329,4.329,4.329,4.329,4.329,4.329,4.329,4.329,4.329,4.329,4.329,4.3344,4.3518,4.3636,4.3847,4.4243,4.4396,4.4511,4.4572,4.461,4.461,4.461,4.461,4.461,4.461,4.461,4.461,4.461,4.461,4.461,4.461,4.461,4.461,4.461,4.461,4.461,4.461,4.4858,4.4993,4.5008,4.5733,4.5841]}]]